GFSSE_925_spd_000.txt.gz
Wind_Speed
16 20 20 19 17 15 13 13 9 9 9 9 9 10 11 9 6 5 4 4 5 5 4 4 6 8 9 5 5 2 3 4 8 11 12 7 4 5 6 7 10 6 6
19 22 20 18 18 14 15 14 10 9 9 9 9 10 9 8 5 5 5 5 5 4 3 3 3 2 4 4 0 3 5 8 9 11 8 3 3 4 6 7 8 7 3
20 24 18 19 16 16 15 13 10 9 10 10 10 8 9 8 5 7 7 6 3 1 2 2 2 5 3 3 3 3 3 6 8 8 6 2 3 6 7 9 8 9 6
22 24 21 19 16 17 16 12 9 9 9 9 10 7 6 7 6 6 5 3 3 3 4 3 1 2 4 6 6 7 8 8 8 7 4 4 4 4 8 10 9 7 8
21 23 22 20 18 16 16 11 9 9 9 8 11 8 7 6 8 10 4 3 5 6 5 4 2 2 3 3 5 8 9 9 12 9 7 7 7 5 8 10 11 11 9
20 23 22 20 18 17 16 11 10 10 8 8 10 8 5 3 5 8 7 4 3 3 4 4 3 4 6 7 7 8 9 9 11 11 12 11 10 10 10 12 12 12 11
22 22 21 20 19 18 14 12 10 11 9 8 8 8 6 2 1 7 8 8 4 3 3 4 4 6 8 9 10 10 11 12 12 13 13 12 13 13 13 13 15 15 14
22 23 22 20 19 18 14 12 10 11 10 8 8 8 6 4 1 3 6 5 4 4 5 6 7 9 9 10 10 10 11 13 15 15 16 15 15 15 15 16 16 16 16
23 25 22 21 19 17 16 13 11 11 10 8 7 6 7 6 5 3 6 6 5 5 6 8 10 10 10 10 11 12 14 15 16 17 18 18 16 14 15 15 16 17 17
24 22 20 21 20 19 17 15 14 14 12 10 7 4 3 5 5 3 3 4 5 7 9 9 9 7 7 8 9 10 11 13 15 17 18 18 16 15 15 16 16 17 18
24 22 19 21 21 20 18 16 15 13 11 10 8 3 4 5 6 5 4 3 4 4 4 5 5 7 8 10 11 12 14 16 17 18 20 20 20 20 17 17 19 20 19
26 25 22 20 22 19 18 17 15 13 12 10 8 8 5 4 2 2 2 4 4 4 4 6 7 9 10 12 12 14 16 17 19 20 21 22 23 24 21 22 24 24 24
30 27 27 24 21 18 19 17 15 12 11 10 9 8 6 4 2 1 1 3 5 6 7 7 8 10 12 13 12 13 16 17 18 19 19 19 20 21 21 22 24 24 25
26 28 26 26 24 20 19 18 16 12 11 9 10 8 8 5 4 2 2 5 4 4 5 8 7 8 8 10 12 14 16 16 17 17 19 18 21 22 20 21 24 27 26
29 30 28 25 25 22 20 19 14 12 13 8 11 10 8 5 3 1 2 4 5 5 6 6 7 9 11 13 15 17 16 16 18 17 19 20 20 18 16 18 19 20 23
24 32 28 25 25 23 21 18 13 12 13 11 10 8 5 3 4 7 6 8 8 7 6 7 9 12 14 16 17 17 18 19 19 20 16 14 15 14 15 17 18 17 18
22 28 29 26 24 22 22 17 14 12 13 13 12 8 7 6 7 9 5 5 6 5 6 9 11 14 15 16 17 18 18 18 17 12 12 16 14 16 19 19 17 20 21
20 23 28 26 24 21 20 17 16 16 16 15 12 10 10 7 7 5 5 5 6 6 9 12 14 14 15 18 19 17 20 14 11 13 17 16 18 18 21 17 19 23 23
16 21 24 25 26 23 21 21 19 17 18 18 16 16 14 11 9 7 7 7 6 8 10 12 13 14 16 20 18 19 18 9 9 19 21 18 24 19 22 22 25 25 25
14 16 19 28 30 28 25 26 26 25 22 19 18 17 14 12 10 8 8 8 8 9 10 11 12 14 14 21 13 23 9 5 7 23 21 26 20 20 24 26 27 28 26
13 18 25 34 32 33 30 31 30 27 24 22 20 18 16 13 11 10 9 8 8 9 10 12 13 16 13 23 11 19 6 12 2 35 16 29 20 30 24 28 27 27 28
17 21 28 34 34 34 33 29 30 28 24 23 20 18 15 12 11 10 9 9 8 9 10 12 14 14 9 20 12 5 4 7 13 33 18 24 21 24 25 28 27 26 29
21 26 32 34 33 32 32 30 30 26 25 23 19 17 13 11 10 9 8 8 8 9 10 11 13 15 14 15 16 11 4 3 13 4 24 16 37 21 32 28 27 27 24
23 27 30 31 31 31 32 33 34 27 25 21 18 16 13 10 9 8 8 8 8 8 9 11 13 15 17 17 14 16 14 13 3 6 10 30 17 28 27 28 27 24 30
26 28 31 33 31 32 32 33 30 27 21 20 18 15 11 8 7 7 7 7 8 9 10 12 15 17 17 17 18 21 22 20 13 5 11 10 26 26 28 27 26 30 30
27 29 32 34 32 31 30 28 26 25 23 21 17 14 9 6 5 6 6 7 7 9 11 14 15 17 18 17 18 20 19 10 13 10 9 11 15 22 20 27 25 28 24

GFSSE_925_spd_003.txt.gz
Wind_Speed
18 23 22 17 16 15 14 13 11 8 8 7 7 10 11 11 10 7 5 4 5 5 1 3 5 7 6 5 5 4 4 4 7 12 13 11 7 5 6 7 10 10 7
18 24 23 20 17 16 14 13 11 9 10 8 8 10 8 7 6 6 6 6 5 3 2 5 4 3 3 3 1 3 4 5 10 13 10 7 3 3 5 6 6 8 5
22 25 23 20 19 15 15 13 11 9 9 9 9 9 8 7 6 5 7 7 4 2 3 4 4 6 4 4 3 4 5 6 9 11 10 4 4 5 5 6 8 6 6
22 24 21 20 19 15 15 13 11 9 10 10 10 8 7 8 6 5 6 4 3 4 4 4 3 4 4 5 6 7 8 9 10 10 10 6 6 6 8 9 9 7 9
23 23 21 19 17 18 16 13 11 10 9 9 10 8 6 8 9 10 5 6 3 4 3 3 2 3 4 4 5 7 8 9 11 11 10 9 10 8 6 8 9 10 10
24 23 20 19 18 17 16 13 12 11 10 9 10 8 7 5 7 10 8 4 3 1 2 2 3 3 5 7 8 9 9 9 10 11 11 12 14 12 10 11 13 12 11
23 22 21 19 18 17 16 13 13 12 10 9 10 9 7 2 2 8 9 5 5 2 2 3 4 5 7 8 8 9 9 11 13 14 13 13 13 13 13 13 14 14 14
22 23 21 19 19 18 16 13 12 12 10 10 10 9 7 7 2 5 7 6 4 4 4 5 6 8 9 9 8 9 10 11 13 14 14 14 14 14 14 15 15 15 16
21 23 22 21 20 20 17 15 12 12 12 10 9 8 8 8 6 3 5 6 5 6 6 8 9 9 9 9 9 9 9 11 12 13 14 15 15 14 13 13 14 15 16
22 23 23 22 22 21 18 16 14 14 12 10 9 6 6 8 7 4 4 5 5 6 8 8 7 7 7 8 9 10 11 12 13 15 15 15 16 16 15 14 15 15 16
23 25 24 23 23 22 19 17 15 15 13 11 9 5 6 7 7 5 3 2 3 5 5 6 6 7 9 12 12 13 14 16 16 16 16 16 15 15 16 17 17 18 19
23 28 26 24 25 22 21 19 17 15 14 12 10 8 5 5 4 4 2 1 3 4 6 7 9 9 9 9 9 8 11 13 14 15 15 15 15 15 16 17 19 19 19
29 28 28 25 24 24 22 19 17 15 13 11 9 10 7 4 3 3 1 1 4 6 6 5 5 5 6 7 9 11 13 12 13 14 12 13 14 14 14 14 17 18 19
26 30 29 26 24 23 21 20 18 15 13 12 10 10 7 5 3 1 1 1 2 1 1 2 4 6 9 11 13 14 15 15 15 14 14 13 12 13 12 12 12 13 15
28 29 31 28 25 23 21 19 17 14 13 10 11 9 7 5 5 4 3 2 4 3 3 4 7 10 13 15 15 16 16 16 16 13 10 10 9 10 12 12 12 13 16
30 32 30 29 27 24 21 19 18 15 13 10 10 10 8 7 6 6 7 5 4 3 5 8 12 14 14 16 17 16 15 17 12 10 10 10 11 12 12 13 15 15 16
27 27 31 27 26 25 22 20 16 15 15 12 13 11 8 6 8 4 5 5 4 6 8 11 13 14 15 17 17 16 16 14 8 11 11 11 12 13 12 14 17 17 17
21 23 28 26 25 26 25 21 16 14 14 14 13 10 7 6 4 3 4 6 7 9 12 13 15 16 16 19 20 17 19 8 6 18 11 15 13 14 13 15 17 18 15
19 22 28 27 27 27 25 21 18 17 18 17 15 12 10 6 8 8 9 9 9 10 11 12 13 15 15 21 20 20 16 2 2 8 13 18 14 17 15 19 19 19 18
15 19 27 27 29 30 26 21 21 19 19 19 17 17 15 12 10 9 10 9 9 10 10 12 13 14 11 21 17 21 10 1 4 7 16 21 17 19 19 22 23 22 21
16 19 27 30 32 33 29 27 25 25 23 21 19 18 16 13 11 10 9 8 9 10 11 13 12 14 13 22 10 16 5 7 10 7 20 22 19 21 23 23 27 25 24
19 20 26 33 36 33 29 27 27 27 23 23 21 19 15 12 11 9 9 9 9 9 10 12 13 13 11 19 11 4 4 7 3 25 15 22 16 29 27 31 28 26 23
21 24 29 33 35 32 30 29 29 25 25 23 20 19 14 11 10 8 8 8 8 9 10 11 13 15 11 14 10 9 4 3 9 5 23 9 27 15 28 30 29 24 20
23 26 29 34 34 31 32 31 34 27 25 22 20 18 15 10 8 7 6 7 8 8 9 11 12 14 13 12 8 13 9 7 3 5 6 25 11 27 26 30 27 22 30
25 29 32 34 32 32 31 34 34 31 24 23 21 18 14 10 7 6 5 6 7 7 8 10 12 13 14 13 13 13 10 13 8 3 10 10 26 25 27 24 23 32 25
25 29 33 33 31 32 31 32 32 32 29 26 22 17 13 9 7 5 5 6 6 6 8 10 12 13 14 15 16 15 13 5 9 6 6 12 15 23 25 33 24 26 27

GFSSE_925_spd_006.txt.gz
Wind_Speed
12 24 22 15 17 15 14 13 10 7 6 5 6 7 8 9 10 7 5 3 4 4 5 2 7 8 9 6 5 1 1 3 5 10 15 12 7 5 5 6 6 9 9
20 24 22 16 18 16 14 12 10 8 7 6 7 10 8 6 6 5 5 4 3 4 5 4 3 4 5 4 2 1 3 4 7 9 12 10 5 3 3 5 7 6 6
22 25 24 20 19 16 15 13 10 8 9 8 9 7 8 6 6 5 5 4 3 2 6 5 3 2 3 3 3 3 3 5 7 9 10 7 4 4 5 4 6 6 6
22 26 25 21 19 16 15 13 11 9 9 9 10 8 6 6 6 4 7 4 1 2 4 4 3 3 2 3 4 5 5 6 8 9 9 7 6 6 6 6 8 6 6
24 25 23 21 19 15 15 12 11 10 9 9 9 7 6 8 8 7 8 6 2 1 2 3 3 3 4 4 4 5 5 5 7 8 8 7 8 8 6 6 7 8 9
24 23 21 20 18 16 15 12 11 10 9 9 9 9 7 6 9 10 5 5 3 1 1 2 3 4 5 6 7 6 7 8 8 8 9 8 9 10 10 9 9 11 11
22 21 20 19 17 17 14 13 11 10 9 9 10 9 7 2 2 9 8 5 3 1 2 3 4 5 6 8 9 9 8 7 10 12 12 10 10 10 10 11 11 12 12
21 20 19 18 18 17 14 12 11 10 9 9 10 9 6 5 1 2 8 4 3 2 4 5 6 7 8 8 9 9 9 10 11 12 12 12 11 11 11 12 13 14 14
19 20 19 19 18 17 16 13 11 11 9 9 9 8 7 6 4 2 4 4 3 3 5 7 7 7 7 7 8 8 10 11 12 13 13 14 13 13 12 12 12 13 14
18 20 20 19 19 19 18 14 12 12 10 9 8 7 6 7 6 4 3 4 2 2 4 5 6 6 7 8 10 10 11 12 12 13 13 13 14 14 13 14 14 14 15
17 21 21 19 20 20 19 16 14 13 12 10 8 6 5 5 6 4 2 2 0 2 3 4 7 7 7 7 8 9 9 10 11 11 11 11 11 11 13 14 15 16 18
17 19 22 20 20 21 20 17 16 15 14 12 10 6 3 4 4 4 2 2 1 2 4 5 6 7 7 7 7 8 10 10 11 11 10 9 9 10 11 13 13 13 14
22 19 23 23 21 22 21 19 17 15 14 12 10 8 6 4 3 3 2 0 1 2 3 2 3 4 6 8 9 11 11 11 11 11 10 9 8 8 9 9 9 10 11
20 23 23 25 22 22 22 19 18 17 15 13 10 10 7 5 4 3 2 1 2 1 1 3 4 6 9 10 11 12 13 14 13 10 7 6 6 8 8 7 8 9 11
20 23 24 26 25 22 22 20 18 17 14 12 12 10 8 6 6 5 4 3 2 4 3 5 7 8 10 12 13 13 12 13 9 6 6 7 7 9 11 12 12 12 12
25 26 26 27 27 23 23 21 19 17 14 12 11 10 8 6 5 5 5 4 4 5 6 8 9 11 12 14 14 12 10 10 6 7 6 7 8 9 13 15 15 15 13
25 26 27 28 27 26 24 21 19 18 15 13 10 12 9 8 9 5 6 6 7 7 8 9 10 12 13 15 14 11 12 5 10 8 8 7 8 9 9 13 16 16 15
22 22 20 26 28 27 25 22 20 19 18 14 14 12 11 10 8 6 6 7 8 9 10 12 14 15 15 18 18 14 14 1 4 11 9 8 11 11 11 14 16 16 16
18 17 17 24 28 27 26 24 21 20 19 17 17 17 14 9 9 9 8 9 8 9 12 13 13 15 15 21 21 18 14 3 4 6 10 10 11 13 12 16 18 19 17
15 16 18 24 28 30 29 24 22 23 22 21 20 18 15 14 12 10 10 8 8 9 12 13 13 16 15 22 16 21 8 1 5 4 10 12 11 14 17 20 23 23 20
14 18 24 28 31 34 31 29 26 24 22 20 18 17 17 15 13 10 9 9 10 12 13 14 14 16 17 23 14 17 5 4 9 7 19 12 12 18 22 24 28 27 25
18 22 27 31 34 34 33 29 27 27 23 22 20 19 17 15 13 10 9 10 10 11 12 14 15 14 12 18 13 4 4 6 6 19 15 14 22 18 27 29 30 30 24
20 24 29 32 34 33 31 28 28 25 26 22 21 21 17 14 12 10 9 10 10 11 13 13 13 14 12 14 12 8 4 2 7 5 12 13 16 19 26 29 30 22 24
24 22 27 31 34 33 31 32 34 29 23 24 24 21 17 13 11 10 9 9 10 10 10 11 11 12 11 11 7 11 6 6 3 5 4 23 5 29 26 30 23 30 29
23 25 27 31 33 34 33 31 33 30 26 28 24 21 17 14 11 9 8 8 9 9 9 9 10 11 10 9 9 8 5 9 5 2 7 8 25 23 26 19 34 19 25
22 26 29 33 33 35 33 29 28 31 31 29 25 21 17 13 11 8 7 7 8 7 7 8 9 10 10 11 9 8 7 3 6 4 4 12 14 17 27 26 18 22 22

GFSSE_925_spd_009.txt.gz
Wind_Speed
17 24 22 16 17 16 14 12 10 8 6 5 6 7 6 8 10 8 6 3 4 6 6 5 6 8 10 7 7 5 4 2 4 7 10 11 6 3 1 7 6 7 7
23 25 23 17 18 16 14 12 9 7 6 6 8 8 8 8 7 5 5 4 3 5 6 5 4 3 5 6 3 1 2 3 5 6 9 9 5 4 2 2 5 4 6
26 27 21 17 19 17 14 12 10 9 7 8 9 8 8 6 5 4 4 3 3 4 6 6 5 1 1 2 1 2 3 3 5 6 7 6 3 3 4 3 3 6 5
26 28 23 21 19 16 14 12 9 9 9 9 9 8 6 6 7 5 7 3 2 3 4 5 5 5 3 1 2 3 3 3 4 6 4 5 5 4 4 5 5 7 5
24 25 22 20 18 15 13 12 10 9 9 10 9 6 5 5 6 7 8 3 1 3 4 5 6 5 5 4 4 4 4 4 5 5 5 4 6 6 6 6 6 8 8
23 23 21 18 17 14 13 12 9 9 9 10 9 10 4 5 6 8 5 4 1 2 4 5 6 6 6 6 6 5 4 4 7 6 7 8 8 8 8 9 9 8 10
21 21 19 18 16 14 13 11 10 9 8 8 9 8 5 3 1 8 7 5 2 1 3 5 6 6 6 7 6 6 6 6 6 7 8 8 9 9 9 10 11 12 13
21 20 19 17 16 16 12 11 9 9 8 7 8 7 5 2 3 2 7 4 1 1 3 4 5 6 5 6 5 5 5 6 7 7 8 9 9 9 11 11 11 13 15
18 19 18 16 15 16 13 11 9 8 8 8 9 7 5 4 1 3 5 4 2 2 3 4 5 5 5 5 6 6 7 7 8 9 10 9 9 10 11 12 13 14 15
17 18 18 18 17 17 14 12 11 10 9 8 8 7 6 6 4 3 3 3 2 0 1 3 4 5 5 6 7 7 8 8 8 9 9 9 9 9 10 11 12 14 16
14 18 18 18 18 17 16 14 12 11 10 8 7 6 4 5 6 5 3 3 1 1 2 3 5 5 5 5 6 7 8 8 8 9 9 9 8 9 10 11 12 12 12
13 16 18 17 19 19 18 16 14 14 13 10 8 6 3 4 5 5 3 3 2 1 1 3 3 4 5 7 7 8 9 9 9 9 9 8 8 8 9 10 11 11 11
16 14 19 20 20 20 20 19 17 16 15 12 10 7 4 4 4 5 4 3 2 1 2 1 2 5 6 8 8 9 9 10 10 9 7 6 6 6 7 6 6 6 9
17 18 17 22 22 20 22 21 19 17 16 14 11 9 8 5 5 5 4 3 2 2 1 1 4 7 8 9 10 10 10 11 8 4 4 2 3 8 8 9 10 11 11
16 19 22 22 24 23 23 22 21 19 16 14 12 12 9 7 6 7 6 5 4 3 2 3 5 7 9 10 10 9 9 8 4 3 5 5 8 12 12 13 12 12 11
20 21 21 24 25 24 24 24 22 20 17 15 15 13 10 8 8 9 8 6 4 3 4 5 6 8 10 10 10 7 8 5 3 4 5 6 6 6 14 14 14 12 13
21 18 22 25 26 27 26 25 23 21 18 17 16 15 13 12 11 11 7 6 5 4 5 6 7 8 9 11 12 8 8 3 5 7 7 7 7 7 8 13 15 14 15
21 20 19 23 28 29 27 26 24 23 20 18 16 16 14 13 12 10 8 7 7 6 7 8 10 11 12 15 14 11 9 5 6 7 7 7 8 9 9 11 13 15 16
23 22 18 20 25 29 28 26 25 23 21 21 21 19 18 15 13 11 10 9 7 7 8 9 11 12 14 17 14 13 7 7 6 6 9 9 8 10 12 14 17 18 19
23 20 16 21 23 30 30 27 24 24 24 24 24 23 21 18 14 13 11 9 7 7 9 10 10 11 15 18 16 12 7 4 7 1 6 11 7 10 13 17 21 22 23
17 17 19 25 30 35 35 34 28 27 25 25 25 23 21 19 17 13 11 9 8 9 10 10 8 11 16 20 12 10 5 2 4 5 14 11 8 12 16 18 25 22 20
18 17 19 25 33 36 37 29 32 32 27 26 24 23 22 20 17 14 11 10 9 9 9 11 12 10 10 17 8 2 4 3 4 14 4 8 13 16 19 29 24 22 22
20 22 22 28 30 32 35 33 33 28 28 23 24 24 22 19 17 14 11 10 9 8 10 10 11 11 8 11 14 6 2 2 8 7 13 7 14 12 22 20 20 21 21
25 23 25 29 33 34 36 36 40 31 25 21 30 25 22 18 16 13 11 10 9 8 9 9 9 10 9 8 5 8 2 2 3 5 5 12 6 21 19 18 22 19 20
25 27 27 30 32 36 38 37 37 29 22 32 28 26 23 19 15 13 10 9 8 7 8 8 8 9 9 7 5 4 3 5 3 4 9 11 21 19 20 18 20 18 17
25 26 29 31 31 36 36 35 35 35 31 34 30 27 23 20 16 12 10 8 7 6 6 6 7 7 7 7 4 3 2 3 5 6 6 16 18 15 26 17 15 15 19

GFSSE_925_spd_012.txt.gz
Wind_Speed
13 19 22 17 17 15 14 12 11 8 6 6 6 6 5 8 9 7 7 5 6 7 6 4 6 8 9 7 8 7 4 3 5 7 8 10 6 4 1 3 5 5 6
19 20 21 17 17 16 14 12 10 8 7 8 8 9 8 9 8 6 7 5 4 6 7 5 4 5 6 6 6 5 5 5 5 7 7 8 5 4 4 3 3 6 4
19 19 19 17 17 16 15 12 10 8 8 10 9 8 7 6 4 5 5 5 4 5 6 6 5 3 3 3 3 4 4 4 5 7 6 3 3 4 3 2 4 3 6
19 19 17 18 17 16 14 12 10 9 9 10 10 7 8 6 6 6 6 3 4 5 6 6 6 7 5 4 4 4 4 4 5 6 5 4 4 7 5 5 6 7 5
18 19 17 18 17 15 13 12 10 10 10 11 12 7 5 4 5 7 6 5 2 4 5 6 6 6 6 5 5 4 5 6 8 6 5 5 6 6 7 8 7 7 10
18 17 17 21 17 14 12 12 11 10 10 11 10 8 5 4 5 6 5 4 1 3 4 5 5 5 5 5 5 5 3 5 5 5 6 7 6 8 7 9 10 10 9
16 16 17 18 16 14 12 11 10 10 10 10 9 8 4 3 0 7 7 5 1 2 3 4 5 5 5 5 5 5 5 5 5 6 6 7 7 9 8 9 10 11 12
15 16 16 16 15 14 13 12 11 10 9 9 9 7 3 1 4 4 8 4 1 1 3 4 5 4 5 5 5 5 6 6 7 7 8 8 10 10 9 9 10 12 14
14 14 14 14 13 14 13 12 11 10 9 9 10 8 5 2 2 6 6 3 1 2 3 4 4 4 3 4 5 6 7 8 6 7 8 8 11 11 10 12 13 14 16
15 14 13 13 13 14 12 12 11 10 10 10 10 8 6 4 3 3 3 3 2 1 2 3 4 5 5 5 6 6 7 7 6 6 6 7 10 9 9 10 11 12 13
14 15 14 14 14 14 12 12 11 10 10 10 9 7 4 3 4 4 4 3 2 1 0 2 4 4 5 6 6 7 7 6 6 7 6 9 9 9 9 10 10 11 11
16 17 15 16 15 15 13 13 12 11 10 9 8 6 4 4 5 6 4 4 2 2 1 3 3 4 6 6 7 9 6 8 7 8 7 10 9 9 8 8 7 5 8
14 16 17 17 16 16 14 14 13 12 12 11 9 8 6 6 5 5 3 3 2 2 2 2 3 4 6 7 7 7 8 8 8 8 7 6 5 6 5 7 9 9 9
13 15 17 19 19 19 16 16 15 14 14 12 11 10 8 7 6 6 4 4 3 2 1 2 3 4 6 7 8 8 8 8 7 5 5 3 8 10 9 9 10 10 11
15 16 18 20 21 22 19 17 16 16 15 13 12 11 11 9 8 7 6 4 3 3 1 3 4 5 6 7 8 7 7 7 5 2 1 4 7 10 11 12 11 12 12
15 17 17 20 20 21 25 20 18 17 16 15 13 13 11 9 9 8 9 7 4 3 2 3 4 5 6 7 8 7 6 4 1 1 2 3 3 6 11 12 12 12 12
15 15 18 19 20 21 24 21 20 18 17 15 13 13 12 11 11 11 10 7 5 3 3 4 4 5 7 7 7 5 5 2 1 3 2 3 3 5 5 8 11 12 13
15 14 14 17 20 21 22 22 21 20 18 16 15 15 15 15 13 14 11 7 5 4 3 4 5 5 7 8 8 6 6 4 3 3 3 3 3 4 7 9 12 14 16
15 15 14 15 19 22 22 22 20 20 19 19 18 19 19 18 17 14 10 9 6 5 4 4 5 7 9 11 9 9 6 5 6 4 2 2 4 5 6 11 16 17 18
15 14 15 14 17 21 22 21 19 18 19 21 21 22 22 21 18 14 11 10 7 6 6 5 5 7 9 12 9 6 1 4 6 4 2 4 3 5 6 10 14 14 15
14 13 14 15 18 23 25 24 21 20 23 23 23 24 24 22 19 16 13 10 8 8 7 6 4 6 9 13 8 3 2 1 5 6 6 5 4 6 9 11 15 15 14
18 16 15 18 21 25 25 23 20 22 17 19 26 25 23 22 20 16 14 11 9 9 7 7 7 5 6 10 7 5 3 2 0 6 6 6 6 9 10 18 16 15 17
18 18 19 21 23 25 23 22 22 18 20 21 25 25 23 21 18 16 14 11 10 8 7 6 7 7 6 6 8 5 2 2 11 3 4 8 8 12 17 16 15 19 15
22 19 19 22 25 26 27 25 30 26 26 19 30 27 24 19 15 15 14 12 10 8 7 6 6 5 4 5 2 4 2 3 3 5 4 10 10 17 19 18 19 21 17
23 21 22 24 26 28 28 26 26 24 20 26 32 29 24 16 15 15 13 11 10 8 7 6 5 4 3 3 3 4 4 6 6 5 9 9 19 19 19 16 21 14 16
20 22 24 27 27 27 29 27 26 29 29 31 28 27 21 16 14 13 12 10 9 8 7 5 4 2 1 1 3 3 5 5 7 8 9 14 18 21 20 21 13 17 17

GFSSE_925_spd_015.txt.gz
Wind_Speed
15 20 21 16 15 14 12 11 9 7 7 7 7 6 7 9 10 9 7 7 8 8 8 7 8 10 11 12 11 8 7 6 7 8 10 11 8 7 6 4 2 5 2
20 21 22 17 17 15 13 12 10 8 6 7 8 8 8 10 9 9 8 7 8 8 9 8 7 7 8 9 9 8 7 7 7 9 8 7 7 7 7 3 1 4 5
19 21 20 19 18 16 13 11 9 8 9 9 10 9 10 9 8 7 7 7 7 8 9 9 8 8 6 6 6 6 7 7 7 8 6 5 4 7 6 4 6 3 6
18 19 19 19 17 16 13 11 10 9 10 10 8 10 9 9 8 7 7 6 7 8 9 9 9 9 8 6 6 7 7 7 8 6 7 5 5 7 6 6 7 5 6
16 17 19 17 16 15 12 11 10 9 10 10 9 8 6 6 6 8 7 6 5 8 8 8 8 8 8 7 6 6 6 7 7 6 5 5 5 5 8 6 6 6 7
17 15 18 16 16 14 13 11 10 10 10 12 9 6 4 4 4 6 4 2 4 6 7 7 6 6 6 6 6 5 3 4 5 5 5 6 5 8 9 8 8 8 8
16 15 16 19 16 12 12 12 11 10 11 11 8 6 5 6 2 8 5 3 2 5 5 5 5 5 5 5 5 4 5 5 6 5 6 7 7 10 9 9 9 10 9
17 15 17 18 15 13 11 11 10 11 11 10 9 6 3 3 3 9 8 5 4 3 4 5 5 5 5 4 4 6 8 9 7 7 7 7 9 11 9 10 11 11 12
15 16 16 17 15 13 11 11 10 11 10 11 11 7 5 2 6 11 8 5 3 2 3 5 4 3 4 5 6 7 8 9 7 7 8 6 9 10 9 10 10 11 11
15 15 16 17 16 15 14 12 11 11 11 12 12 11 7 3 4 6 5 5 2 2 2 2 4 5 5 6 7 7 8 7 7 8 7 7 11 10 9 9 10 10 12
14 15 15 16 17 17 16 14 12 11 11 12 12 10 7 5 4 5 7 3 3 1 1 3 4 5 6 8 9 11 8 6 8 7 7 10 12 10 9 9 8 8 8
14 16 17 17 17 18 17 16 13 11 11 11 10 9 7 7 7 7 4 4 2 1 2 3 4 6 7 5 7 9 7 8 7 8 7 11 10 9 8 7 9 9 9
15 16 17 18 18 18 17 17 16 14 13 12 10 9 7 8 8 7 4 3 2 3 1 3 4 4 6 6 7 7 8 9 8 7 6 9 8 5 8 10 10 11 12
15 16 17 18 17 19 18 19 16 16 14 13 12 11 9 8 9 8 6 5 4 3 2 2 3 5 6 7 8 8 8 8 6 5 4 4 9 9 10 10 11 12 12
15 16 17 18 19 19 18 18 17 17 16 15 13 13 11 10 9 8 7 6 5 3 2 3 4 5 7 8 8 8 7 6 5 2 2 2 5 9 11 11 11 11 12
15 17 18 19 20 20 20 18 18 17 15 16 15 14 13 11 10 9 8 7 5 4 3 3 4 6 7 8 8 7 6 5 3 1 1 0 0 1 4 9 10 11 12
16 18 19 20 20 20 22 20 18 16 16 17 17 14 14 12 10 11 10 8 6 4 3 3 4 5 6 7 7 6 5 4 2 1 1 1 4 6 6 6 8 10 12
18 18 18 19 20 20 22 22 22 19 17 17 16 16 15 13 13 11 10 8 6 5 3 3 4 4 6 7 7 6 6 4 3 2 1 1 1 2 8 11 12 13 14
21 19 18 19 22 23 20 22 21 20 19 19 19 18 16 17 17 15 13 9 7 6 4 4 4 5 6 8 8 7 5 3 4 3 2 2 4 4 5 8 14 13 17
26 22 22 21 21 22 22 23 22 18 21 18 15 16 19 19 17 15 11 11 8 6 5 4 5 5 7 10 8 5 2 2 4 5 4 5 5 5 6 9 13 12 12
33 24 23 23 23 24 24 23 27 23 20 17 17 21 20 21 20 16 13 11 9 8 6 4 4 5 7 12 6 6 3 2 4 6 5 6 5 6 7 9 13 13 13
26 27 25 24 24 25 25 25 25 21 17 17 19 24 24 24 21 17 14 13 10 10 7 6 6 3 5 9 6 6 2 3 3 3 9 7 8 6 8 13 13 13 15
30 27 26 24 23 26 24 24 22 21 22 17 18 23 26 25 21 17 14 13 12 9 8 6 5 5 4 5 6 4 2 2 8 3 3 7 8 10 13 16 15 15 18
30 25 25 24 25 26 28 29 31 30 25 21 22 27 27 25 21 17 14 14 11 9 8 6 4 4 3 3 1 3 1 3 2 4 2 10 13 12 18 18 18 20 18
28 28 23 24 24 26 29 30 29 24 21 23 23 31 28 24 20 16 14 14 12 9 8 6 5 4 3 2 2 2 3 5 8 6 8 8 17 17 18 17 17 19 15
28 22 24 25 26 28 29 28 29 26 27 27 28 30 28 24 18 15 14 13 11 9 8 6 4 3 1 1 2 2 3 3 6 7 7 13 16 19 18 22 17 17 16

GFSSE_925_spd_018.txt.gz
Wind_Speed
20 26 21 18 16 15 13 12 11 10 9 9 9 9 12 12 12 12 12 11 11 10 10 9 10 11 17 15 13 12 11 9 8 8 7 8 10 9 7 6 2 6 2
24 25 21 19 18 16 14 12 10 9 9 10 9 9 11 13 12 12 10 10 10 10 11 10 9 10 12 12 11 10 8 7 8 8 7 5 7 10 8 6 4 3 5
25 25 21 20 19 17 14 12 10 9 12 13 13 13 14 13 12 11 11 11 11 11 11 11 11 10 10 10 9 8 7 8 8 8 9 8 2 7 6 4 6 4 4
27 23 22 21 20 17 15 12 10 11 13 12 12 12 11 10 10 11 11 11 11 11 12 11 11 10 8 7 6 8 8 8 8 9 11 5 6 5 7 4 5 4 4
25 24 21 21 19 17 15 13 12 13 11 12 13 12 11 10 10 10 10 9 10 10 10 10 10 10 9 8 6 6 4 6 6 8 8 5 5 4 9 6 4 4 4
23 26 21 20 17 15 14 14 13 12 12 13 11 10 10 8 9 8 8 7 8 9 8 8 8 8 8 7 6 6 5 5 5 7 4 5 2 6 10 6 6 6 6
23 25 21 20 17 15 13 13 13 13 13 12 10 10 10 7 7 8 5 5 6 7 7 7 8 7 9 8 5 6 7 6 7 7 4 4 5 7 8 7 8 8 8
21 22 23 21 17 15 13 12 12 13 13 11 10 8 8 6 5 12 8 6 6 5 6 7 7 6 6 5 5 7 8 8 6 7 5 3 4 8 8 8 8 9 10
21 24 23 21 17 14 14 13 11 13 13 14 12 9 7 7 11 14 10 7 5 4 5 6 6 5 5 6 7 8 9 8 9 9 5 4 8 9 8 7 8 9 10
19 21 23 21 20 18 17 16 13 13 13 15 14 11 7 7 10 11 8 7 5 4 4 4 5 5 6 8 10 11 7 8 8 6 6 6 8 9 8 8 8 8 8
18 21 23 24 20 17 17 17 15 16 13 15 15 12 9 7 8 9 10 7 5 4 4 4 5 7 7 7 9 10 9 6 5 6 7 8 9 9 8 7 8 9 10
17 18 20 27 26 20 20 18 17 17 17 16 14 13 10 8 10 12 8 6 5 4 4 4 6 7 4 4 6 6 7 8 5 8 5 8 10 7 9 12 12 12 11
20 19 19 19 23 22 22 18 17 15 15 16 13 11 10 14 12 10 6 8 7 6 5 5 5 3 6 7 7 6 7 6 6 6 5 7 10 9 9 11 11 12 11
24 23 20 20 20 25 20 18 21 22 19 20 17 14 14 12 11 12 7 9 10 6 5 4 3 4 5 5 6 8 7 6 5 4 4 4 10 10 10 10 11 11 11
23 24 24 22 21 22 24 19 20 20 21 19 19 17 13 14 13 13 12 10 8 7 7 4 2 1 3 7 6 7 6 5 3 4 3 2 5 8 9 10 10 11 11
13 19 23 25 27 24 25 23 22 20 21 18 20 17 14 15 12 15 13 10 9 7 5 3 1 3 4 5 5 5 4 4 1 3 4 4 1 3 4 6 9 10 11
18 21 23 26 26 27 23 22 21 23 20 21 20 16 17 16 17 14 12 12 9 8 4 3 2 2 3 4 4 5 5 3 1 2 4 5 5 6 7 8 9 10 11
23 24 27 28 28 26 26 25 24 21 18 23 20 17 19 18 17 14 14 13 9 8 5 3 4 3 4 5 5 4 4 3 2 3 4 4 2 4 7 10 12 12 11
24 21 26 32 33 31 30 29 25 25 22 23 20 22 21 18 17 17 18 14 10 8 7 4 5 4 6 8 5 5 5 2 5 4 3 1 5 6 6 7 11 11 12
28 25 27 26 32 31 33 29 27 27 22 23 24 28 27 25 21 21 19 15 12 9 8 7 6 6 8 9 4 4 1 2 4 5 3 1 6 6 5 8 9 14 13
32 29 29 28 30 28 31 30 28 30 25 25 26 30 31 26 24 22 19 16 13 11 9 6 6 6 9 10 5 4 4 2 5 5 7 6 3 3 4 7 13 16 13
24 28 25 26 35 34 27 30 27 30 28 30 26 24 26 27 28 25 22 19 16 14 10 8 7 5 6 11 5 2 3 1 2 3 6 3 4 7 5 11 16 16 14
30 28 22 25 26 34 31 29 27 28 27 24 24 27 26 29 28 24 22 20 18 14 12 9 7 7 5 5 8 4 2 1 5 1 2 2 7 6 10 15 16 16 19
28 35 30 25 28 30 32 36 40 30 26 22 31 30 29 29 27 24 22 21 18 15 12 10 7 7 6 4 3 3 2 1 1 4 2 9 9 13 16 17 22 23 20
27 30 38 33 29 31 35 39 37 27 22 26 28 29 31 29 27 24 23 21 18 15 12 9 8 6 5 4 2 1 0 2 6 5 4 4 19 23 20 20 17 22 25
28 32 28 36 29 30 35 34 35 32 29 31 34 33 31 31 27 24 22 20 18 16 12 10 7 5 4 3 1 0 1 1 2 2 2 5 12 17 18 22 19 20 22

GFSSE_925_spd_021.txt.gz
Wind_Speed
24 25 20 18 18 17 15 15 13 13 13 12 13 15 16 16 15 14 13 12 11 10 10 10 11 16 16 15 13 11 9 6 7 6 7 10 11 9 7 7 6 9 3
28 25 22 20 20 18 16 14 13 12 12 12 12 14 15 15 15 14 12 12 12 12 11 10 11 12 12 11 10 9 6 6 7 10 7 6 8 9 8 8 5 4 4
30 25 22 23 21 20 17 16 13 13 13 12 12 14 16 16 15 13 12 12 12 12 12 11 11 10 9 8 7 6 8 10 11 9 6 5 6 6 6 4 5 4 3
31 26 24 23 22 20 18 16 15 16 15 14 16 15 14 14 14 13 13 13 13 13 12 12 11 9 7 6 6 6 8 10 10 8 8 8 6 5 6 3 4 2 1
29 26 25 25 21 20 18 17 18 18 16 17 15 15 14 14 15 14 13 13 13 12 12 11 10 10 9 8 7 5 6 7 6 7 6 5 3 4 7 5 4 3 1
28 26 26 24 21 19 18 17 18 18 17 17 16 15 14 15 15 14 11 11 12 11 10 9 9 9 9 9 8 8 7 5 7 6 4 3 4 4 6 5 4 4 3
31 26 26 23 20 18 18 17 18 19 18 17 16 15 14 13 13 12 9 10 10 10 9 10 9 10 9 8 7 6 5 4 4 7 5 3 4 4 5 4 5 6 6
32 28 26 23 20 18 18 18 18 20 20 17 16 14 13 13 14 13 11 10 9 9 9 10 9 8 7 6 6 6 6 6 8 6 4 3 2 4 4 4 5 6 7
33 29 28 25 19 18 18 18 19 22 20 17 16 13 11 9 17 15 12 10 8 8 9 9 8 6 6 7 7 6 6 6 5 3 4 4 4 5 4 4 5 6 7
28 26 28 26 21 20 19 18 18 20 21 19 16 13 12 12 17 14 12 9 7 8 8 7 7 6 8 8 10 8 6 7 6 2 3 4 5 6 5 4 5 8 9
27 26 28 26 24 21 19 18 17 18 19 20 18 14 12 14 14 13 10 9 7 8 8 6 6 7 5 4 6 4 3 4 4 3 3 5 7 6 9 10 11 12 11
28 29 28 28 27 23 20 19 18 17 18 20 19 17 14 14 14 13 11 8 8 7 7 7 7 5 3 3 3 2 4 5 4 4 5 7 7 11 10 13 12 11 11
27 28 30 31 28 26 23 21 20 18 17 18 18 16 15 15 17 12 11 11 9 8 8 7 6 2 3 3 3 4 3 3 3 3 5 6 11 8 9 10 12 11 10
30 30 29 32 31 30 26 24 21 20 19 19 17 15 16 17 18 15 11 12 11 9 7 7 6 4 2 1 2 3 3 3 3 3 4 4 11 10 10 10 11 10 10
32 33 31 32 34 34 27 21 22 21 22 22 20 19 19 18 16 17 14 15 13 11 10 7 6 3 1 2 2 3 3 3 2 3 5 4 7 9 9 9 10 10 10
34 36 35 33 32 33 28 25 23 25 24 24 23 25 23 17 18 16 19 20 16 13 10 7 4 1 1 1 3 3 2 4 1 4 5 5 4 5 6 8 9 9 10
18 35 38 37 31 32 30 27 25 28 28 27 28 27 21 17 21 22 22 17 13 11 10 7 4 2 1 1 2 4 2 2 3 5 7 6 5 4 5 7 9 9 10
21 26 39 39 38 35 30 30 27 26 26 31 27 25 24 23 23 24 20 17 14 11 9 6 5 3 1 2 2 2 2 3 6 7 5 4 1 2 4 6 7 8 10
34 26 36 41 40 39 37 31 29 28 28 32 26 27 26 27 27 22 19 19 16 13 9 6 6 3 3 3 3 2 2 6 8 7 4 1 3 3 4 5 8 10 12
36 35 28 39 42 40 36 38 30 28 26 28 29 29 30 29 24 21 21 20 18 15 11 8 6 5 5 4 1 2 3 6 9 6 6 3 2 2 4 6 8 12 15
33 30 30 34 40 42 36 34 34 31 31 32 31 30 32 29 27 25 25 22 18 16 14 10 8 6 6 5 2 4 4 4 5 5 5 6 3 1 3 7 10 15 17
22 28 28 25 39 42 41 39 35 35 34 34 32 31 33 30 29 28 28 24 22 19 15 13 10 7 5 9 3 2 2 1 1 3 4 5 3 2 3 7 11 15 17
25 26 28 20 35 39 40 36 28 32 27 29 33 33 35 31 30 31 29 26 24 20 18 14 10 7 6 6 8 3 2 1 3 1 3 5 2 1 5 9 14 17 18
29 23 31 30 23 38 41 39 40 34 28 28 40 39 35 30 32 31 29 27 24 22 19 15 12 9 8 7 4 5 4 2 2 3 2 4 3 7 15 20 17 15 19
31 31 25 32 29 32 38 43 43 30 29 33 37 37 34 32 32 31 29 27 25 22 20 17 14 11 9 8 6 3 2 2 3 2 3 5 12 21 19 14 23 17 16
7 11 20 27 35 32 40 42 42 39 36 34 34 35 36 35 34 32 30 28 26 23 20 18 14 10 9 7 6 4 3 2 2 2 2 4 9 13 15 19 17 12 16

GFSSE_925_spd_024.txt.gz
Wind_Speed
23 24 21 20 19 19 18 18 17 16 16 17 17 17 15 15 14 12 11 10 9 9 10 11 15 14 15 14 11 9 7 5 4 6 9 10 10 8 8 8 7 7 3
30 25 22 22 20 20 19 18 17 17 15 15 16 17 16 14 13 12 10 10 10 10 11 11 12 13 13 11 9 7 5 6 9 9 7 8 10 7 8 7 6 5 4
30 26 22 22 21 20 19 18 17 17 17 16 16 17 16 15 13 11 11 11 11 11 11 11 10 10 9 8 7 6 9 11 8 6 5 6 7 5 4 4 4 3 4
30 27 24 23 22 20 19 17 17 17 16 16 17 17 18 15 13 12 12 12 11 11 11 9 9 8 7 6 6 9 11 10 8 5 5 5 6 5 4 3 3 2 2
31 28 26 24 22 20 18 17 19 19 18 18 19 18 16 15 13 13 12 12 12 12 11 10 9 9 8 8 7 8 8 6 4 4 5 5 5 3 4 4 3 1 1
30 28 26 24 22 20 18 19 19 18 18 18 18 17 16 16 14 12 12 12 11 10 9 10 9 10 10 9 8 8 6 4 3 3 6 5 3 3 3 2 3 2 2
30 28 26 23 20 19 18 20 20 19 19 18 17 17 17 17 15 13 11 11 10 9 8 9 11 11 10 8 7 6 4 3 4 5 9 6 3 3 4 3 4 8 7
31 29 27 23 20 19 18 20 21 21 19 18 18 17 16 15 14 13 11 10 9 9 9 9 9 8 7 7 6 6 5 6 5 5 5 5 3 4 3 3 5 6 6
28 30 28 24 21 19 18 19 22 22 20 20 19 17 16 16 15 13 11 10 9 9 8 8 8 7 6 8 6 5 5 4 4 5 4 3 4 4 3 3 4 5 9
30 30 29 27 23 21 20 19 21 23 20 20 17 16 14 15 20 15 13 10 9 9 9 7 7 7 8 7 7 7 5 5 4 5 3 3 3 4 3 4 6 9 11
29 31 30 29 26 23 21 20 21 23 22 20 18 15 13 16 21 17 14 11 9 9 8 7 6 6 5 5 3 5 2 1 2 2 3 4 5 8 10 11 11 11 11
25 30 31 31 27 25 23 23 22 23 23 22 20 18 16 18 18 16 13 11 10 9 8 7 6 4 3 3 2 2 2 0 2 4 6 8 10 11 9 9 8 10 9
34 31 32 31 29 29 26 25 23 23 24 24 23 20 18 18 18 17 15 13 12 11 10 9 7 3 2 2 1 1 2 1 3 5 6 9 8 8 7 7 9 9 9
33 34 34 33 32 31 28 28 26 25 25 26 26 23 22 21 19 18 16 14 13 12 11 10 7 5 4 1 1 1 0 2 5 8 7 7 11 11 9 9 9 9 8
31 36 37 36 35 34 32 30 28 27 26 26 25 24 23 22 22 20 17 16 15 14 12 11 9 6 4 2 1 2 1 3 7 8 7 8 10 10 9 8 8 8 8
30 33 37 39 38 37 36 34 32 27 25 26 26 25 25 22 22 24 19 18 17 15 14 11 9 6 4 3 3 4 2 4 6 9 9 8 7 7 8 8 7 7 8
20 36 39 39 41 41 40 37 34 29 25 27 28 27 26 25 22 22 23 21 18 18 15 11 8 6 4 3 3 4 4 4 6 9 9 8 7 5 6 6 7 7 9
19 19 33 41 41 43 41 40 36 32 27 28 29 29 30 28 23 23 24 25 22 18 14 11 9 6 4 3 4 4 5 4 8 10 8 6 4 2 1 2 3 5 8
29 25 23 32 42 45 43 40 37 33 28 31 32 33 32 31 25 26 28 27 22 18 14 11 10 7 4 3 6 5 2 7 9 10 9 5 3 2 0 3 5 7 10
34 29 25 32 36 44 40 39 38 33 29 31 34 36 34 33 30 30 29 26 21 18 15 13 11 8 4 4 6 7 5 7 9 9 8 6 5 3 2 3 6 9 12
30 38 31 29 40 39 37 34 35 36 34 33 35 36 31 32 33 32 29 25 22 20 18 15 13 9 5 6 8 7 5 6 8 8 8 8 8 5 2 1 6 10 14
21 20 30 29 38 43 40 38 29 36 39 39 35 35 33 32 36 34 30 27 24 22 20 18 15 11 5 4 3 4 1 1 5 6 6 9 7 6 3 2 6 10 11
23 21 20 20 31 41 39 38 34 29 27 31 33 36 35 35 37 35 32 30 27 25 24 20 16 12 9 5 4 3 2 3 0 3 6 7 7 6 0 7 11 10 12
29 27 25 23 21 36 39 37 37 33 23 34 40 40 37 38 39 37 35 32 30 27 24 21 17 14 11 9 5 4 3 3 2 1 4 8 6 5 10 15 12 16 11
28 28 26 25 21 28 40 40 42 32 36 36 41 38 39 40 40 38 35 32 30 28 24 22 20 16 12 11 7 5 3 3 3 3 2 4 6 11 17 10 15 13 9
5 4 7 14 22 22 38 41 42 32 36 35 37 37 37 39 37 37 36 33 31 29 27 22 18 15 13 11 9 7 6 3 3 3 1 3 6 10 11 17 14 6 11

GFSSE_925_spd_027.txt.gz
Wind_Speed
16 23 20 19 18 18 18 17 17 17 17 16 16 16 14 13 11 9 7 6 8 8 7 8 10 14 13 11 9 8 6 4 4 7 8 8 10 9 8 5 6 8 3
27 24 21 19 18 18 18 18 18 18 18 17 17 15 13 12 11 9 9 9 9 9 10 12 13 14 13 10 7 6 5 8 10 8 8 9 10 9 8 5 6 5 4
29 25 22 20 18 17 17 17 18 17 17 17 17 16 14 12 11 10 10 10 10 10 10 10 10 10 9 8 7 7 10 10 8 8 7 7 9 7 5 4 4 3 3
30 27 23 21 19 17 15 15 15 16 17 17 17 16 16 13 11 10 10 10 11 10 9 8 8 7 7 6 7 9 9 8 6 6 6 6 8 7 6 4 2 1 1
30 28 25 22 19 17 16 14 14 15 15 17 17 17 15 13 12 11 11 11 10 9 9 8 7 6 6 7 7 8 7 5 4 4 6 7 6 5 6 5 4 2 1
30 28 25 23 19 17 16 16 16 16 16 18 19 17 15 13 12 11 11 10 10 9 8 8 8 8 8 7 7 6 4 3 3 4 5 6 5 3 4 4 5 5 5
30 27 25 22 19 17 16 17 16 16 17 17 16 15 15 14 13 11 10 10 9 8 7 7 8 9 8 7 5 4 3 2 3 6 7 5 3 4 5 4 5 8 6
29 27 24 21 19 17 16 18 16 17 16 17 17 16 17 14 12 11 10 9 8 8 8 8 7 6 6 5 4 3 3 4 5 7 6 5 3 4 4 3 5 6 9
26 26 24 21 19 18 17 18 18 19 17 18 19 19 18 15 13 12 11 9 8 8 8 7 6 5 5 5 3 3 3 3 3 4 4 3 3 4 3 3 4 7 10
25 26 26 23 21 19 18 19 19 19 18 18 19 19 18 18 16 13 12 10 9 9 8 8 6 6 6 5 4 3 3 3 3 3 3 2 3 3 3 4 7 11 11
25 27 27 26 24 22 20 19 21 21 20 19 18 17 16 17 18 15 13 11 10 10 8 7 6 6 5 2 3 2 1 1 1 1 2 4 6 8 11 12 11 11 11
23 29 28 28 27 24 22 21 22 23 22 20 19 17 15 15 21 18 14 12 10 10 9 8 7 6 4 3 1 1 2 1 2 4 6 9 9 10 9 8 9 10 7
33 26 29 31 30 27 26 24 23 24 24 23 21 19 17 17 20 18 16 13 12 11 11 10 8 6 4 3 2 1 1 0 4 6 8 8 8 7 5 5 9 9 8
33 37 33 33 32 30 29 28 27 26 27 26 25 23 21 20 21 20 18 15 13 13 11 11 8 5 5 3 2 1 1 3 6 8 8 9 10 10 9 9 8 8 8
23 29 34 34 35 34 33 30 30 29 29 28 28 27 24 22 22 21 19 16 15 14 13 12 10 7 5 3 2 2 2 5 8 8 7 8 9 10 9 8 7 8 8
30 33 34 36 37 35 36 34 32 31 29 28 28 30 27 25 24 22 20 18 17 15 13 12 10 7 6 4 4 4 4 6 8 8 8 8 7 7 7 7 7 7 7
28 31 32 36 37 38 38 37 34 33 31 30 30 29 29 28 26 24 23 20 18 16 15 13 10 8 6 5 6 6 5 7 8 9 7 7 7 6 6 6 6 7 6
21 25 34 36 37 40 40 38 36 35 34 32 30 29 29 28 25 24 25 22 20 18 17 14 10 8 6 6 7 6 6 7 10 10 9 7 6 4 3 2 3 4 6
27 26 24 33 37 40 39 39 38 38 37 34 29 31 31 29 27 26 26 25 23 21 18 15 12 9 7 5 6 7 5 7 11 12 10 7 5 3 2 1 2 4 6
32 28 24 28 36 40 38 38 37 38 38 36 33 33 32 32 30 28 27 26 26 23 19 17 13 10 8 7 8 8 5 7 10 11 10 8 7 5 3 1 2 5 7
26 27 24 27 33 37 34 30 31 36 39 39 36 34 34 34 34 32 29 29 29 27 23 18 15 12 8 9 9 6 4 5 9 10 11 9 9 7 5 3 4 6 8
21 18 20 25 30 38 37 40 31 37 36 43 41 37 36 36 37 36 34 29 30 27 23 21 19 15 6 12 5 5 1 2 7 8 10 10 11 9 7 4 5 8 8
25 25 24 21 21 35 40 32 27 29 28 34 34 36 37 38 37 39 38 34 33 32 28 25 22 18 12 9 10 5 2 4 2 5 7 10 11 10 6 4 7 10 11
27 27 25 22 21 24 35 33 35 34 25 33 42 42 39 38 38 39 40 39 36 34 30 27 25 22 17 14 9 7 4 4 3 1 5 8 10 11 7 8 10 9 9
19 21 22 20 19 19 28 37 38 32 29 36 40 43 40 40 39 39 43 42 40 37 32 28 27 23 20 17 12 9 6 4 4 3 2 3 11 13 11 9 12 9 6
12 11 13 15 17 19 22 33 37 33 27 28 36 38 42 40 39 40 43 43 41 38 32 30 27 24 20 16 14 12 9 5 5 4 2 3 5 7 8 13 7 7 7

GFSSE_925_spd_030.txt.gz
Wind_Speed
16 22 19 18 17 16 15 15 16 17 17 15 14 14 13 12 9 8 7 8 8 7 5 10 12 13 12 11 9 8 6 5 6 8 9 10 11 10 9 9 9 7 4
23 23 20 19 16 16 15 15 15 15 16 15 13 12 12 11 9 7 7 8 8 8 10 10 14 14 13 10 8 7 8 9 9 9 10 11 12 10 8 7 7 7 6
29 24 21 20 19 17 16 15 16 16 15 15 15 13 11 9 9 8 9 9 9 9 10 13 14 12 10 9 9 10 10 10 9 9 9 11 12 8 7 6 6 5 6
29 25 22 21 20 18 17 16 15 15 15 15 14 14 12 10 9 10 10 11 11 12 11 10 10 9 8 8 10 9 9 8 8 9 8 9 11 8 7 6 4 3 2
27 25 23 20 19 17 17 17 17 15 15 14 14 15 14 12 11 11 12 12 11 11 10 8 7 6 8 8 8 7 6 6 6 7 9 8 8 7 7 6 6 4 2
27 25 22 21 18 16 15 15 15 15 16 15 14 15 13 12 12 12 12 11 11 10 9 9 9 9 9 9 8 6 4 4 4 5 6 7 7 6 6 6 10 10 9
26 24 23 20 18 16 15 14 14 14 15 17 18 15 13 12 11 11 11 11 11 9 9 9 10 10 9 7 5 4 4 3 4 6 6 5 7 7 7 8 9 8 10
27 25 23 20 18 16 15 15 17 16 16 17 16 15 13 13 12 11 10 10 9 10 8 9 8 8 6 5 4 4 4 5 7 7 5 5 7 6 5 5 7 10 11
25 26 24 21 18 16 15 16 15 16 16 16 16 16 15 14 11 10 9 9 9 9 9 8 7 5 5 4 4 5 5 5 5 6 5 5 6 5 4 5 7 11 12
24 24 23 22 20 18 17 17 16 17 16 16 16 16 16 12 10 9 8 7 8 9 7 7 6 5 5 4 5 6 6 5 5 4 4 4 5 4 4 8 12 13 13
23 25 24 23 21 20 18 17 17 17 16 16 17 17 17 15 12 10 8 7 7 7 7 6 5 5 4 3 3 3 3 2 2 2 4 7 8 12 12 13 12 14 12
21 25 25 24 23 21 20 20 20 20 19 18 18 17 16 16 15 14 10 9 7 7 6 5 6 5 3 2 1 1 2 2 3 4 6 10 11 12 11 12 13 12 9
19 20 23 21 25 24 23 22 22 23 23 22 20 18 16 15 16 17 13 11 9 9 9 7 6 5 3 2 1 1 1 2 6 8 10 8 7 6 6 3 7 10 9
20 19 21 21 24 28 26 25 25 25 26 25 24 21 18 15 16 19 15 13 11 11 10 9 7 5 3 2 1 1 1 4 6 8 10 10 11 11 10 9 9 9 8
18 20 22 24 24 26 29 28 27 28 28 27 26 25 23 19 20 20 17 15 13 12 11 10 8 6 5 3 2 1 3 6 8 9 9 7 9 11 9 8 8 7 7
25 25 25 28 27 27 31 31 30 29 29 29 28 28 26 24 22 21 20 18 15 14 13 11 10 8 6 4 4 3 5 8 9 8 8 8 8 8 8 8 8 8 7
27 29 29 32 31 31 32 33 32 31 31 30 30 28 28 27 25 23 22 20 18 17 15 13 12 9 7 6 6 5 7 8 9 9 8 8 8 8 8 8 7 7 6
20 28 31 32 34 34 35 36 35 34 32 32 31 30 31 31 29 26 25 23 20 19 18 16 14 11 9 8 7 8 8 9 10 10 10 8 8 7 6 5 5 6 6
23 25 28 33 35 36 37 38 37 36 35 34 33 33 33 32 31 30 27 25 23 22 21 19 16 13 10 8 9 8 7 8 11 11 10 9 8 6 6 4 3 2 3
22 25 28 28 33 34 36 35 34 35 36 37 35 35 33 32 32 30 27 26 26 25 23 21 18 14 11 10 9 8 6 8 11 12 11 10 9 7 6 4 2 1 2
21 21 25 30 32 34 28 27 28 31 36 39 39 37 34 33 34 32 29 28 29 29 27 25 20 15 12 13 12 6 5 7 10 12 12 11 10 9 8 7 5 5 6
24 23 22 27 31 34 34 33 26 30 30 41 40 39 39 36 36 35 34 33 32 32 31 26 24 19 11 18 7 6 1 2 8 11 12 13 13 11 10 8 6 7 8
23 26 23 20 23 32 36 34 28 23 22 29 33 38 41 38 39 38 38 36 35 35 34 33 29 24 17 19 13 6 2 4 3 7 10 12 13 14 12 9 8 9 10
21 23 22 21 19 24 31 30 29 27 25 30 39 43 43 42 40 41 41 41 39 40 38 36 32 29 24 19 17 15 6 5 3 1 6 10 14 15 13 9 8 9 8
18 16 17 20 20 22 24 33 35 31 30 28 33 36 42 45 43 41 42 42 44 44 42 39 36 33 28 24 18 13 9 7 6 3 2 5 13 15 15 12 10 8 8
28 17 13 15 22 22 24 29 36 34 31 29 31 33 35 41 44 42 44 45 46 46 44 41 38 34 31 24 25 20 16 8 7 5 2 3 5 7 14 14 12 9 9

GFSSE_925_spd_033.txt.gz
Wind_Speed
16 22 19 19 16 17 16 17 16 16 15 15 14 13 11 11 10 9 8 7 6 5 7 10 12 12 11 10 9 8 8 8 9 9 10 12 11 10 11 10 8 6 7
25 24 20 19 19 15 14 16 16 16 16 14 13 12 11 9 8 8 8 8 7 5 10 10 14 14 12 9 8 10 11 10 10 11 11 12 12 10 8 7 8 7 9
29 25 21 19 17 17 15 15 15 16 14 13 12 9 9 9 8 8 9 9 9 10 16 17 16 12 10 9 10 11 11 11 11 11 12 11 10 9 8 8 7 6 6
29 23 21 20 19 18 16 16 15 14 13 11 12 12 10 9 9 9 10 10 11 9 12 12 11 10 8 10 11 10 10 10 10 10 10 11 10 9 7 6 5 4 3
27 24 21 21 20 19 19 18 16 16 14 13 14 12 10 9 10 10 11 11 12 11 9 9 8 9 9 9 9 8 8 8 8 10 10 9 8 7 7 6 5 4 2
25 23 22 21 19 18 19 19 17 16 14 13 13 13 11 10 11 11 12 12 12 11 8 8 8 9 9 9 7 6 6 6 6 7 8 8 8 8 6 7 9 8 11
24 23 20 20 19 18 16 16 17 16 16 15 14 14 12 11 11 11 11 12 11 10 10 10 10 10 8 7 6 5 5 5 6 7 6 7 8 6 6 8 8 12 15
23 22 19 19 18 17 15 14 14 12 17 15 15 14 12 12 11 11 10 10 10 10 10 10 10 8 7 6 5 5 5 6 8 7 5 6 7 5 5 7 9 12 12
21 21 20 19 17 16 15 16 18 16 17 17 16 14 13 12 11 10 9 9 10 9 9 9 8 6 6 6 6 5 6 6 6 6 6 5 6 4 4 6 12 13 13
21 21 21 19 17 16 15 16 17 18 16 17 16 15 15 13 10 9 9 9 10 9 8 7 5 6 6 6 7 7 6 6 5 5 4 4 5 3 8 12 12 13 12
20 21 22 21 18 17 17 16 16 16 18 17 15 16 16 13 11 10 9 9 10 7 7 6 5 5 5 5 5 5 4 3 3 3 5 8 11 14 14 13 12 11 12
18 19 21 21 20 19 18 17 17 18 18 18 19 19 19 17 16 13 10 9 10 8 7 6 6 4 3 2 3 3 2 3 3 4 9 10 12 13 13 13 12 12 10
16 17 20 18 21 21 19 20 19 20 20 20 21 21 19 18 17 15 13 12 12 11 10 8 7 5 3 2 2 2 2 4 6 9 9 9 8 7 8 7 8 9 10
17 17 18 18 18 23 21 22 22 22 22 23 22 22 21 19 18 19 18 15 14 14 12 10 9 7 5 3 1 1 2 5 7 10 8 10 11 10 9 9 9 9 9
15 18 22 21 22 22 26 24 24 25 25 25 24 23 21 20 18 20 20 17 15 14 13 12 11 9 6 4 3 2 4 7 8 10 8 8 8 9 9 8 8 7 7
20 20 20 23 25 26 26 27 27 27 26 26 26 26 24 22 20 21 22 19 17 15 14 13 12 10 8 6 5 4 5 9 10 10 10 8 8 8 8 7 7 7 7
19 22 25 25 25 28 29 28 30 30 28 28 29 28 28 26 24 23 23 21 19 17 16 16 14 12 10 7 6 6 8 9 10 10 10 11 9 9 9 8 7 6 6
20 19 23 26 27 30 31 31 29 31 31 30 30 29 30 29 29 27 26 24 21 20 19 18 17 15 11 9 9 9 10 11 12 11 11 11 11 10 10 7 7 6 5
24 25 25 24 27 29 31 31 31 31 32 33 32 31 31 31 32 31 29 25 24 23 22 21 19 16 13 11 10 10 11 12 13 13 13 12 12 11 10 8 6 5 4
21 22 25 28 27 31 29 25 28 29 33 34 35 33 33 33 33 33 32 29 28 27 25 24 21 18 14 12 11 10 10 12 14 15 15 13 12 12 11 9 7 6 4
23 24 24 26 32 28 25 26 27 29 34 33 39 37 35 34 33 33 35 33 32 33 30 27 23 18 14 15 12 6 5 9 14 16 17 15 14 13 13 11 9 7 6
19 21 23 26 27 33 29 29 26 28 27 34 33 38 38 37 36 35 38 38 35 34 32 30 28 22 15 21 8 5 3 4 10 15 17 17 16 15 15 13 11 10 8
12 16 19 25 26 29 31 29 25 23 24 22 28 34 40 41 41 37 40 41 39 38 37 35 34 30 24 26 19 7 3 4 5 10 15 17 18 18 17 16 13 10 8
18 11 11 18 24 24 28 28 27 26 24 25 28 34 35 41 42 41 41 43 43 43 42 38 41 40 33 26 25 21 8 5 3 3 8 15 17 18 18 17 14 11 8
21 19 12 9 15 21 23 29 30 29 29 28 29 29 31 35 40 44 44 45 47 46 46 45 45 43 39 31 29 16 16 10 8 3 3 7 14 17 19 17 14 11 9
21 22 18 10 6 11 16 22 23 26 26 24 28 28 29 35 38 42 45 46 48 48 49 50 45 44 43 32 32 25 22 10 8 6 2 4 7 11 18 19 16 14 12

GFSSE_925_spd_036.txt.gz
Wind_Speed
15 19 18 16 13 16 16 16 14 15 12 14 12 11 10 9 8 7 6 5 4 5 8 10 12 11 10 10 9 9 9 9 9 10 11 11 11 11 10 8 9 6 8
20 20 20 17 16 16 16 17 16 15 14 13 11 11 8 9 8 7 5 5 4 5 10 13 14 12 10 10 10 10 9 9 10 11 12 12 11 9 8 8 9 7 8
21 20 20 18 17 16 16 16 17 16 14 12 11 8 8 8 7 7 7 8 8 13 11 15 14 11 10 10 11 10 10 10 10 12 14 9 9 9 8 8 6 5 5
20 19 19 20 17 16 15 15 16 15 13 10 9 9 9 8 8 9 9 10 10 14 15 13 11 9 10 11 10 9 9 9 9 11 8 8 8 9 8 7 5 3 3
18 18 18 19 18 18 17 14 14 14 12 11 11 10 10 9 9 10 10 11 10 10 9 10 9 9 10 9 8 8 8 8 10 8 7 6 6 6 6 10 4 5 1
17 16 18 19 19 17 17 14 15 16 13 10 12 11 10 9 9 9 9 11 9 7 6 7 8 8 8 8 6 6 6 6 8 6 6 7 7 7 8 9 9 9 10
16 15 17 18 17 16 18 18 15 14 14 13 12 12 11 11 10 10 10 10 9 8 8 9 9 8 7 6 4 4 4 4 5 4 4 5 5 6 6 8 10 13 13
15 14 14 16 15 15 15 17 18 16 14 14 12 13 12 11 11 10 10 10 10 9 9 10 8 6 5 4 3 4 4 6 5 4 3 3 5 4 5 6 10 11 13
15 15 14 14 14 14 13 14 14 15 17 15 12 12 12 14 12 11 11 10 10 9 10 9 7 5 5 4 4 4 5 6 3 3 3 2 3 2 4 10 13 12 12
15 15 15 14 13 13 12 14 15 13 15 17 16 13 12 12 12 11 10 11 11 10 9 9 6 5 5 5 6 5 5 5 3 2 2 1 2 3 9 11 13 11 10
14 15 14 14 14 13 12 13 16 17 17 17 16 14 13 11 11 11 11 11 12 11 9 8 6 6 5 5 5 4 4 1 1 1 2 4 11 13 13 12 11 10 11
13 15 14 14 14 13 12 12 13 13 14 15 16 16 15 13 12 11 11 11 12 10 10 8 7 7 5 4 3 2 2 2 1 1 3 9 11 11 11 11 10 9 10
12 14 14 15 15 14 13 13 12 13 14 15 16 17 16 15 13 12 10 10 10 10 8 9 8 6 5 4 4 3 2 2 2 4 7 10 12 10 9 9 8 9 9
13 14 15 15 16 16 14 14 13 14 14 14 17 18 17 16 15 15 14 13 12 12 11 10 8 7 6 5 5 4 4 4 5 6 7 10 11 9 7 7 8 8 9
14 15 15 16 17 16 18 15 15 15 16 16 16 19 18 17 16 16 15 15 14 12 12 11 9 8 7 6 5 5 5 5 6 7 7 11 9 8 8 8 7 7 7
16 16 17 18 18 17 17 20 17 16 16 17 18 19 21 18 17 17 16 16 15 14 13 12 11 9 8 6 5 5 6 6 7 8 8 7 9 8 9 8 7 6 6
15 16 19 19 20 21 20 21 23 19 17 19 19 20 21 20 18 17 17 17 16 15 14 13 12 10 9 7 6 6 7 7 8 8 9 7 7 9 9 9 8 7 5
15 15 17 19 21 23 23 23 22 28 20 20 20 20 22 23 22 20 20 18 17 16 16 14 13 12 10 9 7 7 8 9 9 9 9 9 9 8 10 9 8 7 6
19 20 20 20 22 24 24 25 25 27 30 22 20 22 23 25 25 23 22 21 20 19 18 16 15 13 12 10 9 8 9 10 11 11 11 11 10 10 9 12 11 8 7
16 17 18 20 22 23 23 24 27 26 30 29 24 24 24 25 26 26 24 22 22 21 19 18 17 15 13 11 9 8 8 10 11 11 12 12 11 12 11 9 9 7 9
14 15 17 17 19 22 22 22 25 27 30 29 32 27 25 26 26 27 27 26 26 25 23 21 19 17 13 13 9 7 7 9 12 13 14 14 13 13 12 11 9 8 8
12 14 15 18 20 21 24 26 27 25 24 25 26 28 26 27 27 30 30 29 28 26 25 24 22 18 14 19 11 9 4 8 13 16 16 17 16 14 13 13 11 10 8
7 7 12 17 19 21 22 24 24 24 20 19 24 30 35 32 29 31 31 31 30 29 30 30 29 25 20 21 20 8 4 6 10 12 17 17 17 16 14 14 13 11 9
10 10 8 10 14 18 19 22 25 26 26 26 26 25 27 28 30 31 30 30 30 32 30 34 34 35 24 20 18 20 10 4 4 4 12 17 17 18 17 15 14 12 10
9 9 10 9 9 12 16 19 22 25 25 25 25 25 25 28 33 32 31 30 31 35 35 32 32 34 33 26 24 13 14 10 7 5 4 10 17 19 18 17 15 14 12
10 10 10 10 9 7 9 15 19 22 22 22 21 22 24 22 25 29 31 31 34 34 35 39 38 35 32 27 31 28 23 11 10 7 4 7 10 14 17 16 15 13 11

GFSSE_925_spd_039.txt.gz
Wind_Speed
15 19 19 18 18 15 14 13 12 11 11 11 11 11 11 7 6 5 5 5 5 6 7 11 12 11 11 11 11 10 9 9 9 10 10 10 11 11 10 10 10 8 10
20 20 19 16 16 15 14 13 12 12 12 11 11 11 6 5 6 4 4 5 3 7 9 13 12 11 11 11 11 11 10 10 11 12 13 14 11 10 10 9 11 10 10
19 19 18 17 14 14 14 13 13 11 12 11 7 5 3 7 5 4 6 6 8 12 13 14 12 11 11 11 11 10 10 11 13 15 11 9 10 11 9 9 7 7 8
17 17 17 17 16 13 13 13 13 12 12 9 7 7 6 7 7 7 9 9 16 17 16 12 10 10 11 11 10 10 10 10 12 10 8 9 10 10 10 9 7 6 7
16 16 17 17 13 12 11 12 12 12 9 8 5 7 8 8 9 9 11 11 11 11 11 10 9 10 10 9 8 8 8 11 12 10 8 7 10 9 10 12 6 6 5
15 14 18 16 16 14 12 10 11 11 9 7 7 8 9 10 10 11 10 10 9 8 7 7 8 9 9 7 7 7 7 8 7 7 7 9 8 9 10 10 15 14 15
14 14 14 17 16 15 13 12 11 12 10 9 7 9 9 10 10 10 10 9 8 7 7 8 9 8 7 5 5 5 5 6 5 5 6 7 8 8 9 10 12 11 13
14 13 15 16 15 14 14 13 13 11 10 9 7 9 10 10 10 9 10 9 9 8 9 9 7 6 5 4 4 5 6 8 4 5 5 5 7 6 6 8 11 11 11
13 13 13 14 14 13 14 15 14 14 11 11 9 7 8 9 9 9 9 9 8 9 8 7 5 5 4 4 4 5 6 7 5 4 3 4 3 4 6 11 11 11 8
13 13 13 14 13 12 11 13 13 15 14 12 10 8 7 8 8 8 9 11 8 7 8 7 5 4 4 5 4 5 5 6 3 2 2 2 3 3 10 12 11 11 10
11 12 13 14 13 12 11 11 12 10 13 13 13 11 10 8 8 8 8 10 11 10 8 7 4 4 4 4 4 5 5 1 1 1 3 4 10 14 13 11 8 9 9
11 13 12 12 12 12 11 11 12 12 12 14 13 13 11 11 10 9 9 11 11 10 9 7 5 5 5 1 1 3 2 1 0 1 5 9 11 10 9 8 9 9 9
12 11 12 13 13 13 11 11 12 12 13 15 15 16 14 13 12 12 9 10 10 10 7 8 8 6 5 4 3 3 2 2 2 2 6 9 11 10 9 8 8 8 8
13 13 14 13 13 13 12 13 12 13 14 14 16 16 16 15 14 13 12 12 13 12 11 9 8 7 6 5 5 4 3 3 3 5 8 9 11 9 7 7 7 7 8
14 14 14 14 14 14 15 13 14 14 15 15 15 18 18 16 15 16 14 15 13 12 13 12 10 9 8 7 6 5 4 5 5 6 7 11 10 8 8 8 7 7 7
13 13 13 14 16 16 16 16 14 15 14 16 17 18 21 18 17 17 17 18 18 14 13 13 12 11 10 8 7 6 6 6 7 8 7 10 10 8 8 8 8 7 6
15 14 15 16 17 18 18 18 19 15 15 16 17 18 20 21 19 18 18 18 21 20 15 14 14 13 11 10 9 8 8 8 8 9 8 8 9 10 9 9 8 8 7
12 13 15 17 17 19 20 18 19 21 18 18 18 18 21 23 23 22 21 19 23 21 17 16 15 14 13 12 11 10 9 9 9 10 10 10 10 9 12 11 10 8 7
19 18 17 17 19 20 20 20 21 19 22 19 19 19 20 22 24 24 24 21 22 23 21 18 18 17 15 14 12 11 11 11 12 12 12 12 12 12 11 14 14 12 10
16 18 18 19 20 20 20 20 23 25 24 24 21 22 22 23 26 26 24 23 23 24 23 21 20 19 18 16 13 11 11 11 12 14 14 14 14 15 13 12 16 13 13
13 15 17 18 20 20 21 22 19 25 29 27 29 25 22 23 24 27 27 25 25 25 26 24 22 21 18 16 12 9 9 11 13 15 16 16 17 17 16 15 12 12 14
9 12 14 16 18 20 21 22 23 22 24 27 26 26 31 26 28 28 30 28 29 28 27 27 27 22 21 23 13 12 4 9 16 19 18 18 18 19 19 18 16 15 12
5 5 8 13 16 18 20 21 22 21 22 21 26 28 30 30 28 29 29 29 28 29 29 29 29 28 23 23 21 8 4 5 9 16 20 19 20 20 20 19 18 16 15
6 6 6 6 9 13 17 19 21 20 21 23 22 22 23 24 30 30 31 32 32 30 30 32 33 32 25 22 21 25 10 4 3 3 13 20 20 21 20 20 19 18 17
7 8 8 8 8 7 10 15 19 21 22 22 23 24 24 22 24 30 30 30 34 33 32 30 31 35 34 25 27 17 18 14 11 3 3 9 20 22 21 21 20 18 17
7 8 9 10 10 9 8 9 15 20 21 21 21 21 21 22 22 25 28 31 31 33 32 33 33 33 35 30 29 25 25 14 12 8 3 6 11 17 22 20 19 18 16

GFSSE_925_spd_042.txt.gz
Wind_Speed
16 22 23 20 16 14 13 12 11 11 11 12 11 12 11 5 7 8 7 6 8 10 14 14 13 13 14 14 13 11 11 12 13 13 12 13 13 12 12 19 10 13 12
20 23 23 20 16 14 13 12 11 11 12 10 10 9 7 3 6 6 6 5 9 10 15 15 14 14 14 13 13 12 12 13 15 17 17 15 14 13 11 11 11 11 10
22 20 19 17 16 13 13 12 12 12 11 12 7 7 4 6 6 7 8 8 12 13 17 14 14 13 13 13 13 12 14 17 14 10 9 14 14 12 12 10 10 10 10
23 20 19 17 16 15 15 13 12 13 11 9 6 4 5 7 8 10 11 17 16 17 15 13 12 13 13 13 12 13 14 15 12 12 13 12 12 12 13 8 10 9 8
21 21 20 18 16 14 14 14 13 12 11 7 4 6 8 9 10 12 13 15 15 13 13 11 12 12 12 11 11 12 14 13 13 12 6 8 9 12 13 12 11 13 8
20 23 22 17 15 14 14 14 13 12 9 5 5 7 10 10 11 11 11 11 10 10 9 9 11 11 11 10 10 11 12 10 13 9 9 9 7 11 11 16 17 18 20
24 21 22 18 15 15 13 12 12 11 9 6 6 8 10 11 10 9 9 9 8 8 8 10 10 9 9 8 8 9 10 9 11 8 7 5 10 10 11 12 13 12 14
20 19 19 18 16 15 14 13 12 11 9 8 4 9 10 11 11 10 10 9 9 9 10 10 9 8 7 6 7 8 10 7 9 6 3 4 8 8 9 10 12 12 12
16 19 18 18 15 15 14 14 13 11 10 9 7 6 8 10 10 10 11 10 10 10 10 8 7 6 6 6 6 8 9 10 8 7 7 5 6 7 10 11 12 12 11
14 18 17 16 16 15 18 16 13 11 10 10 9 7 7 8 9 9 10 11 9 10 9 6 5 5 5 5 6 7 9 7 5 6 0 2 6 9 12 12 11 10 10
14 16 15 16 14 11 10 15 15 14 13 12 11 8 5 8 9 7 9 8 9 8 8 6 4 5 5 5 5 7 7 6 3 2 0 4 10 14 12 9 7 8 9
14 14 15 19 16 13 15 10 12 11 14 16 13 11 8 11 7 9 9 11 11 9 8 6 5 5 5 3 2 5 5 3 2 2 4 12 12 10 8 7 8 9 9
10 12 12 13 14 15 13 11 13 14 12 16 15 15 15 12 14 15 13 11 13 12 10 9 7 7 7 5 4 2 4 5 2 5 7 9 10 10 9 9 8 9 9
10 9 10 12 13 14 15 12 13 18 16 19 19 19 15 17 19 15 13 11 14 12 11 9 7 7 7 11 7 6 4 5 5 9 9 12 11 10 8 8 8 9 9
17 13 15 12 13 16 16 15 15 17 17 17 18 20 21 19 19 16 16 15 12 17 13 16 10 11 12 10 9 9 8 8 8 10 11 14 12 9 8 8 9 9 8
14 19 15 17 17 15 18 17 16 15 17 18 18 20 21 20 21 23 20 19 18 15 14 16 14 14 12 12 12 10 10 10 10 9 11 14 15 12 10 10 10 10 9
19 20 19 20 19 20 18 24 20 17 17 20 20 20 22 23 20 19 21 27 25 22 15 18 17 17 16 16 14 13 13 13 14 11 12 11 16 14 11 11 11 10 10
9 10 22 23 22 20 19 19 20 22 14 16 19 21 23 25 25 23 21 21 25 24 24 17 20 19 19 19 18 16 16 15 15 17 12 13 13 16 15 14 13 12 11
11 11 11 10 21 22 21 20 19 17 23 19 17 21 23 25 27 28 25 23 23 24 26 26 22 23 21 20 19 18 17 17 17 17 19 13 13 14 15 18 17 15 13
4 9 15 16 21 18 19 22 26 25 23 24 26 20 24 26 28 28 29 26 25 27 28 29 26 24 23 23 20 17 17 16 17 19 20 20 18 17 17 17 20 19 18
9 11 11 12 13 12 20 18 23 28 28 28 30 31 24 24 28 30 32 32 28 29 32 32 30 25 25 22 19 13 13 18 18 20 22 21 24 23 19 20 18 21 20
6 7 9 12 15 16 18 20 20 21 27 32 30 29 31 30 24 31 35 36 36 33 30 34 33 29 28 27 19 12 3 9 22 25 22 24 26 26 26 22 20 20 19
4 5 7 10 13 14 13 15 19 22 19 22 26 28 32 31 33 23 30 35 37 35 36 33 36 35 27 31 30 11 3 5 5 19 30 27 27 28 28 28 25 22 20
3 3 4 5 7 9 15 18 16 18 18 19 24 25 25 25 29 29 32 30 32 34 33 35 35 39 29 30 32 33 15 8 4 2 14 30 28 28 29 30 29 26 26
4 4 5 6 7 6 9 9 15 18 20 22 22 22 23 22 24 27 23 35 32 33 34 30 35 35 41 31 32 28 34 19 13 3 3 10 26 30 29 30 30 29 28
6 6 8 8 9 9 8 8 9 13 17 20 20 21 24 25 26 25 27 23 32 29 32 35 34 34 36 34 36 31 28 18 15 9 2 4 11 20 30 27 28 29 29

GFSSE_925_spd_045.txt.gz
Wind_Speed
24 25 23 20 18 16 15 14 14 14 14 13 12 12 10 7 10 9 9 10 12 17 16 16 15 15 14 13 13 13 14 15 16 17 13 14 14 14 17 11 13 13 10
27 25 24 20 18 17 16 15 14 14 13 12 13 10 7 5 7 8 9 12 13 17 16 15 15 14 14 13 12 14 16 18 18 18 17 15 15 12 11 11 11 10 10
28 28 23 20 19 17 17 15 14 15 14 13 9 9 7 8 8 9 10 15 15 17 16 15 14 14 14 13 14 16 17 15 13 13 16 16 15 12 10 11 11 11 10
28 26 24 21 18 16 16 15 14 15 15 9 7 5 7 9 11 13 16 16 18 15 14 14 15 14 14 15 16 18 15 13 14 10 11 12 10 12 8 9 8 6 9
26 23 21 20 18 18 16 15 16 14 12 10 6 7 10 12 13 15 17 18 16 15 13 12 14 14 13 14 16 17 15 15 13 12 12 10 10 12 13 15 17 13 12
27 23 21 20 18 19 17 16 16 14 11 6 5 9 11 13 13 14 14 14 13 12 10 11 13 12 12 13 14 15 13 13 10 11 9 7 11 11 14 15 17 18 17
28 25 22 17 18 16 18 18 16 12 10 6 7 10 12 14 12 12 12 11 10 10 9 11 11 11 10 11 12 12 10 9 10 9 7 6 11 11 11 12 12 8 11
30 26 21 18 18 17 14 16 15 12 9 7 6 10 12 11 11 12 11 10 9 9 10 11 10 10 9 9 10 11 8 7 10 5 4 6 9 8 9 10 11 11 10
25 22 22 21 18 16 15 15 14 14 10 8 5 7 10 11 11 12 12 11 11 11 10 9 9 8 8 9 10 11 9 10 7 5 5 5 7 9 11 11 11 12 11
22 19 23 21 19 18 17 17 15 15 12 10 8 5 7 10 12 12 13 12 12 12 10 8 7 7 8 9 10 11 9 6 6 4 2 1 7 12 12 9 10 10 11
23 18 20 22 21 20 19 18 16 14 13 13 12 8 7 9 11 12 13 12 12 11 10 8 7 7 7 7 8 11 8 6 4 3 1 5 13 12 8 7 8 9 10
25 20 17 17 18 16 19 20 19 17 16 16 15 13 9 10 11 11 12 11 12 11 10 9 8 8 8 7 7 9 7 6 6 5 4 14 14 11 7 6 6 9 10
19 21 20 19 18 18 18 15 17 18 19 19 17 15 11 12 12 13 13 14 14 13 13 11 10 10 9 8 7 8 7 6 7 8 10 15 13 10 9 8 8 9 10
11 14 14 25 21 19 18 16 13 16 16 20 20 17 15 17 19 18 15 14 15 15 14 12 12 11 11 9 10 9 8 11 8 12 12 12 12 11 10 9 9 10 10
15 15 16 16 20 20 17 15 12 16 17 16 18 19 18 17 19 23 18 14 14 15 15 14 11 10 12 12 13 11 11 11 10 14 15 14 14 13 11 9 10 11 10
17 15 21 18 17 16 19 17 16 20 20 17 18 20 22 19 19 24 19 18 17 15 14 17 16 14 16 15 15 14 13 12 13 15 16 16 15 15 13 12 12 12 11
21 18 19 22 25 21 16 19 19 16 21 21 20 20 23 23 22 25 23 21 20 20 15 20 21 19 17 17 17 16 15 15 16 15 17 17 17 17 16 14 13 13 13
22 23 23 19 19 27 25 22 24 22 19 21 23 22 23 25 26 23 26 27 26 26 24 21 18 22 21 21 20 18 17 17 18 17 17 18 17 18 18 16 17 16 15
10 13 22 22 20 20 23 25 22 25 26 21 21 25 24 26 27 30 27 25 26 27 30 28 26 23 24 24 22 20 20 20 20 21 20 20 19 19 19 20 20 20 18
5 4 6 8 24 22 20 23 24 23 23 30 27 22 24 29 29 30 33 32 29 28 29 32 32 29 28 27 23 22 21 22 22 23 24 23 22 22 20 21 23 24 22
4 1 2 3 2 4 20 26 28 28 29 26 25 30 29 23 27 31 34 34 34 33 34 34 33 34 31 29 20 19 19 22 25 27 26 27 27 26 24 24 23 26 25
7 4 4 6 8 8 8 6 9 21 28 33 30 31 29 29 30 28 33 38 37 38 35 35 36 33 33 30 16 5 2 10 26 29 29 29 31 29 29 29 27 26 27
8 7 7 7 10 13 13 13 13 9 11 14 22 27 28 28 27 29 32 33 37 38 39 39 38 37 29 33 33 14 2 6 3 19 37 33 33 33 34 32 30 29 27
6 4 4 6 7 7 9 11 13 15 15 16 15 22 26 27 27 25 25 27 35 37 43 40 37 40 36 30 31 38 25 6 4 3 12 32 32 34 36 35 34 32 30
5 3 4 5 6 8 7 8 10 12 15 16 16 15 16 23 26 24 24 26 25 31 36 38 38 32 41 29 30 29 33 20 11 3 4 5 27 34 34 36 37 35 32
5 4 5 5 7 8 8 7 8 10 12 13 15 16 18 16 16 26 28 29 28 22 25 29 30 32 35 40 35 33 26 14 19 6 3 4 7 17 32 34 37 38 35

GFSSE_925_spd_048.txt.gz
Wind_Speed
24 25 23 21 19 17 17 16 16 15 15 15 14 12 10 8 9 8 11 14 17 15 14 14 13 13 12 12 13 14 14 15 16 15 14 14 14 13 12 12 12 10 9
30 27 25 22 20 18 17 17 16 17 15 14 14 12 8 7 7 8 13 13 15 15 14 14 13 12 12 12 13 14 15 18 17 17 16 15 12 10 10 10 10 9 9
30 28 25 23 20 19 18 18 18 17 16 15 12 8 7 7 8 10 14 14 16 14 14 13 13 12 12 13 14 16 15 13 14 16 15 14 11 9 9 10 10 9 8
30 28 25 23 21 21 19 19 18 17 16 12 7 5 7 9 11 12 14 17 15 13 12 13 13 13 14 15 17 15 14 11 8 11 11 10 11 7 7 6 7 8 8
30 27 24 23 21 20 19 19 18 18 14 9 5 5 9 14 16 15 16 16 14 12 11 13 13 13 15 16 15 14 11 9 11 11 10 9 9 11 12 14 14 10 14
30 26 24 21 19 20 19 19 18 16 11 6 5 9 12 15 16 15 17 15 13 11 10 12 12 13 14 16 14 12 10 9 13 11 9 9 10 11 13 13 15 13 13
26 24 21 20 20 20 19 19 17 14 11 5 6 11 13 15 15 14 15 12 10 9 9 11 11 11 12 14 13 11 8 9 10 8 5 8 10 9 10 11 9 5 7
28 26 23 18 20 19 19 19 17 13 10 9 7 11 12 12 14 13 13 12 10 9 10 11 10 10 11 12 12 10 7 10 9 6 5 8 8 7 7 7 7 6 8
28 26 23 21 20 18 16 18 16 13 11 10 7 9 12 11 11 12 12 11 11 11 11 10 9 9 10 11 12 10 9 9 6 5 5 5 9 9 9 7 8 8 8
27 23 24 24 22 20 18 18 17 15 13 12 8 7 8 9 11 12 11 11 11 11 10 10 9 9 9 11 12 11 10 7 6 6 4 3 10 12 9 6 7 7 8
24 22 25 25 23 21 21 20 18 17 15 14 12 7 8 10 11 11 12 11 10 10 9 7 7 7 8 9 11 11 8 7 7 5 4 6 13 13 7 7 7 7 8
25 25 25 26 25 23 23 21 19 17 17 17 15 12 7 10 12 12 12 11 11 10 8 7 6 7 7 8 9 11 8 7 7 6 4 11 14 11 7 7 6 7 8
25 24 24 23 24 24 25 22 21 19 18 18 17 14 10 9 13 13 13 13 12 12 11 10 9 9 8 7 8 9 8 8 8 7 6 15 14 10 8 7 7 8 8
23 23 23 23 23 22 20 21 22 22 21 21 20 17 15 12 15 14 15 14 13 14 14 14 13 10 11 10 9 9 9 9 9 10 10 14 13 10 9 9 8 10 9
19 18 21 24 24 25 22 19 18 18 19 19 22 20 18 17 17 17 17 16 16 17 18 17 15 14 15 14 12 12 12 12 12 13 15 15 14 12 11 10 9 10 9
18 18 17 21 25 25 26 22 19 16 16 16 18 21 20 20 20 21 22 22 20 18 17 18 17 16 14 15 15 15 16 15 14 14 18 18 16 15 14 12 11 12 11
19 20 22 20 23 25 23 22 19 18 19 21 20 19 19 21 23 23 23 27 25 20 19 19 18 19 20 19 20 18 18 17 18 17 19 20 19 18 17 15 14 14 14
24 22 18 22 26 23 22 22 21 21 18 23 25 23 22 23 24 26 26 29 28 25 24 23 22 23 24 24 24 22 21 19 20 21 20 22 23 22 20 19 18 17 17
23 24 23 21 20 25 27 24 24 24 23 21 20 27 27 26 25 27 30 29 30 28 27 28 26 24 25 27 27 24 24 23 22 23 24 24 26 25 23 22 22 21 20
13 12 16 21 22 20 21 25 28 25 26 29 27 24 28 29 30 31 32 31 31 30 30 32 33 32 29 28 28 26 25 25 24 26 27 27 28 28 26 25 24 25 25
13 13 12 9 9 16 21 22 23 28 27 26 27 32 30 27 27 31 33 34 32 32 34 34 34 35 35 32 22 24 26 27 27 29 29 30 32 31 30 28 27 27 28
8 7 7 6 4 4 7 13 18 18 27 31 31 29 27 28 28 28 26 31 35 36 38 37 34 34 37 34 18 3 3 11 29 34 33 33 34 33 35 33 31 29 29
8 5 3 2 3 2 2 6 9 9 11 12 16 22 24 24 26 27 27 27 30 32 38 42 40 37 29 27 31 13 1 6 2 13 35 38 38 36 36 36 34 33 30
7 5 5 4 4 5 2 2 2 5 9 11 12 13 15 18 20 24 26 27 27 27 33 37 39 40 34 25 25 35 25 4 4 4 9 21 36 33 35 35 35 36 35
7 5 4 4 6 6 6 5 5 5 5 7 9 11 13 14 14 17 21 26 25 24 27 28 33 35 36 30 30 20 34 22 10 5 4 5 11 28 36 34 36 38 38
7 6 5 6 6 6 5 6 7 7 8 8 8 7 8 9 9 9 11 20 25 27 25 23 23 26 31 36 32 31 27 13 20 14 4 6 8 12 25 35 36 38 39

GFSSE_925_spd_051.txt.gz
Wind_Speed
19 24 23 21 19 18 17 16 15 14 13 13 12 11 9 8 8 11 14 15 14 13 12 11 10 11 12 13 14 14 13 14 14 14 13 14 11 11 11 10 9 8 6
32 27 24 22 19 18 16 16 15 15 14 14 12 9 7 7 9 13 13 13 14 12 11 10 10 10 11 13 14 14 15 15 15 15 14 12 10 9 10 9 9 8 14
32 27 24 22 19 18 17 17 16 15 15 14 10 8 8 7 10 13 13 13 12 11 10 10 9 9 11 12 13 13 12 14 14 13 13 12 9 8 8 9 8 7 6
30 28 26 23 20 19 18 17 17 16 15 12 9 6 8 10 10 13 14 12 11 10 11 11 10 11 11 13 13 10 9 8 10 10 11 10 7 6 5 5 7 10 5
31 29 26 23 21 20 19 19 18 17 13 9 6 6 11 13 13 14 16 12 10 8 10 11 11 12 13 14 12 10 8 8 7 8 8 8 9 9 10 11 8 11 15
31 27 25 23 21 20 20 19 19 15 12 6 3 9 15 13 16 16 15 11 10 7 8 10 11 12 13 12 10 7 6 8 9 8 8 8 9 10 12 12 10 7 11
29 26 24 22 20 19 20 19 18 14 10 5 4 10 14 13 13 15 14 11 8 6 8 10 10 11 12 11 8 6 5 8 7 6 4 7 8 8 7 6 5 3 6
29 26 23 20 20 20 20 19 17 13 9 5 4 9 11 12 11 11 12 9 7 6 7 8 8 9 9 9 7 4 4 7 5 2 3 6 6 5 5 4 4 2 4
25 24 20 19 21 19 20 18 15 12 9 6 5 8 12 10 12 10 10 8 7 6 7 6 6 6 7 8 7 4 5 6 3 2 2 3 5 4 4 4 5 5 5
25 24 23 21 22 20 17 18 14 12 10 8 5 7 9 10 11 11 10 9 8 7 7 6 5 5 6 6 7 4 5 4 4 3 2 1 6 8 4 3 2 3 4
24 22 22 23 22 21 19 18 16 14 12 11 8 6 8 10 11 12 12 11 10 8 7 6 5 5 5 6 8 7 5 5 5 5 4 3 8 9 4 3 2 2 4
24 23 23 24 24 22 21 20 19 17 15 14 12 10 7 9 10 11 11 11 11 10 9 7 6 6 5 6 7 9 8 6 6 6 5 5 9 7 5 5 3 3 4
25 23 24 24 23 23 22 21 19 17 17 16 15 13 10 9 11 11 11 12 12 12 11 10 8 8 8 8 9 10 10 9 9 8 6 7 11 9 7 6 5 4 5
23 23 23 24 22 22 21 22 21 19 18 18 18 17 15 12 13 14 14 13 13 13 12 12 12 10 10 11 10 10 11 10 9 10 8 10 14 11 8 7 7 7 7
21 22 21 22 22 23 22 22 22 22 21 20 20 20 18 16 14 15 15 15 15 14 14 14 15 14 14 14 14 14 14 13 13 12 12 14 15 15 11 10 9 9 8
23 23 21 23 23 22 22 21 21 20 20 21 21 22 21 19 17 17 18 18 18 16 15 16 17 17 17 16 17 16 16 16 16 14 15 17 18 18 16 12 11 11 10
21 22 22 23 28 26 25 23 22 20 18 18 18 17 21 22 21 20 21 21 21 20 19 19 18 19 20 19 19 18 19 18 19 18 17 18 20 20 18 15 13 13 13
23 25 24 21 23 27 27 26 26 23 21 20 20 19 20 23 23 23 24 25 23 24 25 24 23 23 23 23 23 23 22 21 21 21 21 20 22 23 22 20 18 16 15
21 22 22 24 24 23 23 23 24 24 24 22 22 25 25 25 26 28 28 27 26 27 29 29 28 27 27 28 27 27 26 26 24 23 24 23 24 25 26 24 22 21 20
20 22 22 21 18 18 22 22 21 22 24 23 23 22 22 27 27 27 30 30 30 29 30 31 31 31 30 30 28 29 27 28 27 28 28 26 27 27 28 28 26 24 23
12 14 16 19 20 21 18 18 21 27 28 26 27 27 28 25 25 28 30 31 32 31 31 30 32 32 33 33 27 24 28 29 29 31 31 31 32 32 31 31 30 27 25
13 12 11 10 8 9 14 20 19 18 21 25 27 26 25 25 28 30 28 29 30 32 32 32 32 30 32 30 13 5 3 8 24 32 34 35 37 34 33 34 33 31 29
11 9 7 6 5 5 6 7 9 11 13 16 17 18 22 24 26 27 27 26 26 26 27 30 32 33 27 23 24 13 1 4 3 9 20 29 37 37 35 34 34 34 32
11 10 8 7 5 4 5 5 7 9 10 10 12 14 14 14 16 18 20 22 24 24 26 27 27 30 29 22 19 25 29 14 4 3 7 14 16 28 36 34 34 34 36
11 9 9 9 8 7 6 4 2 1 2 4 6 10 15 18 16 14 15 19 22 25 25 24 25 25 26 27 24 18 23 22 18 6 9 8 14 17 19 27 33 34 36
11 9 8 7 7 5 4 4 3 1 2 4 5 5 5 6 7 10 12 12 17 21 24 25 24 22 22 22 25 25 22 10 7 11 8 13 14 19 21 21 24 30 33

GFSSE_925_spd_054.txt.gz
Wind_Speed
19 25 23 20 18 17 16 14 14 12 12 12 11 10 9 8 12 15 16 15 12 12 11 11 12 11 13 10 13 14 14 14 13 13 14 11 12 12 11 10 10 11 6
27 27 24 21 20 18 15 14 13 12 12 12 10 8 8 8 14 15 13 14 13 12 11 10 11 12 13 13 13 13 13 14 14 14 13 12 12 11 11 11 10 14 13
32 27 25 22 19 18 17 16 14 13 13 12 8 7 8 9 14 14 13 12 11 11 11 11 11 11 12 12 12 11 11 12 13 12 11 11 10 9 9 11 9 6 7
30 28 25 21 20 19 17 16 16 14 13 9 7 7 8 11 14 13 12 11 10 10 11 11 11 11 11 11 9 8 8 9 10 10 10 9 10 7 6 9 11 15 4
29 27 25 22 21 20 18 18 16 15 10 7 6 8 11 11 13 13 10 9 8 9 10 11 11 12 12 10 8 8 7 7 7 9 9 10 10 12 11 8 11 14 17
29 26 24 22 21 20 19 18 17 13 10 7 6 11 11 12 13 15 10 7 8 8 9 10 10 11 11 9 6 6 6 7 7 9 9 9 10 12 11 11 10 7 13
28 26 23 21 20 19 19 18 17 12 9 6 5 15 12 13 14 12 9 8 7 7 8 9 9 9 9 7 5 5 5 6 6 7 6 7 8 5 5 5 7 6 7
28 26 22 20 19 18 19 18 15 12 8 4 6 13 12 10 11 11 8 6 5 5 7 7 7 7 6 5 3 3 3 3 3 5 4 3 4 5 5 6 7 6 6
25 25 23 20 18 18 18 17 14 11 7 2 4 10 15 13 9 8 7 6 5 5 5 5 5 5 5 4 2 2 3 2 1 2 2 1 1 2 5 6 6 6 5
24 23 22 19 19 18 18 15 12 9 7 4 4 8 10 12 12 11 8 7 5 5 5 5 4 3 3 3 3 1 2 1 2 2 2 2 2 3 1 2 4 5 5
22 21 20 19 20 18 16 16 13 11 9 7 5 5 6 7 10 11 9 8 7 6 6 4 3 3 4 4 5 5 3 3 4 4 4 4 4 6 4 2 4 4 3
22 21 20 20 21 20 17 16 14 14 12 10 8 6 5 6 7 8 8 9 8 7 6 4 3 4 4 4 5 6 7 6 6 6 6 5 5 8 6 6 7 5 3
24 21 19 20 20 19 18 17 18 17 14 12 10 8 7 6 8 9 9 10 10 10 9 7 6 6 6 6 6 7 8 8 8 8 7 5 7 7 6 7 7 5 4
23 21 20 20 21 19 19 19 19 18 16 15 13 13 12 10 9 11 11 11 11 11 10 9 9 9 8 8 8 9 9 9 9 9 9 6 7 9 7 6 7 6 4
22 21 20 21 21 20 19 19 19 18 17 15 16 16 15 14 11 11 12 13 12 11 11 12 12 12 12 12 12 13 13 13 12 12 11 10 10 13 11 9 8 7 7
22 21 19 20 21 20 20 20 20 19 19 18 18 18 18 17 16 14 14 14 14 14 13 13 14 14 15 15 15 15 15 15 15 15 13 12 14 15 15 12 11 9 9
23 20 21 20 20 21 21 19 19 19 19 19 18 18 18 20 19 18 16 16 16 16 17 18 17 17 17 17 18 17 17 17 18 18 17 15 15 17 18 16 13 12 11
19 22 21 21 22 23 22 21 20 19 19 18 17 16 17 18 19 20 21 20 19 19 20 21 21 21 21 21 22 22 21 21 21 21 20 19 18 19 20 21 19 16 15
22 21 21 21 20 20 25 24 23 23 23 22 20 20 20 20 20 22 23 23 22 23 23 24 25 25 26 27 27 27 26 25 24 24 24 23 22 22 23 23 23 22 20
17 18 18 19 22 19 18 21 23 23 25 25 24 24 22 23 25 26 27 27 26 25 26 26 26 28 29 31 30 30 28 27 27 29 29 28 27 26 25 25 26 26 24
18 19 19 19 19 17 18 21 21 23 23 24 24 24 23 24 23 23 27 28 28 27 29 28 27 27 29 29 26 26 30 27 27 31 32 31 31 31 29 28 28 29 28
14 14 15 14 16 19 21 20 18 16 19 25 25 26 25 24 24 24 26 27 25 27 27 28 28 27 27 26 14 5 3 10 18 22 25 30 32 32 32 31 30 30 30
11 11 11 10 9 9 10 12 14 14 15 14 13 14 15 18 20 21 23 24 25 25 26 26 25 25 23 20 22 13 1 4 2 8 11 14 18 22 27 29 29 28 30
13 11 10 9 7 6 6 6 7 8 9 7 9 10 11 11 12 12 14 16 19 20 22 24 24 25 24 18 17 21 24 9 2 3 7 13 13 20 20 20 22 25 27
13 12 11 9 7 5 3 3 3 3 3 5 6 8 10 10 12 12 13 14 16 19 21 23 25 24 22 22 20 16 16 19 19 6 5 5 10 13 17 15 16 18 22
13 12 11 9 8 5 3 2 0 1 3 6 7 7 7 8 7 8 9 11 12 14 17 21 21 20 20 21 21 19 17 8 6 8 5 8 8 11 16 17 18 19 19

GFSSE_925_spd_057.txt.gz
Wind_Speed
21 25 23 22 20 18 16 16 15 14 14 11 11 10 9 12 15 16 15 13 13 12 12 12 12 14 15 16 16 15 15 15 15 13 13 14 13 12 11 13 14 6 10
26 24 24 21 19 18 17 15 14 12 11 11 10 9 10 14 16 14 14 14 13 13 12 12 13 14 14 15 15 15 15 15 15 14 13 14 14 12 11 11 13 12 8
29 24 23 21 20 18 16 16 14 13 11 10 8 8 10 14 14 13 13 13 12 13 12 12 12 13 13 14 14 13 13 14 13 13 11 10 10 10 11 13 8 7 7
27 24 22 21 19 18 17 16 15 14 11 8 7 9 11 15 13 12 12 12 13 13 12 12 12 12 12 11 10 10 10 11 11 11 11 9 8 7 10 11 18 10 5
25 23 23 21 19 18 17 17 15 14 9 7 6 9 12 13 13 12 10 11 12 13 12 12 12 12 11 10 10 9 9 8 10 11 13 12 14 13 10 12 13 17 11
25 24 23 21 20 18 17 17 16 12 9 6 8 11 11 13 12 11 6 10 10 12 12 12 12 11 10 9 8 8 9 9 10 11 11 11 11 12 11 9 11 7 11
24 24 22 20 20 18 18 17 15 12 8 8 11 12 12 13 13 9 6 8 9 10 10 10 10 9 8 8 7 7 7 7 8 9 8 8 8 6 5 7 8 7 6
24 22 20 20 19 19 18 17 13 10 9 7 13 12 12 12 11 8 6 7 8 8 8 8 8 7 6 5 5 5 5 5 6 7 6 5 5 6 7 8 9 9 9
23 22 20 19 18 18 18 17 12 9 8 7 9 15 13 11 9 7 4 5 6 6 6 6 6 5 4 3 3 4 3 2 4 5 4 4 4 4 6 7 7 7 7
23 22 20 20 19 17 17 15 10 8 7 5 6 11 13 11 10 8 7 4 4 4 5 5 4 3 3 2 2 1 2 1 2 3 3 3 3 2 1 4 8 7 6
20 20 20 20 19 18 17 15 12 9 7 5 5 6 8 9 10 9 7 6 4 4 4 3 3 2 3 3 3 3 2 2 3 3 3 4 3 4 3 5 8 8 6
17 19 18 18 19 18 17 17 13 10 9 7 5 4 5 5 7 7 7 6 6 5 4 3 3 3 3 3 4 5 5 4 4 5 4 4 4 5 6 7 8 7 6
20 20 20 18 20 18 18 17 16 13 12 9 8 6 5 5 6 7 7 7 8 8 7 6 5 5 4 4 4 5 6 6 6 7 6 5 4 4 7 6 8 6 5
21 20 18 18 19 19 18 17 18 16 14 12 11 10 9 7 7 7 7 8 8 9 8 8 8 8 7 7 7 7 7 7 8 9 8 7 5 8 8 7 8 7 6
22 22 20 19 20 20 18 17 16 16 15 13 13 13 12 11 9 7 8 9 10 10 10 10 10 10 10 10 10 11 12 11 11 11 11 10 9 9 11 10 9 7 6
22 22 20 20 20 20 18 17 16 16 15 14 14 15 15 14 12 11 10 10 12 12 11 11 11 11 11 11 12 13 13 13 12 13 13 12 12 12 15 14 11 10 8
23 21 20 20 20 21 19 17 16 16 16 16 16 15 16 15 15 15 14 13 13 13 13 14 15 15 14 14 14 14 14 15 15 16 16 16 15 15 17 17 15 13 13
22 22 19 20 20 20 19 18 17 16 16 16 16 15 15 15 15 17 18 17 15 15 16 17 17 18 19 18 18 18 18 18 19 19 20 20 19 18 18 19 19 17 16
21 21 20 21 20 19 19 19 18 18 18 17 16 16 15 16 16 17 19 19 17 18 19 19 20 20 20 20 22 22 22 22 23 23 24 24 24 23 21 20 20 21 21
17 21 19 18 18 16 15 18 20 20 21 21 21 20 18 19 19 20 22 23 22 22 23 23 23 22 23 22 22 24 24 25 26 26 27 29 29 27 26 24 22 23 24
14 18 18 19 19 19 18 17 18 22 22 22 22 22 21 21 20 20 22 23 24 25 25 24 23 23 23 23 16 16 21 20 21 21 22 25 28 29 27 26 25 24 25
15 16 18 19 18 18 19 18 17 15 18 22 20 20 21 22 24 25 25 25 25 24 24 24 24 18 19 21 8 4 4 9 15 19 18 19 20 20 22 23 23 25 25
13 13 13 13 16 18 20 19 16 14 13 12 12 12 13 16 19 21 22 23 24 24 25 25 25 23 16 17 18 9 2 4 3 11 13 13 13 15 14 13 14 14 19
11 11 12 12 12 11 11 12 12 11 9 8 7 9 10 12 12 12 13 15 17 18 19 21 21 22 20 16 15 18 21 11 3 2 4 8 11 13 15 14 14 13 13
13 12 12 13 11 9 8 8 7 7 6 6 6 6 7 7 8 9 11 13 14 14 15 17 19 19 21 21 19 12 13 15 16 7 2 6 7 7 15 14 14 15 14
15 14 13 13 11 9 7 6 5 4 4 4 5 6 6 6 5 5 5 7 8 9 10 13 15 17 19 20 20 19 19 8 7 7 4 7 6 9 12 13 13 10 10

GFSSE_925_spd_060.txt.gz
Wind_Speed
17 20 24 21 18 17 15 15 13 13 13 12 10 10 11 13 14 14 12 11 12 12 12 13 15 15 16 17 17 16 16 15 15 15 15 14 13 11 12 14 8 9 10
23 22 24 21 18 17 15 14 13 12 11 11 10 10 13 16 14 14 13 12 12 12 13 13 13 15 16 16 16 15 15 15 14 14 15 15 14 12 12 10 13 8 7
26 23 22 22 19 16 15 14 13 11 9 9 8 10 14 13 14 13 13 12 12 13 12 13 14 15 14 14 14 14 14 14 13 13 15 10 9 11 13 19 7 8 8
25 24 22 21 19 17 15 14 13 11 9 7 8 10 14 13 12 12 12 12 12 12 12 12 13 13 12 12 12 12 12 12 13 15 10 10 9 11 12 16 16 7 8
23 23 22 22 20 19 16 14 13 11 7 6 8 10 13 12 11 11 11 12 12 12 12 13 12 12 12 12 11 10 10 12 14 12 12 13 11 12 14 14 14 13 9
21 21 21 21 20 18 17 16 13 9 6 5 9 12 11 11 11 7 9 11 12 12 12 12 12 12 11 10 10 10 10 11 12 9 9 10 10 10 10 9 9 6 7
20 19 20 21 20 18 17 16 14 9 7 9 11 9 12 12 10 5 7 9 10 10 11 11 10 10 9 9 9 8 8 9 8 8 7 7 6 6 8 9 9 7 6
19 19 18 19 18 18 18 16 13 9 8 13 12 13 11 13 9 6 5 7 8 8 9 8 7 7 7 7 6 5 5 7 7 6 5 4 5 6 8 8 8 9 9
17 17 18 17 17 17 17 15 12 10 8 12 13 15 11 9 6 4 3 5 6 6 6 6 5 4 3 3 3 3 3 4 5 3 4 4 3 4 5 8 10 9 9
18 17 17 16 16 16 16 15 12 9 8 10 13 12 12 10 9 6 5 3 4 4 4 4 3 2 1 1 1 1 1 4 3 3 3 3 2 3 1 6 10 9 9
17 16 16 16 16 16 16 15 11 8 7 8 9 11 9 6 6 5 7 5 4 4 4 3 2 2 1 2 3 2 1 2 3 3 3 4 2 3 4 6 7 9 7
17 16 16 15 15 15 14 15 14 10 7 7 7 8 7 6 6 7 6 6 5 5 4 4 3 2 1 3 3 3 3 3 3 4 4 4 3 5 8 6 6 8 6
17 15 15 14 14 14 14 14 15 12 8 7 7 7 6 6 5 5 5 5 5 6 5 4 3 3 3 3 4 4 4 4 4 5 5 5 5 4 8 7 8 7 6
16 16 16 15 16 16 14 14 14 12 10 9 8 7 6 5 5 5 5 6 6 6 6 6 5 5 5 5 6 6 6 6 6 6 7 7 6 6 9 9 10 9 7
14 16 15 15 16 17 16 14 13 13 12 9 9 9 8 7 6 5 6 7 7 7 7 6 6 7 7 7 8 8 8 9 9 8 7 10 9 8 10 11 10 9 8
14 15 14 14 15 16 16 14 13 13 12 11 10 10 10 8 7 7 7 7 8 8 7 7 7 7 7 8 8 9 9 9 9 9 8 9 10 11 12 15 13 11 10
16 15 15 14 14 16 17 15 13 12 12 11 10 10 10 10 9 9 9 8 8 8 8 9 9 9 10 10 10 10 10 10 10 10 10 10 10 12 13 15 16 15 14
14 15 14 13 14 15 15 14 13 12 12 11 10 9 10 11 11 10 10 10 9 8 8 10 10 11 11 12 12 11 11 11 12 12 13 12 12 11 13 15 18 18 17
13 15 15 15 15 15 15 13 13 11 11 10 10 10 10 11 11 12 11 11 10 10 11 11 12 12 13 13 13 14 13 14 14 14 15 16 15 15 14 14 17 19 20
11 14 14 14 16 16 14 14 13 12 12 13 12 12 11 11 12 13 13 13 12 13 13 14 14 14 15 15 15 16 16 16 16 16 17 17 16 16 16 15 14 15 18
9 12 15 15 15 15 14 12 12 14 14 14 14 13 13 14 13 14 14 14 13 15 16 16 16 16 17 15 13 15 16 13 15 16 14 13 12 12 12 13 13 14 15
8 10 12 13 16 18 15 14 12 10 11 11 10 11 12 13 14 14 15 16 16 16 17 17 17 17 15 13 10 8 5 13 15 10 10 10 10 9 9 9 10 12 13
8 9 11 14 14 14 14 12 10 10 10 7 8 7 8 11 12 15 16 16 17 17 19 18 16 15 16 14 14 10 3 7 3 6 7 8 8 7 7 6 7 10 10
8 9 9 11 13 15 16 14 14 13 12 8 8 9 10 11 12 12 12 13 16 17 19 20 21 20 20 17 13 16 18 8 3 3 6 7 7 8 7 8 10 8 10
10 12 11 9 9 11 11 10 9 7 6 6 6 5 6 7 9 10 11 12 12 11 14 14 13 15 17 17 17 14 14 12 13 8 4 6 7 5 7 7 7 6 6
12 12 13 12 10 11 10 10 8 8 6 5 4 5 5 5 6 7 8 8 9 9 9 10 12 14 16 17 19 19 17 7 9 9 6 7 4 6 5 6 6 6 5

GFSSE_925_spd_063.txt.gz
Wind_Speed
18 22 23 20 18 15 13 13 13 11 10 10 9 9 12 13 14 13 12 12 14 13 15 18 17 18 18 18 17 17 16 16 17 19 18 16 15 14 14 12 9 11 11
24 23 24 20 18 16 15 13 12 11 10 9 9 11 15 15 14 13 13 13 13 14 13 15 15 16 16 16 16 16 15 15 16 16 15 17 17 17 13 12 12 10 9
24 23 22 21 18 17 14 13 11 10 9 8 9 12 13 14 13 13 13 13 13 13 13 13 13 14 14 14 14 15 15 16 17 16 10 10 12 15 19 12 11 12 11
24 22 21 21 18 17 15 14 12 10 9 9 10 13 13 14 13 13 13 12 12 12 13 13 13 12 13 12 12 14 15 17 15 14 14 12 12 16 17 19 11 12 9
22 22 21 21 19 18 16 13 11 9 8 8 11 12 12 13 11 12 13 12 12 12 12 12 12 12 12 11 11 13 16 16 14 14 13 13 11 12 13 13 13 13 12
21 20 20 19 18 17 16 14 12 8 7 9 10 13 12 11 11 10 12 12 12 12 11 11 11 11 11 11 11 12 14 14 12 10 10 11 9 11 11 10 9 9 9
20 20 20 18 17 15 16 15 12 9 8 11 11 12 12 11 9 7 11 11 11 11 11 10 10 9 10 10 9 9 11 13 10 8 8 8 8 10 11 12 12 11 11
19 17 19 18 16 15 15 14 11 9 10 14 11 10 12 12 6 5 9 9 9 9 8 8 7 7 7 7 6 6 8 9 7 6 7 5 7 8 11 13 13 12 11
17 18 17 17 17 16 15 13 11 10 13 13 15 12 12 9 5 3 6 7 7 6 6 6 5 4 4 5 5 4 5 8 7 4 5 4 4 3 7 11 14 13 12
17 16 17 17 17 15 14 13 10 9 11 13 13 13 12 11 8 5 5 6 5 4 4 4 3 2 2 1 1 2 4 7 4 4 4 4 0 2 3 6 11 12 12
13 16 15 16 17 17 16 14 10 7 9 10 11 10 8 6 6 3 6 4 4 4 4 3 2 0 0 1 1 2 2 2 3 3 2 5 2 3 3 6 7 11 10
17 16 17 15 16 17 15 15 11 8 7 7 7 9 7 7 7 6 6 6 5 5 5 4 2 1 1 2 4 4 3 3 3 3 4 7 4 3 4 9 6 9 9
16 15 16 16 16 14 15 15 11 10 8 8 8 8 7 7 5 7 4 4 4 4 4 4 3 1 4 3 3 3 4 4 4 5 6 8 6 4 5 6 6 7 8
17 18 16 16 15 15 12 14 11 11 9 9 8 8 7 7 6 6 6 5 6 6 6 6 5 5 5 5 5 5 6 6 6 6 7 10 8 6 6 7 8 7 8
12 13 15 14 14 14 14 14 13 13 11 10 9 9 8 7 6 6 6 6 7 6 6 6 6 6 6 6 7 7 8 8 8 8 7 11 10 8 8 11 9 9 8
10 13 13 15 15 15 15 13 14 11 10 10 10 10 10 8 7 6 6 6 7 7 7 7 7 7 7 7 7 8 8 8 8 8 9 9 12 10 10 11 12 10 10
14 13 14 15 14 14 16 14 13 11 10 11 11 10 10 10 9 8 7 7 7 7 8 8 8 9 9 8 9 9 9 9 10 10 11 11 10 12 12 12 14 13 13
14 16 14 13 13 14 15 14 12 11 11 11 11 10 11 10 10 8 8 8 8 8 8 8 9 9 9 10 10 10 10 10 12 12 13 13 13 12 12 14 12 15 15
14 16 16 15 14 14 13 12 12 11 11 11 11 10 10 10 10 10 9 8 9 9 10 10 10 11 11 12 12 13 12 13 14 14 15 15 15 15 14 13 16 16 16
12 15 16 16 15 15 13 13 13 12 13 13 12 11 10 10 10 11 10 10 10 12 12 13 14 14 14 15 14 15 16 15 16 16 16 16 16 15 13 15 13 14 14
10 15 16 16 16 15 15 14 15 15 14 14 13 12 11 11 11 11 11 12 13 14 14 15 15 16 17 16 14 14 17 17 16 16 14 15 13 10 10 10 11 11 11
10 13 15 17 15 16 15 15 14 14 14 13 12 11 11 11 12 12 13 14 14 15 16 17 17 17 17 14 6 10 3 11 16 15 10 9 9 10 9 7 7 8 9
10 11 14 14 14 15 15 13 12 8 7 7 9 9 9 9 10 14 16 18 18 19 20 21 19 15 15 16 15 10 3 4 5 5 6 7 9 9 7 6 4 5 7
12 10 10 13 14 13 13 13 12 12 11 11 8 8 9 10 10 10 10 10 13 15 17 19 21 18 18 16 14 18 21 13 3 3 10 10 8 7 6 5 5 5 6
12 11 10 9 11 13 14 14 13 13 10 7 7 7 6 6 7 9 10 11 12 11 11 12 12 12 15 17 18 16 14 14 16 9 5 6 9 8 5 5 3 2 3
14 14 13 12 11 11 11 11 12 11 10 8 8 6 6 5 5 7 8 8 8 8 8 9 10 11 12 14 17 18 16 9 7 8 5 8 6 5 3 3 1 1 2

GFSSE_925_spd_066.txt.gz
Wind_Speed
24 28 24 21 18 17 14 13 15 14 12 12 13 15 16 16 15 15 15 16 16 20 21 20 19 19 19 19 18 18 20 21 22 22 21 22 20 15 17 13 13 14 15
27 28 25 23 18 16 16 15 14 13 12 13 14 17 16 16 16 16 16 17 16 17 19 18 18 18 17 17 18 19 20 19 17 18 20 20 22 19 13 13 16 15 14
27 26 24 22 20 17 16 15 13 12 11 13 17 17 17 16 16 16 17 16 16 16 16 16 16 16 16 16 17 19 19 17 16 17 11 18 20 21 18 15 15 14 15
29 25 22 22 21 18 17 15 13 11 11 14 16 16 16 16 16 16 16 15 15 16 15 15 15 15 14 14 17 19 17 16 18 17 18 16 15 17 18 15 16 17 16
26 24 21 21 20 19 17 14 13 11 11 14 16 15 15 14 15 16 16 15 16 15 15 14 14 14 14 13 16 17 17 18 17 13 13 11 10 13 13 11 10 10 10
24 26 21 19 19 18 16 15 13 11 12 14 16 15 14 14 13 14 15 15 16 15 14 14 13 13 13 13 15 16 16 16 14 15 14 8 10 11 12 11 10 11 10
27 24 22 18 17 16 16 15 12 11 12 14 16 15 13 12 12 12 14 14 15 14 14 13 12 12 11 11 11 13 15 15 11 11 7 8 11 12 13 13 12 12 12
26 23 22 18 15 15 15 14 11 11 15 14 14 14 13 11 9 10 12 12 13 12 12 11 10 9 9 8 8 9 10 11 10 9 4 7 8 9 12 14 14 13 13
26 24 21 19 16 15 14 13 11 13 14 13 16 13 15 8 5 7 9 10 9 10 9 9 7 6 6 6 6 7 10 10 9 8 5 6 4 4 7 10 13 13 12
29 23 19 18 17 17 15 12 12 13 13 16 15 16 14 11 5 5 8 8 7 7 6 6 5 4 3 3 4 5 7 9 7 5 2 6 2 2 2 6 9 11 11
24 23 22 19 18 16 15 13 11 11 12 13 13 12 10 6 5 2 6 5 5 5 5 4 3 2 2 4 4 3 5 5 2 2 4 5 4 2 3 6 7 9 10
19 22 19 21 19 21 16 15 10 7 9 10 10 10 9 9 7 8 4 4 4 4 4 2 1 1 4 3 5 4 4 3 2 3 5 7 6 3 3 6 6 7 8
17 20 19 22 20 20 19 16 14 8 8 8 10 8 7 9 7 5 3 4 4 4 3 1 1 3 2 2 3 3 5 5 2 4 6 9 8 6 5 5 5 6 6
17 21 19 20 21 19 19 19 15 13 11 11 11 8 10 8 6 5 7 1 0 3 3 6 4 3 3 5 3 5 6 7 6 5 8 9 9 8 5 6 7 7 6
19 22 22 21 21 20 18 18 14 14 14 12 13 11 8 8 6 7 7 7 7 6 4 6 5 6 7 6 7 8 8 7 8 8 9 10 10 9 8 8 10 9 8
11 12 20 18 18 17 17 16 16 11 16 13 12 12 11 8 7 8 7 8 8 8 7 7 7 7 7 8 8 8 9 9 9 9 10 11 11 12 10 10 10 12 11
12 12 16 17 18 16 20 17 17 15 14 14 13 12 11 11 8 8 8 8 7 7 8 8 8 9 9 10 10 10 11 11 10 10 12 13 13 13 12 11 12 13 13
16 17 18 18 18 16 18 18 19 13 13 9 11 11 12 12 11 10 9 9 8 8 8 8 9 9 10 11 12 12 12 13 14 11 13 14 16 15 14 12 13 13 14
16 18 18 18 19 18 17 19 17 15 10 13 11 12 11 12 12 12 10 9 9 9 9 9 10 11 12 12 13 14 14 15 15 15 16 16 17 18 17 15 15 15 15
17 19 20 18 18 17 17 13 17 13 15 15 14 13 13 12 12 12 11 10 9 10 11 11 12 13 15 15 16 19 18 20 19 19 21 18 16 15 14 11 12 15 13
15 18 22 21 20 19 18 17 14 16 14 15 14 14 13 13 12 12 12 11 10 12 12 12 13 15 17 17 18 20 20 19 19 23 21 18 15 10 10 12 10 10 11
16 16 21 23 21 21 21 19 19 15 17 16 16 13 14 15 14 11 11 12 12 12 14 15 15 16 17 16 9 9 3 7 16 19 19 12 8 8 7 7 6 6 7
18 17 16 21 22 21 19 18 16 14 15 16 13 15 12 11 12 13 14 14 16 17 18 18 18 18 18 19 17 11 3 3 3 1 5 6 6 7 6 6 8 6 9
19 20 16 13 18 21 22 19 21 20 13 12 13 15 16 15 14 15 16 15 16 16 17 20 21 19 18 15 15 18 21 18 3 3 7 4 4 6 6 7 7 3 3
16 20 22 21 17 15 19 21 20 17 12 12 15 14 11 11 9 9 10 10 11 12 12 12 13 13 14 15 16 18 17 18 20 9 5 9 10 8 8 8 4 5 2
16 14 15 19 20 22 20 18 18 18 15 12 11 8 7 6 6 7 8 7 8 9 10 10 9 10 11 12 12 15 17 12 5 9 3 9 8 6 6 8 10 7 5

GFSSE_925_spd_069.txt.gz
Wind_Speed
30 30 24 22 21 18 17 17 17 14 14 16 18 19 17 17 17 18 19 23 25 23 21 20 19 19 19 19 22 22 22 24 24 23 24 21 18 20 15 17 16 16 14
37 32 26 23 21 18 19 18 16 15 17 17 20 19 18 18 18 18 18 20 22 21 20 19 17 19 18 22 21 20 18 18 19 21 21 24 19 17 16 17 18 18 20
37 32 26 23 21 19 19 18 16 16 17 23 20 19 18 19 19 18 18 19 21 20 19 17 16 17 19 20 19 18 17 14 12 16 18 19 22 18 18 20 17 18 22
36 32 28 24 22 20 19 17 15 16 20 18 20 18 18 19 19 19 18 18 17 17 17 16 16 17 19 19 19 17 16 19 18 18 16 13 15 14 13 11 14 14 14
33 30 27 23 21 20 18 16 16 16 20 19 18 18 18 18 18 19 18 18 18 17 16 16 17 17 19 18 17 17 18 16 15 12 10 10 12 12 12 11 10 8 9
29 27 25 23 21 19 17 16 16 18 19 19 18 16 17 18 18 18 18 19 17 16 15 16 16 17 18 17 16 16 17 17 11 11 11 10 14 13 13 13 13 12 11
27 26 24 22 21 18 17 16 14 17 19 19 18 15 16 15 17 17 17 17 16 15 15 14 15 15 15 14 14 14 13 12 9 9 11 11 14 13 13 13 13 12 12
29 26 23 21 20 19 17 14 13 17 19 19 18 15 15 13 14 16 16 16 15 14 13 12 12 12 11 11 11 11 11 10 8 7 8 9 9 10 11 13 13 12 11
28 26 23 21 20 18 15 14 15 18 18 19 17 13 13 11 11 13 14 14 13 12 11 10 9 9 9 8 9 10 9 9 8 6 6 7 5 5 7 9 11 11 11
27 26 24 21 21 20 17 14 16 15 15 18 18 16 13 9 9 11 11 11 10 10 9 8 7 6 7 6 6 7 8 6 5 2 3 6 3 2 2 5 8 9 10
25 25 23 21 21 20 18 15 15 16 16 16 17 16 12 7 6 8 10 8 7 7 6 6 5 5 5 6 6 4 5 4 3 2 3 5 5 2 2 3 4 6 7
24 26 22 22 21 20 19 16 14 14 16 15 15 14 10 8 6 7 6 5 6 6 5 4 3 4 5 3 2 3 1 0 0 4 4 5 7 5 3 4 4 3 5
27 25 22 23 21 21 21 19 14 13 14 13 13 13 11 8 12 7 3 4 6 6 6 5 4 4 2 1 2 1 3 4 3 4 5 7 7 7 5 6 6 4 4
34 30 26 25 20 22 22 19 16 14 13 14 11 13 12 13 6 8 6 4 5 5 6 5 3 4 3 3 3 3 5 6 6 6 7 8 9 8 7 5 6 6 5
24 27 28 29 24 22 22 20 19 15 16 16 15 13 16 11 9 9 8 8 5 4 5 5 4 4 7 6 6 7 7 7 7 8 9 9 10 10 8 7 9 8 8
23 25 26 27 24 24 22 20 17 15 16 19 17 16 14 11 10 12 10 9 8 7 7 7 7 7 7 7 8 9 9 10 10 10 10 12 12 12 11 10 9 11 12
16 24 26 28 28 24 23 21 18 15 18 17 19 17 16 13 12 10 11 11 11 11 10 9 8 8 7 8 10 11 10 12 13 13 12 14 15 14 13 11 10 10 12
18 21 25 24 24 21 23 22 19 19 15 19 20 18 17 16 15 13 13 11 11 10 9 10 10 10 9 9 10 11 11 12 13 15 15 15 16 16 17 15 12 11 13
21 21 24 24 23 23 22 23 22 20 13 15 15 17 18 16 15 15 14 12 12 11 10 10 8 9 10 11 11 12 13 15 17 15 17 17 17 18 18 16 13 13 12
23 21 23 23 23 22 24 23 23 18 13 15 16 14 16 16 15 14 14 13 12 12 11 10 10 11 12 13 15 17 19 20 20 21 23 23 20 16 15 13 10 11 11
24 24 26 24 25 25 24 22 24 21 18 19 17 15 17 16 14 15 15 13 12 13 12 11 11 11 14 15 14 15 17 17 20 17 21 22 21 12 8 5 7 8 7
29 26 24 29 29 29 27 25 25 25 21 19 19 17 16 16 15 17 16 15 15 13 13 14 14 16 16 16 14 13 3 7 11 14 15 15 12 6 4 5 6 6 7
26 29 29 29 27 27 28 27 21 22 20 20 20 19 16 18 16 14 15 15 16 16 16 15 16 18 18 19 18 9 2 3 2 2 1 4 6 7 5 5 7 6 7
25 23 25 30 27 29 27 27 28 27 21 25 24 22 19 17 17 16 17 17 17 18 19 19 19 19 18 17 18 20 18 13 2 3 4 4 3 6 8 9 9 7 8
22 19 20 23 28 29 28 28 28 26 23 18 19 19 20 18 18 18 16 16 14 14 13 13 13 12 13 14 13 14 13 14 16 7 3 7 10 9 7 7 9 9 7
16 14 14 14 17 20 26 28 25 26 20 19 20 20 19 16 14 12 10 10 10 9 10 10 11 10 10 11 12 13 13 9 5 8 4 6 7 14 8 6 10 11 8

GFSSE_925_spd_072.txt.gz
Wind_Speed
28 27 25 23 22 20 19 17 16 15 17 18 19 17 17 18 19 23 24 24 22 21 20 19 20 20 20 21 21 21 21 20 22 20 18 19 17 17 16 17 20 14 13
35 30 27 25 22 20 20 17 16 18 20 20 18 17 17 18 17 20 23 22 21 20 19 19 20 19 20 20 20 18 17 19 20 21 21 17 18 16 17 19 21 21 16
33 30 27 24 23 22 21 18 17 20 21 17 18 18 18 18 18 18 21 21 19 18 18 18 18 19 21 21 18 13 10 13 16 16 16 17 14 15 15 15 15 18 16
33 30 27 25 22 22 20 18 18 22 20 19 18 19 20 19 19 18 19 18 18 18 17 18 18 20 20 19 14 14 16 16 14 13 11 13 12 10 11 11 12 11 13
32 28 27 24 23 21 19 18 20 21 20 18 18 19 19 20 20 19 18 16 18 17 17 18 19 20 19 17 16 16 15 13 12 10 9 10 12 11 11 11 10 10 10
31 28 25 24 23 21 18 18 20 22 21 19 17 19 19 19 19 19 19 17 18 17 17 18 18 18 17 16 17 16 12 11 9 9 11 14 14 12 12 13 12 11 10
29 26 24 22 22 20 18 18 20 21 21 19 18 19 18 18 18 19 20 18 17 16 17 17 17 17 15 14 14 13 11 8 8 10 10 12 12 12 12 12 12 12 11
29 26 23 22 20 19 18 17 20 22 19 19 17 17 18 17 18 17 17 17 15 15 15 15 15 14 14 13 11 10 9 6 6 7 8 7 8 9 10 12 11 11 10
28 26 24 22 20 18 16 16 19 21 20 19 16 15 14 15 16 16 17 16 15 14 13 13 12 11 11 10 10 9 8 5 5 5 6 5 4 4 6 8 10 10 9
28 26 24 22 21 18 16 16 19 21 22 19 16 15 14 13 14 14 14 13 13 13 12 11 10 10 9 9 8 7 5 3 2 2 3 5 4 2 3 5 6 7 7
26 29 27 23 22 19 16 17 19 18 20 20 18 15 14 12 10 11 11 11 10 10 9 8 8 8 8 8 7 7 5 2 1 0 1 3 4 3 3 3 3 5 6
25 27 27 25 23 20 18 17 18 18 20 20 19 16 13 10 10 11 9 8 8 8 8 7 6 6 7 6 5 6 3 1 1 2 3 4 5 5 3 6 5 4 5
14 21 27 26 24 22 20 18 18 18 19 20 19 16 14 12 11 10 8 8 8 8 8 7 6 6 4 2 3 2 2 2 3 4 5 5 6 6 6 5 7 6 6
21 22 23 28 28 24 22 19 16 17 19 18 18 17 15 13 14 12 9 7 9 9 9 7 7 6 4 2 1 2 3 4 5 5 6 7 7 7 7 6 6 6 7
35 35 27 28 31 27 25 23 19 17 18 16 15 17 16 14 13 11 11 10 8 10 9 9 8 7 7 6 6 7 7 6 6 7 8 8 9 8 8 7 8 9 9
35 34 35 29 28 28 26 26 21 18 19 19 18 17 15 14 12 12 12 12 11 10 9 8 8 8 7 7 7 8 8 8 9 11 11 10 11 10 9 9 8 9 11
33 33 33 33 26 29 29 26 24 19 18 21 20 21 20 15 14 11 13 12 12 10 9 9 8 8 8 7 8 10 10 10 12 13 15 15 14 13 13 12 10 8 8
33 34 30 30 31 32 30 25 24 20 19 24 24 22 22 19 16 14 14 13 11 11 11 10 10 10 10 10 10 9 10 12 12 13 13 15 15 15 15 17 13 13 11
26 29 31 29 33 31 28 25 22 20 22 22 24 25 26 19 18 17 15 13 12 12 12 11 10 9 10 10 12 12 13 15 16 17 18 17 17 16 17 16 17 13 12
25 23 27 31 31 28 25 21 21 24 22 18 17 24 22 20 20 18 16 14 13 13 12 12 12 11 13 13 14 17 18 20 21 22 23 20 20 18 16 14 10 12 10
27 26 26 26 26 27 23 23 28 29 23 20 19 18 22 23 21 18 17 16 15 15 13 13 13 13 14 15 14 17 19 20 21 23 23 20 18 16 15 11 9 8 8
29 30 28 29 30 30 32 32 32 29 26 24 25 20 18 21 21 18 18 18 16 16 15 14 14 14 15 16 13 16 3 9 16 16 14 15 8 8 10 9 7 8 8
26 32 33 32 32 33 32 31 25 25 25 23 22 22 19 21 22 20 20 19 18 17 16 13 13 14 17 19 17 6 3 3 3 3 3 3 4 8 8 8 8 8 9
30 29 26 29 29 32 33 31 30 27 21 26 25 22 21 20 22 23 20 19 18 17 17 18 17 16 16 18 19 16 15 13 3 3 4 4 2 4 7 9 9 10 8
32 29 30 27 29 32 35 34 32 31 32 27 28 24 23 23 22 19 19 20 20 18 19 19 19 16 14 14 13 12 11 12 12 7 4 7 6 5 6 8 10 10 9
17 16 18 20 24 25 26 28 27 30 24 24 20 22 23 21 20 18 17 18 16 16 15 15 15 14 13 13 13 14 13 8 4 3 3 7 7 4 5 8 12 12 9

GFSSE_925_spd_075.txt.gz
Wind_Speed
25 26 24 23 21 19 18 16 14 16 17 16 16 17 18 21 23 23 22 21 20 19 19 20 21 20 20 20 19 19 21 20 18 19 17 15 15 16 18 18 15 15 13
30 28 25 24 21 19 17 16 15 20 18 17 16 16 17 21 23 23 21 20 18 18 19 20 20 19 18 17 16 18 18 20 20 18 17 17 17 15 17 20 19 16 14
31 28 25 24 22 20 17 16 19 19 18 17 16 17 17 18 21 22 22 19 17 18 18 19 19 18 17 14 12 12 14 16 15 15 14 12 12 13 14 13 15 15 14
31 29 26 23 22 21 18 18 21 20 15 17 17 17 18 18 19 21 19 18 17 17 17 18 20 19 16 13 13 14 14 13 12 10 10 10 11 11 11 11 11 10 12
28 27 25 23 22 20 18 19 21 19 16 17 17 19 19 18 18 18 15 16 16 17 18 21 20 18 15 15 15 15 13 12 10 9 10 10 11 12 12 12 11 10 10
27 26 25 22 21 19 18 20 23 19 16 17 17 17 18 18 17 16 16 16 17 18 19 20 19 16 16 15 14 13 12 10 10 11 13 13 13 11 12 12 12 11 10
26 25 23 22 20 18 17 20 21 19 18 17 17 17 17 18 19 17 16 17 17 19 19 19 18 16 14 13 12 10 9 8 9 10 10 11 11 10 11 12 11 11 11
25 24 22 21 19 17 16 19 20 21 19 17 17 17 17 17 18 17 16 15 14 16 17 16 16 14 12 11 10 10 8 7 8 8 7 6 7 8 9 11 11 11 10
24 23 21 21 19 17 16 18 22 19 19 16 16 17 18 18 18 17 15 14 13 14 14 13 12 11 10 10 8 8 5 5 5 6 6 5 4 4 6 8 9 10 10
23 23 22 21 19 17 15 17 22 20 20 17 16 15 16 17 18 17 17 15 14 13 12 11 10 9 9 8 7 5 4 2 2 3 3 4 4 3 4 5 6 7 8
22 22 23 21 19 17 15 17 20 22 19 19 16 16 15 15 16 16 15 15 13 12 11 9 8 7 7 7 6 4 2 0 0 0 1 2 3 2 4 5 5 5 6
20 21 25 24 22 18 16 18 18 21 21 21 18 17 15 13 13 12 12 11 11 11 10 8 7 7 7 6 4 5 3 2 2 2 2 2 3 3 4 6 6 5 5
17 20 24 25 24 21 18 19 18 18 21 21 20 17 14 12 12 12 11 10 10 10 10 9 8 7 7 5 4 3 4 3 3 3 4 4 4 4 5 6 7 6 5
23 16 19 21 24 22 20 19 20 19 20 21 21 18 15 14 12 12 11 9 10 10 9 8 7 7 6 3 3 3 3 4 5 5 5 6 6 6 6 6 6 7 6
40 27 24 17 23 25 24 20 20 21 21 20 20 19 16 14 14 12 11 10 8 10 9 9 7 6 7 6 6 6 6 6 7 7 7 7 7 8 8 8 8 8 8
32 34 23 30 25 26 27 24 22 20 20 21 21 20 19 15 14 13 12 12 10 9 8 8 8 8 7 8 8 9 8 9 8 9 10 11 11 10 10 9 9 8 9
27 32 31 33 29 27 30 28 24 22 22 22 21 18 19 17 16 14 13 13 12 11 10 10 9 9 9 8 8 8 11 10 10 10 13 16 15 15 14 13 13 10 10
24 31 39 35 32 23 25 25 28 26 24 22 22 22 21 20 19 16 14 14 11 12 11 11 10 9 9 9 10 9 9 11 14 14 14 15 15 15 16 16 16 16 12
33 34 33 37 33 33 30 30 31 28 27 21 22 24 22 24 21 19 16 13 13 13 12 11 10 9 9 9 9 13 13 15 16 18 21 19 19 19 17 15 15 15 14
33 32 34 37 38 34 30 29 33 30 28 24 25 25 25 26 25 22 19 15 15 14 13 13 13 12 11 11 12 15 17 18 19 20 22 23 21 17 15 16 14 12 14
25 27 32 33 35 35 37 30 29 29 29 22 24 23 24 28 26 23 20 17 16 15 14 15 15 13 13 13 12 16 18 18 21 23 22 23 21 18 17 14 15 11 11
20 26 24 27 33 35 35 28 25 33 29 26 25 23 21 22 27 25 21 19 17 17 16 15 13 11 12 13 9 8 4 11 15 14 13 12 9 8 8 8 9 8 8
17 20 27 30 35 33 33 30 26 23 24 23 23 25 24 24 26 28 23 18 18 18 18 14 14 12 13 14 14 7 2 3 3 10 7 6 5 5 6 8 9 9 8
23 22 22 24 26 28 30 31 28 26 23 28 30 26 24 22 23 26 22 20 17 16 14 16 15 17 18 18 16 14 16 12 3 4 4 2 2 4 6 8 10 10 9
28 26 24 23 21 25 26 29 26 23 24 21 20 22 20 20 19 21 21 16 12 16 20 22 19 20 20 18 15 11 9 12 14 8 5 6 6 6 8 10 12 12 11
21 26 22 23 21 22 25 26 25 23 25 25 22 21 18 16 18 18 18 20 16 20 23 20 16 16 15 15 15 14 14 7 3 7 3 6 5 6 7 9 11 12 10

GFSSE_925_spd_078.txt.gz
Wind_Speed
24 25 23 22 20 18 17 15 16 15 16 16 16 18 19 21 22 22 20 20 19 20 20 20 20 20 20 19 19 20 19 20 19 18 18 17 18 21 21 19 17 16 14
30 27 24 23 21 18 17 16 18 17 17 16 16 19 21 23 23 21 21 19 18 19 20 20 19 19 18 17 17 18 19 19 19 18 19 18 17 16 18 18 16 15 15
30 28 24 24 21 18 16 16 20 18 16 16 16 18 22 23 22 22 20 19 19 19 19 19 18 16 15 14 15 15 16 16 15 13 12 12 13 12 13 13 14 15 15
29 27 25 22 21 18 16 18 19 18 14 16 17 16 19 21 22 20 19 18 19 19 19 18 17 15 14 14 14 14 13 14 12 11 11 12 13 12 12 11 11 11 12
27 26 24 22 21 18 17 19 18 15 15 16 18 18 16 20 20 18 17 17 18 18 19 18 17 15 16 16 16 14 13 12 11 12 12 13 15 13 13 13 12 10 10
26 25 22 22 21 18 18 19 17 15 15 16 19 20 17 18 17 14 15 17 17 17 18 17 15 14 15 14 13 12 11 12 13 14 14 14 14 12 13 13 12 11 10
25 23 21 21 20 17 17 20 17 14 15 16 17 18 17 16 15 14 15 16 16 17 17 16 14 14 13 12 11 10 10 11 11 11 12 12 12 11 12 12 12 12 11
25 22 20 20 19 17 16 19 17 14 14 15 16 18 19 18 16 16 16 15 16 16 17 15 13 11 10 9 8 8 8 8 9 10 9 9 9 8 9 10 11 11 10
22 22 20 19 18 16 17 19 18 16 13 15 16 17 19 19 17 16 16 16 16 17 15 14 12 10 9 8 8 7 6 6 6 7 7 6 6 5 7 8 9 10 10
18 20 21 19 18 16 16 20 17 18 14 13 15 17 18 19 18 16 15 14 15 15 14 12 11 9 7 7 6 5 4 3 3 4 4 5 5 4 5 6 7 8 9
14 19 21 21 18 17 16 19 20 17 16 13 13 14 16 17 17 16 15 13 13 11 10 9 8 8 7 6 5 3 2 1 1 2 3 3 4 2 4 6 6 6 7
20 22 21 22 21 19 17 18 21 18 20 15 14 15 15 14 14 14 13 12 10 9 8 8 7 6 5 5 3 3 1 1 2 2 2 2 3 3 4 5 5 5 6
22 21 21 22 21 20 19 19 21 22 19 20 16 15 15 13 14 13 13 12 11 10 9 8 7 6 6 4 3 2 3 3 3 3 3 3 3 3 4 5 6 5 5
25 9 8 16 21 19 17 20 21 21 21 20 18 17 15 14 14 14 12 11 11 10 10 8 7 6 5 3 2 2 2 3 4 4 4 5 5 5 5 5 6 7 6
14 8 13 15 19 20 19 20 21 21 22 23 21 19 16 14 13 13 11 10 10 11 10 10 8 7 6 5 4 4 4 4 5 6 6 6 6 7 7 7 7 7 6
32 18 13 14 18 23 26 22 22 22 21 22 23 22 19 16 14 14 12 12 10 10 9 10 9 7 6 6 5 6 5 5 6 6 6 8 9 10 10 11 9 9 9
34 42 40 34 23 27 24 25 24 22 22 23 23 23 21 19 16 14 13 13 12 10 10 10 9 8 8 8 7 6 7 7 6 7 9 12 12 12 13 13 13 13 12
30 32 36 38 27 28 21 19 21 23 24 24 25 23 22 21 19 16 14 14 13 13 13 12 11 10 8 8 8 7 7 7 9 10 12 13 16 15 14 13 15 15 14
27 30 31 34 30 28 28 18 19 23 24 25 26 26 25 23 21 20 18 15 14 14 14 12 11 10 8 8 8 8 10 10 14 15 16 17 18 18 17 17 15 14 14
33 37 37 34 27 25 31 24 25 21 28 29 27 29 27 25 25 22 21 18 16 16 15 14 12 11 11 9 10 11 14 15 16 16 17 19 20 20 18 15 15 15 12
31 30 33 27 25 32 26 21 19 26 31 30 31 29 29 26 25 26 24 21 18 18 16 14 13 13 12 10 11 13 14 16 18 19 18 18 15 15 14 14 14 13 11
21 24 28 27 29 31 27 28 32 23 28 27 27 28 30 26 27 27 27 24 21 18 16 15 14 11 10 8 5 5 3 7 8 4 6 12 7 4 4 7 7 7 9
6 14 22 26 30 36 36 35 33 29 26 25 25 33 25 21 20 22 26 25 22 17 17 13 11 11 9 9 10 5 2 3 3 9 6 8 6 6 6 7 8 9 10
15 15 15 21 24 26 25 26 23 25 23 22 25 27 20 17 17 18 23 22 23 16 13 11 10 12 14 13 13 12 14 9 2 4 2 3 3 3 3 6 8 9 10
12 15 17 17 18 19 24 27 30 31 25 19 26 13 11 10 7 13 15 18 16 8 5 7 10 13 12 13 13 12 7 9 11 6 4 4 3 8 6 7 10 10 11
7 10 15 15 15 15 16 17 20 18 19 19 19 13 14 13 11 15 13 9 7 13 11 15 12 11 19 16 13 12 11 6 4 6 4 5 6 7 5 7 11 12 11

GFSSE_925_spd_081.txt.gz
Wind_Speed
19 24 24 23 20 18 15 16 16 16 17 18 20 20 20 20 21 23 22 20 22 21 20 20 20 19 19 19 19 19 19 18 19 20 20 21 22 18 18 18 17 15 15
25 24 24 23 20 18 16 17 16 18 18 19 20 21 22 23 23 21 20 20 21 21 20 20 20 19 19 19 19 18 18 19 19 19 19 19 16 17 16 16 16 15 15
25 24 23 23 21 19 16 19 17 17 18 16 21 22 23 24 22 21 19 20 21 20 20 19 18 16 16 16 17 17 16 15 14 14 13 13 13 12 12 14 16 15 15
25 24 23 23 21 19 17 19 19 16 17 16 19 22 24 24 22 20 19 20 20 19 19 17 15 14 14 14 15 14 14 12 12 12 13 13 13 13 12 12 11 12 13
22 23 23 23 22 19 17 19 19 16 15 19 17 21 23 25 21 19 19 19 21 19 18 16 15 14 15 14 13 13 12 13 13 14 15 14 13 13 13 12 11 10 10
22 23 23 22 20 18 20 20 17 15 14 17 19 18 21 23 20 19 19 20 21 18 17 16 16 17 15 14 13 11 12 14 15 15 14 14 13 12 13 13 12 11 10
25 25 22 21 20 19 22 19 16 15 14 15 18 17 20 20 18 17 18 19 20 19 17 15 15 16 13 12 11 11 12 12 12 12 12 11 11 11 12 12 11 11 11
27 24 22 20 20 19 20 20 15 14 15 15 16 16 16 17 15 16 17 17 18 17 17 15 14 13 12 10 9 9 9 9 10 10 10 9 9 9 10 10 11 10 10
26 23 21 20 18 18 19 20 15 14 15 18 17 16 15 14 15 16 16 16 16 16 15 13 12 10 9 9 8 7 7 6 7 7 7 7 8 7 8 9 9 9 9
22 22 21 19 19 18 20 19 17 13 14 17 18 17 18 14 15 14 15 15 15 15 14 12 10 9 8 7 6 6 5 4 4 4 5 5 5 4 5 6 6 7 7
9 16 19 21 19 18 19 19 18 15 13 14 17 17 17 16 14 14 14 13 14 14 13 11 10 8 7 6 5 4 3 3 2 2 3 3 3 2 3 5 5 5 6
2 5 14 19 19 19 19 22 18 19 16 15 15 16 18 18 16 15 15 13 12 12 11 10 10 9 7 6 4 3 2 1 1 0 1 1 2 2 2 4 4 4 4
6 10 16 17 20 21 20 22 22 19 18 14 14 15 16 16 15 15 14 13 12 11 11 10 9 8 8 6 5 4 3 1 0 1 1 1 1 1 2 3 4 4 4
19 10 16 9 17 20 20 22 24 23 21 19 16 16 16 16 15 15 14 13 12 11 10 9 8 7 7 6 4 4 3 2 1 1 1 1 2 3 3 4 5 6 6
13 12 13 7 6 19 19 21 24 25 24 22 19 17 16 15 15 14 14 12 12 11 11 10 9 8 8 6 5 4 3 3 3 3 3 3 3 4 5 6 6 6 7
36 38 27 13 13 18 22 22 24 24 25 24 23 21 19 16 15 15 14 13 12 12 12 11 10 8 7 7 6 5 5 4 5 5 4 5 6 8 9 10 11 9 10
36 35 36 27 16 16 22 22 23 22 23 25 25 23 23 20 18 16 16 15 13 11 12 11 11 10 8 8 7 6 5 6 5 5 6 9 10 9 10 12 13 12 11
25 27 32 13 15 19 23 21 22 23 22 23 23 24 25 22 20 18 17 16 14 14 13 12 12 11 9 8 7 6 6 6 6 9 10 11 12 14 14 13 14 13 14
23 32 32 23 30 22 27 21 19 24 22 21 23 24 25 24 23 22 19 16 14 15 15 14 13 12 11 9 8 7 8 9 10 12 13 14 15 16 16 15 13 13 14
27 31 39 36 31 26 25 19 19 24 22 21 24 25 25 25 23 24 22 18 16 15 15 15 14 13 11 9 8 8 9 12 12 14 14 15 16 17 17 16 15 13 13
26 28 30 26 29 24 18 22 26 24 17 16 21 24 24 25 28 28 26 23 20 18 18 17 15 14 14 12 8 7 9 12 15 13 13 11 8 13 11 10 12 13 11
24 28 32 29 25 28 26 21 21 17 19 17 20 21 22 26 30 31 32 29 24 22 20 19 18 15 12 8 4 1 2 5 3 5 12 11 13 5 5 5 6 7 9
17 20 24 31 31 33 31 28 28 27 20 19 21 22 26 23 24 26 30 28 27 26 23 22 21 17 13 9 7 4 1 2 3 5 6 10 7 8 9 7 7 6 7
16 22 27 31 28 33 29 31 31 29 16 31 20 17 17 21 26 23 23 18 16 19 19 17 17 15 11 9 6 9 10 8 3 4 0 1 5 6 5 7 8 8 9
9 15 19 17 19 23 26 32 28 25 22 17 21 16 21 19 17 22 21 11 6 8 6 3 1 2 5 7 6 5 6 6 6 6 5 3 4 6 10 8 9 11 9
2 4 8 11 8 9 15 17 20 20 30 23 26 26 22 18 21 24 19 17 17 14 10 8 7 11 12 11 10 8 8 3 3 5 5 6 7 6 5 8 9 11 11

GFSSE_925_spd_084.txt.gz
Wind_Speed
16 22 25 24 21 18 16 15 14 14 17 18 18 18 19 19 19 21 21 20 21 20 20 20 16 18 18 19 17 17 17 17 18 21 22 19 17 16 18 17 14 13 14
21 23 25 24 22 19 17 16 16 16 16 20 20 19 20 21 22 22 20 20 20 20 20 18 18 18 17 16 16 17 17 18 18 19 17 14 16 14 14 14 13 15 15
22 23 24 24 22 20 19 18 18 18 18 20 21 21 23 24 22 20 20 20 20 20 19 19 18 17 16 16 15 14 15 15 14 14 15 12 11 11 13 13 13 14 14
22 22 23 23 21 19 20 18 19 18 16 20 21 23 23 24 22 20 20 20 21 20 19 17 15 15 15 15 14 13 11 12 12 14 11 12 12 12 11 10 10 10 9
20 22 22 24 22 19 21 20 18 18 16 19 22 23 24 24 21 21 20 22 21 20 18 15 15 15 15 14 13 11 11 12 14 12 12 11 11 11 11 10 9 9 9
21 20 21 24 23 20 22 21 19 17 17 16 19 23 25 23 20 20 22 22 20 19 17 15 17 16 15 13 11 12 13 14 13 10 11 12 11 10 10 10 10 10 9
21 19 19 23 22 20 23 23 19 16 18 17 17 21 24 22 19 19 22 22 19 18 16 16 17 15 14 12 11 11 12 12 9 9 9 9 9 9 9 9 9 9 9
19 18 19 20 21 22 23 22 18 16 17 19 16 20 21 20 17 17 18 21 18 16 15 15 15 14 12 10 10 10 10 10 8 8 7 7 8 7 8 8 8 8 8
12 16 17 18 17 22 23 21 17 16 18 20 20 17 19 18 15 16 16 17 17 15 15 14 13 12 11 9 8 8 7 9 6 5 5 5 6 5 6 6 7 7 7
8 15 16 17 17 18 20 20 17 16 19 19 19 17 16 15 16 16 15 15 16 16 15 13 12 11 10 9 7 7 6 5 3 4 3 3 5 3 3 4 4 5 6
11 17 14 17 18 18 19 20 18 16 18 21 18 17 16 14 15 16 14 15 16 15 14 12 11 10 9 8 7 6 5 3 3 3 3 2 3 2 1 2 3 3 4
14 26 16 18 18 18 18 19 18 17 16 16 17 18 15 15 15 14 14 15 14 14 13 11 10 10 8 6 5 5 3 3 3 3 3 2 1 2 1 2 3 2 3
24 26 17 19 18 17 17 18 19 18 16 15 16 18 16 16 15 13 12 12 11 12 10 9 8 7 7 6 6 6 5 4 4 3 4 3 3 2 2 3 3 3 3
30 20 28 19 19 17 14 19 17 18 16 15 16 17 17 16 16 15 14 13 12 11 10 10 9 8 7 7 6 6 6 5 4 4 4 3 3 3 4 4 5 5 5
32 36 34 17 9 21 14 15 18 17 18 15 15 16 16 15 15 15 14 13 12 11 11 10 9 9 8 8 7 7 6 6 5 5 4 5 4 4 5 6 8 8 8
31 31 40 33 8 10 19 16 17 18 18 17 15 15 15 14 14 13 12 12 12 11 11 11 10 10 9 9 8 8 8 7 7 6 6 6 7 8 9 10 11 11 10
40 40 34 30 24 19 17 17 16 18 18 16 16 16 16 14 13 12 12 12 11 11 11 10 11 10 9 8 8 8 7 7 8 7 7 7 8 9 8 10 13 13 13
30 31 27 33 34 29 20 24 17 16 17 17 17 16 17 16 13 13 12 12 11 11 11 12 11 10 10 9 9 8 8 7 7 8 8 9 9 10 12 13 13 14 15
28 27 23 25 29 28 20 18 19 16 17 15 15 16 16 16 15 15 13 13 13 12 12 12 12 12 11 10 9 9 8 7 9 9 10 10 11 12 12 14 16 15 13
22 21 24 29 33 29 19 13 12 13 14 16 18 16 15 16 17 17 15 15 14 14 14 14 14 13 12 11 9 8 9 9 9 10 10 10 10 11 10 11 10 10 13
13 18 30 27 26 21 12 15 13 14 15 12 14 15 16 17 16 17 17 17 16 16 16 17 16 14 13 11 8 10 10 9 11 11 7 5 4 8 6 5 6 6 7
13 20 22 21 19 23 15 10 15 13 8 8 9 10 13 17 18 18 18 17 17 17 17 17 17 14 14 14 9 5 4 5 3 6 7 6 6 6 4 4 5 5 4
12 8 15 20 11 16 13 16 17 16 13 6 4 10 10 11 16 18 20 23 23 21 15 16 18 19 17 16 17 7 3 4 3 6 4 6 5 5 6 5 3 4 4
9 17 15 16 18 27 28 26 19 18 8 11 12 16 12 9 10 16 20 20 20 22 26 22 19 14 16 15 15 12 7 6 4 4 2 3 3 6 6 6 5 5 6
22 23 19 25 27 24 25 30 33 24 24 24 28 18 18 15 11 14 15 11 12 20 22 15 10 7 8 9 10 8 6 4 5 8 6 6 4 7 7 8 7 4 5
9 17 25 21 17 25 29 32 31 29 28 27 26 23 15 14 18 16 16 18 25 24 23 21 18 10 8 7 9 12 13 8 7 6 6 7 6 9 6 6 7 6 8

GFSSE_925_spd_087.txt.gz
Wind_Speed
16 23 25 21 17 16 15 13 14 16 16 17 17 17 16 17 18 18 18 18 19 18 17 13 16 18 17 17 17 17 16 19 21 19 18 18 16 15 14 14 13 15 14
16 23 26 23 19 16 15 13 13 15 19 18 18 18 18 18 19 20 19 18 18 18 16 16 17 17 16 17 17 17 17 18 18 16 15 15 16 15 16 16 16 15 16
20 23 23 23 20 17 15 14 13 14 19 20 20 20 20 20 20 20 19 19 19 18 16 16 17 16 16 15 15 15 15 15 16 17 14 11 11 12 12 13 15 14 14
21 23 22 23 20 18 16 16 15 14 18 20 21 22 22 23 21 20 19 19 21 19 18 18 16 15 14 14 13 12 12 13 14 11 12 12 11 11 10 11 11 11 10
17 21 22 23 20 18 17 17 16 13 17 18 21 22 23 23 21 20 20 21 20 20 17 16 14 14 13 12 11 11 13 16 16 12 11 11 11 11 10 10 10 10 9
16 18 21 22 19 17 17 17 16 14 15 18 21 22 25 24 20 20 22 20 19 18 15 14 14 14 12 11 11 13 16 14 12 10 11 11 10 10 11 11 10 10 10
15 17 19 21 20 17 19 18 16 15 14 16 20 23 24 23 21 21 23 20 19 17 15 16 15 14 12 11 13 14 14 13 9 8 9 9 9 10 9 9 9 10 10
10 14 14 17 17 17 19 19 17 15 15 15 19 22 24 22 20 22 22 21 19 17 16 17 15 14 12 11 12 11 11 12 7 7 8 7 9 8 8 9 9 8 9
15 7 12 13 13 14 19 19 16 14 17 14 17 22 24 21 18 20 23 21 18 16 16 15 14 13 11 10 9 10 10 10 6 5 6 6 7 6 6 7 7 7 7
27 7 5 10 13 14 17 18 16 15 17 17 16 22 24 18 18 17 20 19 18 16 16 15 13 11 11 9 7 7 7 8 4 5 4 3 6 5 4 4 4 4 5
22 12 10 14 14 16 18 17 16 16 17 20 16 16 18 17 17 16 15 18 17 16 15 14 12 11 9 8 7 6 5 2 3 3 3 2 4 4 2 2 2 2 3
21 36 33 25 25 17 20 18 17 15 16 16 17 17 14 13 15 16 15 17 16 15 14 12 11 10 8 6 5 5 3 3 3 3 4 4 3 4 3 1 1 1 2
28 23 25 30 39 35 24 24 21 16 16 17 18 18 15 15 16 15 14 14 14 14 11 11 11 9 8 7 7 6 5 4 4 4 5 5 4 3 3 3 2 3 3
24 30 37 28 33 30 11 21 22 19 17 16 17 19 19 17 17 15 15 15 14 14 12 11 10 9 9 9 8 7 6 5 5 4 6 4 4 4 4 5 5 5 6
17 23 32 28 20 10 12 14 20 21 18 16 17 18 17 17 18 17 15 16 14 13 12 11 10 10 9 9 8 8 7 6 6 5 4 5 5 5 5 6 8 9 9
17 18 24 21 24 27 19 10 13 20 20 19 17 18 17 16 16 15 14 14 13 12 11 11 11 10 10 9 9 9 8 7 7 6 6 7 6 7 7 10 11 11 11
23 21 21 19 20 25 17 11 11 14 21 20 18 17 17 16 15 14 13 13 12 12 11 11 10 10 10 10 10 10 9 8 8 7 7 6 6 8 9 9 11 12 13
28 23 20 19 25 23 20 12 16 15 15 22 19 17 17 15 14 14 14 13 12 11 11 12 12 11 11 11 11 10 9 9 9 8 7 8 9 8 10 12 11 13 14
29 21 19 24 28 32 27 20 21 17 16 16 18 17 18 17 15 14 13 13 12 13 12 13 12 13 12 12 12 10 9 10 9 9 8 8 8 8 9 11 14 14 15
27 21 22 21 22 29 32 23 25 19 17 14 14 14 14 18 16 16 13 12 13 14 14 14 13 13 13 13 12 11 11 11 11 9 9 7 7 7 6 8 9 10 9
20 20 20 23 24 27 34 26 22 19 18 15 14 14 14 15 16 15 13 14 15 14 15 15 15 15 15 14 12 12 9 13 12 10 8 6 4 4 4 3 3 4 7
3 13 17 18 21 31 36 31 24 23 20 17 14 14 13 11 12 14 15 15 15 16 14 16 18 16 17 18 12 10 4 10 8 9 8 5 4 4 3 3 3 3 3
15 11 9 15 14 20 25 23 16 15 14 14 12 12 8 9 12 14 16 18 18 14 15 15 18 20 18 18 20 8 3 3 8 10 7 4 4 5 4 4 3 2 2
5 11 8 9 5 19 21 20 14 12 12 14 14 11 8 7 6 8 12 16 16 16 18 24 29 19 17 17 16 19 10 4 1 2 7 5 4 6 6 5 4 4 3
13 5 4 10 7 11 23 22 23 16 8 7 9 10 2 7 14 10 10 14 18 13 14 12 20 24 16 11 9 5 4 5 5 3 5 5 7 6 6 6 6 4 4
9 12 14 13 13 15 15 22 17 14 14 15 22 22 12 8 9 12 14 16 16 13 13 20 19 18 15 17 13 12 11 7 5 7 5 7 7 6 7 6 5 5 5

GFSSE_925_spd_093.txt.gz
Wind_Speed
24 29 23 20 20 19 18 17 18 17 17 17 15 15 15 15 17 18 17 18 18 16 17 17 16 18 18 17 20 21 19 19 18 18 17 17 19 20 16 20 19 18 15
30 31 26 21 20 18 17 17 17 17 17 17 16 16 17 16 17 17 17 18 17 17 16 19 20 19 19 17 19 20 20 21 19 16 16 17 17 17 16 17 18 17 19
28 28 26 22 20 18 16 16 16 16 16 17 16 17 17 18 18 17 18 19 17 20 20 21 20 18 18 17 20 19 18 17 15 15 12 14 14 13 13 13 14 15 16
29 30 26 20 19 18 16 14 15 17 16 16 17 17 17 18 20 19 18 20 18 20 21 20 20 18 17 18 20 19 15 11 9 12 11 11 14 13 13 13 13 13 13
27 29 26 21 18 16 14 14 13 16 18 17 18 18 19 20 21 19 21 20 20 19 20 19 18 16 16 18 19 17 16 19 16 13 11 11 13 13 12 12 12 13 13
27 26 26 23 19 16 14 12 14 14 18 18 19 20 20 22 22 21 25 20 21 19 18 19 17 15 14 16 20 18 17 13 10 9 9 12 13 12 12 13 13 13 12
24 24 24 21 18 16 14 12 13 12 17 16 19 20 22 23 22 20 26 22 19 17 16 16 15 14 14 17 19 16 15 12 12 8 9 11 12 11 11 12 12 12 12
25 24 22 21 18 15 13 13 12 10 15 15 17 20 22 24 23 22 24 21 19 18 18 17 14 13 14 18 18 15 15 13 12 6 7 9 10 10 10 10 10 10 10
24 28 25 21 17 14 12 10 11 9 9 15 16 19 22 24 24 24 22 21 19 18 17 18 15 14 15 16 15 15 13 12 9 5 7 8 9 8 8 8 8 9 9
24 26 27 23 20 17 12 9 9 9 8 12 16 18 22 23 23 22 22 21 20 19 18 17 15 14 14 14 14 14 11 11 7 6 6 5 6 7 6 6 6 7 7
21 25 28 26 24 19 15 9 7 8 9 9 16 21 24 23 25 23 23 21 21 21 20 19 16 13 12 11 11 12 12 9 8 5 3 2 4 5 5 4 4 4 5
16 24 29 24 20 18 19 16 7 7 10 11 18 26 27 27 25 23 24 22 21 20 20 18 16 13 11 10 9 10 9 8 7 7 4 2 4 5 3 3 3 2 3
24 23 19 21 21 20 22 23 10 5 8 12 18 29 29 27 28 26 25 24 22 20 20 18 16 14 12 10 7 6 7 6 9 7 5 3 4 5 4 3 1 0 1
18 20 22 20 19 21 18 15 16 15 17 18 19 26 26 25 27 29 27 27 25 22 20 18 15 13 12 10 7 6 6 6 8 10 5 5 4 5 5 4 4 3 3
18 22 21 22 26 21 17 18 28 29 28 29 28 27 24 23 28 29 28 27 25 23 21 17 14 13 12 9 8 9 8 10 8 10 9 7 4 5 5 6 6 6 7
12 10 11 16 19 21 21 21 25 18 9 28 32 29 26 26 29 29 27 29 27 24 21 17 15 12 12 11 12 12 10 10 11 12 12 6 7 5 6 6 6 7 8
16 8 10 14 13 17 15 22 25 28 9 20 30 29 27 26 32 27 25 26 26 23 21 17 16 14 14 14 14 13 12 13 12 11 10 9 9 8 7 6 6 7 7
15 18 22 15 15 17 22 17 19 19 18 22 18 19 26 31 32 26 24 25 24 21 22 20 18 17 16 15 14 15 14 15 14 15 12 13 12 10 9 8 7 8 9
23 25 23 20 16 13 15 22 19 23 28 32 30 29 23 26 25 31 25 27 24 24 23 20 19 18 16 15 14 14 16 15 14 13 12 13 12 12 9 8 6 8 9
27 26 20 20 16 14 12 16 23 27 28 27 32 31 32 28 29 31 27 25 25 23 22 21 19 18 18 17 16 14 15 14 17 15 14 12 15 11 9 8 6 9 7
18 17 17 16 17 12 13 17 18 26 30 26 29 33 32 32 32 30 29 26 25 26 25 21 19 19 18 15 15 15 15 15 15 15 15 12 14 11 8 7 7 6 7
17 17 17 20 12 12 15 14 21 23 22 26 28 32 30 33 32 32 28 27 26 23 26 23 21 19 17 18 11 4 2 8 20 21 19 17 15 10 7 7 7 7 7
14 14 16 19 19 16 15 18 18 23 23 24 25 29 39 40 36 32 31 29 25 24 21 23 22 22 20 17 20 6 2 4 3 14 16 21 17 12 7 9 9 6 7
3 3 4 10 14 16 14 18 21 20 18 21 22 24 30 33 29 25 26 29 26 23 20 24 22 21 17 15 12 15 6 4 2 2 11 15 15 12 11 11 9 7 7
3 4 5 1 3 5 12 17 20 20 22 13 10 18 24 26 34 30 23 25 21 22 21 25 23 24 21 21 22 14 14 13 10 1 3 5 11 9 7 10 10 7 6
5 4 3 5 4 3 6 10 12 12 22 21 13 10 11 17 12 20 24 22 13 16 17 28 21 22 24 23 21 23 19 9 10 8 3 4 3 7 12 12 9 9 10

GFSSE_925_spd_096.txt.gz
Wind_Speed
19 28 24 22 22 22 21 20 18 18 17 15 15 15 16 16 17 17 17 19 19 19 18 18 17 18 18 20 20 19 18 17 16 17 19 21 17 18 19 19 19 15 16
29 28 25 22 21 22 20 20 18 18 17 15 14 15 16 17 17 17 17 17 17 18 17 17 19 19 19 20 19 19 19 18 16 16 17 17 17 16 16 17 17 18 19
33 30 26 24 22 22 21 19 19 18 17 16 15 15 16 17 17 16 17 17 16 16 18 19 19 18 17 19 18 19 18 17 16 14 14 14 14 14 14 13 15 15 14
32 32 28 25 22 20 20 19 17 18 18 17 16 15 16 17 17 18 19 18 17 20 19 20 19 18 18 19 18 15 12 12 11 12 12 14 14 13 12 13 12 12 12
30 30 28 25 22 20 18 17 18 17 17 17 18 17 17 18 18 18 20 18 21 22 20 21 18 17 21 19 16 15 14 15 13 11 12 12 14 12 12 12 12 12 12
30 28 26 23 21 19 17 15 15 18 17 17 18 18 18 18 20 18 22 21 22 19 18 19 18 19 20 17 16 16 15 14 11 10 12 13 13 12 12 13 13 12 12
28 28 26 24 22 18 16 14 14 14 18 17 18 19 18 20 21 20 21 22 20 19 18 18 17 17 18 19 16 14 12 12 10 9 11 12 12 11 11 12 12 12 12
28 30 26 22 20 19 16 15 14 13 16 17 18 19 19 20 21 21 22 21 19 15 18 17 17 17 18 19 16 13 11 12 9 8 9 11 11 10 10 10 10 10 10
23 25 26 23 20 18 16 16 15 10 12 15 16 17 18 20 22 22 22 20 17 16 17 16 16 16 19 19 15 13 11 12 9 8 8 8 10 9 9 9 9 8 8
18 19 22 22 20 19 18 16 15 13 9 12 13 14 19 22 23 26 23 20 19 18 18 17 16 16 18 18 16 13 10 10 8 6 6 6 7 7 7 7 7 6 7
16 17 23 23 21 19 18 17 16 13 10 9 13 14 19 24 25 25 24 22 18 19 21 18 16 16 16 16 15 13 12 9 9 7 4 5 6 6 5 5 5 5 5
17 19 23 24 22 20 19 19 17 16 12 8 10 17 21 26 27 25 23 22 21 18 18 17 17 16 15 14 15 15 12 9 8 8 5 4 5 6 5 4 4 4 3
20 22 23 25 23 21 20 19 18 14 14 6 4 16 23 25 27 27 25 25 24 24 22 20 18 17 16 14 13 14 12 10 10 11 7 5 6 7 6 5 4 3 2
13 21 23 24 21 19 21 21 18 17 13 12 5 10 21 28 30 30 28 29 27 26 24 22 19 17 16 14 13 12 12 10 10 11 8 7 6 7 8 7 6 4 3
11 14 23 21 22 23 23 21 18 17 13 10 12 10 22 27 29 31 30 29 30 26 25 24 21 19 17 16 13 13 12 11 11 11 12 9 7 7 8 8 7 7 6
15 17 20 21 21 22 23 19 16 18 14 15 20 16 27 28 25 25 29 28 29 26 25 24 22 20 19 17 15 15 14 13 13 13 13 12 9 8 8 9 8 8 9
18 17 18 20 15 18 24 22 21 21 20 8 22 23 28 28 23 22 30 30 29 30 26 24 22 19 19 18 17 16 15 14 14 14 13 15 10 11 10 9 8 9 9
17 20 20 20 17 11 19 22 23 22 26 12 22 28 25 29 28 30 33 33 34 33 29 28 24 23 20 21 19 18 18 16 16 16 14 15 15 14 14 12 11 11 10
21 20 22 21 19 14 17 22 22 18 23 24 27 28 27 30 34 34 34 33 34 34 32 33 27 26 23 22 19 18 18 18 18 17 16 17 19 19 16 15 13 11 11
23 22 23 20 18 16 19 26 21 19 22 23 27 28 26 39 39 39 34 31 29 31 33 31 28 26 24 21 19 17 18 18 17 18 18 18 14 18 17 15 13 11 10
22 23 23 20 19 19 21 22 22 24 25 30 29 38 36 33 35 38 37 34 33 35 35 32 29 26 24 22 16 18 18 17 18 20 20 17 20 18 19 15 12 10 9
19 26 26 23 20 22 22 23 18 23 29 31 29 32 37 39 36 36 34 35 36 37 34 32 30 26 26 22 11 5 2 8 19 20 20 19 21 17 19 14 11 9 8
9 13 16 19 18 20 19 18 17 15 12 22 19 24 31 39 37 35 36 37 37 35 35 34 34 30 26 26 23 7 2 4 3 11 21 20 21 22 20 16 12 9 8
8 6 5 3 6 16 19 21 25 23 18 17 25 25 27 30 35 34 34 38 38 37 36 38 37 35 30 24 23 19 7 6 3 0 2 12 19 21 21 17 14 11 9
7 8 6 4 1 3 14 23 22 22 18 16 20 26 27 26 34 32 33 34 37 33 32 33 37 36 36 27 25 15 15 8 4 3 2 3 4 6 13 17 16 13 10
5 5 4 4 3 3 3 6 18 21 18 16 20 20 22 18 18 34 34 31 27 25 24 30 32 31 29 21 28 27 28 14 14 9 3 4 14 22 15 12 15 14 12

GFSSE_925_spd_099.txt.gz
Wind_Speed
16 27 24 21 21 21 22 21 19 18 16 16 17 17 18 16 15 15 16 17 17 17 16 14 14 15 18 17 16 16 16 15 15 18 17 17 18 17 18 16 16 14 16
22 29 25 22 20 20 22 21 20 18 17 17 16 17 16 16 16 17 18 18 18 18 17 16 16 16 19 17 17 16 15 15 16 15 15 16 15 15 15 17 18 18 18
25 28 24 22 21 21 21 20 19 19 17 16 16 16 16 16 17 17 17 18 18 17 17 18 18 18 18 18 17 16 16 15 14 13 12 13 13 12 12 14 13 14 14
29 28 26 23 22 21 21 20 19 18 17 15 15 16 16 17 17 16 16 17 17 16 19 20 16 15 17 17 15 13 13 14 12 11 12 12 13 11 11 11 11 12 12
27 27 25 23 23 22 20 18 19 18 18 17 16 15 17 17 16 16 17 17 18 20 21 20 18 17 18 16 12 9 10 10 10 11 12 12 12 11 11 11 11 12 12
26 27 25 23 22 21 20 20 19 18 18 17 17 16 16 17 18 18 19 17 21 22 20 17 18 18 18 16 13 13 13 11 10 11 11 12 12 11 11 12 12 11 12
27 26 25 24 22 20 18 18 19 19 18 17 17 16 16 17 18 18 19 21 21 19 17 16 19 20 17 16 13 12 11 10 8 9 11 11 11 10 10 10 11 11 11
26 25 25 22 22 20 17 15 15 17 19 17 19 18 18 18 19 19 20 21 18 17 16 17 20 19 18 15 12 11 12 9 8 8 9 10 11 9 9 9 9 10 9
19 21 23 22 20 18 16 15 14 14 16 18 18 19 18 17 19 20 20 21 17 14 14 17 18 18 19 16 12 11 12 9 7 8 8 9 9 9 7 8 7 8 8
17 20 21 21 18 17 16 15 14 11 13 16 16 17 16 17 19 20 22 20 18 14 14 15 16 17 20 17 13 10 12 10 7 6 6 7 7 7 6 6 5 5 5
15 19 21 21 20 18 15 15 13 12 10 15 14 15 17 19 22 22 25 23 20 17 18 16 16 17 20 18 15 11 10 10 8 7 5 6 7 6 5 5 4 3 3
16 19 23 25 23 21 19 17 17 15 13 13 14 15 17 21 25 28 26 25 20 20 21 19 17 17 18 18 17 15 12 10 10 9 7 6 7 6 5 4 3 2 2
14 14 20 24 26 24 22 21 20 17 14 12 12 15 16 21 27 28 27 23 20 21 22 21 19 18 18 17 17 16 14 12 10 10 9 8 7 8 6 5 4 3 2
14 15 17 22 24 24 23 21 20 18 15 11 11 13 17 21 24 26 26 25 25 23 25 22 21 19 18 17 17 17 16 14 12 11 11 10 9 9 9 7 6 5 5
14 14 19 21 22 22 21 22 19 17 17 15 14 12 16 22 27 26 25 28 28 27 24 24 22 21 20 19 18 17 17 16 14 14 14 12 10 10 10 9 8 8 7
15 15 16 22 22 21 20 22 21 21 18 16 14 14 15 20 30 33 25 27 30 29 26 24 23 22 21 20 19 18 17 17 16 15 16 15 13 11 11 10 10 9 10
23 17 18 22 23 23 24 23 24 22 19 19 19 21 23 25 29 32 29 24 27 26 25 24 24 23 21 21 22 20 18 18 17 17 16 16 16 15 13 12 11 10 11
23 20 18 20 23 23 25 26 24 24 23 22 22 17 24 29 31 29 24 23 24 23 27 26 28 26 25 24 23 22 20 20 19 18 18 17 19 17 16 15 14 12 12
21 23 20 20 22 22 22 23 24 24 22 23 24 19 22 29 29 26 30 29 25 26 30 32 32 29 28 26 24 23 21 21 20 19 19 19 20 21 20 19 17 14 14
21 20 20 22 22 20 20 19 20 20 19 20 24 26 23 26 30 35 34 31 28 32 34 37 34 31 30 28 24 22 21 22 21 21 22 21 22 21 24 23 19 19 15
20 22 23 25 22 22 20 18 15 17 18 21 24 26 27 32 25 31 28 32 35 39 40 38 35 32 32 28 22 21 21 21 22 23 23 23 23 23 21 22 19 19 15
21 21 22 26 23 23 21 19 14 14 18 23 26 27 28 30 29 28 33 34 36 40 35 34 35 28 30 29 14 2 2 11 24 24 21 24 25 23 23 22 21 19 15
9 13 17 18 18 19 18 18 17 11 15 16 25 30 34 32 29 29 33 35 38 40 36 38 36 34 24 30 29 9 2 4 2 10 23 22 22 21 22 23 21 19 15
10 9 6 7 12 14 12 16 19 17 14 22 25 30 34 35 32 30 32 37 37 38 38 40 40 38 31 23 29 28 14 5 3 2 5 14 21 21 24 24 21 20 16
13 11 11 8 4 1 6 12 15 16 20 26 23 27 32 32 29 29 29 33 37 37 39 38 37 38 37 27 26 24 16 12 6 2 3 3 12 18 25 26 27 23 16
7 8 9 6 5 2 1 1 4 19 22 21 22 22 26 29 30 29 26 29 30 31 32 33 33 33 32 33 31 28 24 12 10 5 1 3 8 21 29 30 29 27 22

GFSSE_925_spd_102.txt.gz
Wind_Speed
10 22 21 20 18 19 19 17 17 18 18 18 18 18 17 15 14 13 15 16 15 16 15 17 17 17 16 15 15 16 15 12 16 17 19 18 16 16 14 14 15 16 18
14 22 20 19 18 19 20 17 16 16 17 17 17 17 16 15 14 15 16 15 15 16 15 15 16 19 16 16 16 15 15 17 17 15 15 16 16 16 16 17 18 17 17
20 23 20 19 18 19 19 19 18 16 15 16 17 15 15 15 15 16 16 16 17 16 16 17 18 18 18 17 17 16 15 15 13 13 13 14 13 11 13 13 12 13 12
22 25 22 20 19 19 18 18 17 17 16 15 15 16 15 15 16 16 16 17 18 18 16 19 19 18 18 17 16 15 15 13 11 10 11 13 12 11 10 10 11 11 11
23 24 22 20 21 20 18 18 18 17 15 15 14 15 16 17 17 17 17 16 16 15 19 17 16 16 16 15 13 12 12 11 10 10 11 11 12 11 10 11 10 10 10
22 22 21 19 20 20 20 18 18 17 17 16 16 15 15 16 16 16 17 15 18 18 21 18 17 17 16 12 11 12 11 10 10 10 11 11 12 11 11 11 10 10 10
20 20 21 20 20 20 19 19 17 17 16 16 16 16 15 15 15 16 18 17 21 21 20 14 17 18 16 14 13 13 11 10 9 10 11 11 11 10 10 10 10 9 9
17 19 20 17 17 18 17 18 18 17 16 16 16 16 16 16 16 17 17 19 21 19 17 15 17 17 16 13 12 11 10 8 9 9 10 10 10 9 9 8 8 8 8
14 17 19 18 17 16 15 14 15 16 17 16 16 16 16 15 16 17 18 21 20 18 16 16 20 17 16 13 11 12 10 8 7 8 8 9 9 8 7 7 7 6 6
13 17 18 19 18 17 15 13 13 13 14 16 16 16 16 14 15 18 18 19 18 16 16 17 21 19 17 14 12 11 11 9 7 7 7 8 8 7 6 5 5 5 5
11 17 19 21 20 19 17 16 14 12 12 13 16 16 16 16 16 18 20 21 19 15 13 17 20 19 20 16 13 11 12 10 9 8 6 7 7 6 5 5 4 3 4
16 14 16 20 21 20 20 19 17 16 13 13 15 16 17 18 19 22 23 22 19 16 15 15 16 18 21 19 16 13 12 12 10 9 7 8 8 8 6 5 4 3 3
19 15 14 18 21 23 22 20 19 18 16 13 15 16 17 19 21 24 25 24 22 18 18 18 17 18 21 21 19 16 13 13 11 11 10 9 8 9 8 7 6 5 3
21 18 15 15 22 23 24 23 21 18 15 13 13 15 17 20 24 26 27 27 25 22 22 22 21 20 20 20 20 19 17 15 13 12 12 11 10 11 11 10 8 7 6
23 18 16 15 19 24 23 22 19 19 17 15 14 15 16 17 22 25 27 27 25 22 25 24 23 21 21 20 19 19 19 18 15 14 14 14 13 12 12 12 11 10 8
24 20 14 16 19 21 24 23 13 20 18 16 15 14 13 14 19 23 30 30 27 25 25 25 23 21 21 20 20 19 19 18 17 16 15 16 15 14 13 13 13 13 12
26 21 19 16 18 22 21 24 25 26 23 22 20 17 16 15 18 25 29 30 29 30 28 25 23 21 21 21 21 21 20 19 19 19 18 17 18 17 15 15 14 14 13
24 22 19 15 18 24 24 22 23 26 25 23 21 19 19 21 21 24 30 32 30 29 29 24 25 25 25 23 25 24 23 21 20 21 19 19 18 20 18 17 16 15 14
24 22 19 16 20 23 24 23 23 24 24 25 24 23 21 21 21 27 32 34 30 31 30 25 27 26 25 26 27 26 24 24 22 22 22 22 22 21 21 20 19 18 17
26 22 20 16 17 20 21 19 20 23 27 27 26 24 21 20 19 23 31 32 27 28 28 29 27 28 27 26 29 27 25 26 23 25 25 23 23 23 22 23 22 21 20
27 23 20 17 18 20 20 14 14 18 22 21 25 22 20 18 19 23 26 28 27 30 27 29 30 30 28 30 24 23 28 28 25 27 27 26 27 26 24 24 24 24 22
26 24 20 20 19 23 22 18 14 13 15 19 21 20 20 17 19 23 25 26 30 30 33 30 33 26 29 31 17 8 3 11 25 31 29 30 28 25 26 25 23 24 24
17 19 19 17 17 20 21 18 13 13 10 13 16 18 18 21 24 24 29 28 28 32 35 42 38 34 26 28 33 15 3 4 3 16 33 33 30 28 27 26 25 25 25
12 12 13 13 13 14 15 15 15 13 8 12 15 18 20 19 24 30 30 32 32 33 34 32 39 38 31 22 23 34 21 5 4 2 9 24 31 27 27 26 25 25 26
8 14 15 14 12 6 6 10 10 11 13 17 19 21 23 22 23 26 30 33 34 34 34 35 33 36 34 27 25 22 29 19 13 4 3 5 16 25 27 26 25 27 27
17 13 14 15 12 9 7 4 1 5 12 16 17 18 23 26 27 29 30 33 32 31 38 40 39 37 36 33 27 30 24 17 15 7 3 4 6 12 24 24 26 30 30

GFSSE_925_spd_105.txt.gz
Wind_Speed
8 20 20 19 20 17 16 16 15 15 17 17 17 17 17 14 13 13 15 15 19 14 16 16 15 14 16 16 15 14 13 15 17 17 16 16 15 14 13 14 16 15 17
11 21 20 18 19 18 17 16 15 16 15 16 16 16 15 14 12 14 16 15 16 15 16 17 17 16 13 15 15 12 14 17 17 16 16 17 17 16 16 17 17 14 14
14 20 19 19 19 18 17 17 15 15 16 15 15 15 14 13 12 14 15 16 17 16 16 18 18 17 16 15 15 15 13 15 14 13 13 11 11 12 12 12 12 11 11
13 17 17 19 18 19 19 18 17 15 14 14 14 14 13 14 14 14 14 16 18 17 17 19 18 17 16 16 16 15 14 12 11 12 11 10 9 10 10 10 10 10 10
14 18 18 18 16 18 19 19 18 18 15 14 14 14 15 14 15 15 14 16 17 16 17 21 17 16 16 15 15 14 12 11 10 10 10 10 10 9 10 10 9 10 11
13 16 17 18 18 18 18 18 18 18 17 16 13 13 14 15 15 15 16 16 15 16 20 19 17 17 16 14 13 11 11 10 10 10 10 9 9 9 9 9 9 9 10
13 16 15 15 18 18 17 16 16 16 16 16 16 14 14 14 15 16 16 15 16 18 18 15 17 18 16 12 12 12 10 10 10 10 10 10 8 9 9 9 9 9 9
11 15 16 15 14 15 16 16 14 15 15 15 16 15 14 14 14 15 17 17 19 21 18 13 16 17 17 15 14 12 11 9 10 10 10 9 9 8 7 7 8 8 8
8 12 15 15 15 15 15 15 16 16 14 15 16 16 15 14 14 14 16 17 20 21 18 14 16 16 16 15 14 13 10 8 9 9 10 9 10 8 7 6 6 7 7
5 11 14 15 16 15 15 14 15 16 18 18 15 17 16 16 14 15 17 18 20 20 17 15 18 17 16 15 14 14 12 8 8 8 9 8 9 8 7 6 5 5 5
13 8 15 18 18 17 16 16 15 16 15 16 18 17 16 16 16 16 18 19 20 18 16 15 19 18 17 14 12 14 13 11 9 8 8 9 8 7 6 5 5 4 4
21 18 12 17 19 19 19 18 17 15 15 15 16 19 19 18 18 18 19 20 20 18 16 16 19 19 18 15 14 14 15 13 11 10 9 9 9 9 7 6 5 4 4
23 22 18 14 19 21 21 21 18 16 16 15 16 17 18 19 19 19 19 21 20 19 17 15 18 19 21 21 19 16 15 15 14 13 11 10 10 10 9 8 7 6 5
27 25 22 16 15 20 23 23 20 19 17 15 14 16 17 20 20 22 21 21 21 22 22 19 19 20 20 22 20 18 17 15 15 13 13 12 11 11 11 11 10 9 7
29 27 23 19 16 17 21 24 22 20 17 15 15 16 17 19 20 23 26 27 26 25 23 22 22 21 20 21 21 20 19 18 17 15 14 14 14 14 13 13 12 11 10
30 28 24 21 18 17 19 21 23 19 15 16 17 18 18 17 16 18 21 25 28 26 25 24 24 23 21 20 20 20 19 19 20 18 17 16 16 16 15 15 15 14 12
30 27 25 22 18 18 21 22 20 21 9 21 21 18 17 15 14 15 19 23 27 28 27 24 25 25 23 20 21 21 20 20 20 20 19 18 17 19 18 17 16 15 15
32 28 24 21 19 18 21 22 28 26 19 14 15 21 19 15 15 17 20 24 29 29 27 27 25 25 25 21 21 23 21 20 21 21 22 22 21 21 22 21 19 18 16
32 26 24 21 19 20 20 23 24 25 28 29 27 25 19 18 19 20 21 23 25 28 29 28 28 27 22 23 21 24 22 22 23 24 24 24 23 22 22 23 22 21 19
28 25 26 23 21 21 20 21 20 20 22 25 26 23 20 20 19 19 22 24 24 24 25 25 25 29 21 21 24 26 24 23 24 26 28 26 27 26 25 25 25 24 23
29 26 25 25 21 20 22 20 18 18 22 24 24 23 22 21 20 19 20 23 24 25 25 23 21 22 30 29 21 23 30 30 27 29 30 29 29 29 27 27 26 27 26
24 27 24 26 18 20 25 20 13 14 15 18 16 18 17 17 18 21 21 25 23 21 22 22 19 19 18 24 14 9 5 13 20 32 36 33 32 31 31 31 28 29 27
23 26 21 23 28 20 26 20 14 9 8 8 11 13 16 16 18 20 21 22 22 22 24 26 27 24 19 19 27 13 2 7 10 20 30 36 36 35 34 32 31 29 29
16 17 16 17 21 29 24 17 13 11 7 7 8 9 9 10 12 16 21 24 23 24 27 27 29 31 27 22 20 31 33 12 5 5 12 21 29 31 37 36 33 31 30
8 5 8 12 12 8 8 9 9 8 8 10 11 15 16 17 16 17 18 22 24 26 30 31 30 33 35 32 29 22 29 34 24 7 7 4 13 28 35 36 33 33 32
19 18 11 11 15 14 14 10 7 2 4 8 12 14 15 15 15 16 18 21 24 25 26 28 31 33 35 35 34 33 29 16 24 18 7 8 6 10 24 28 30 30 30

GFSSE_925_spd_108.txt.gz
Wind_Speed
4 10 18 17 17 16 16 16 12 14 14 15 16 14 13 11 10 11 12 13 16 16 13 12 13 12 14 15 12 12 14 14 12 13 13 13 11 10 11 12 14 15 14
6 11 19 18 17 16 16 16 15 15 14 14 13 13 13 12 11 11 12 13 13 13 15 14 13 15 14 12 10 13 13 15 14 14 16 15 15 15 15 15 14 12 12
4 10 16 17 18 17 16 16 16 15 15 15 14 12 12 12 11 12 12 12 12 14 16 16 15 13 12 12 12 12 13 13 13 13 14 9 9 11 10 11 11 10 9
3 9 13 16 17 18 16 16 15 16 15 15 14 13 12 11 11 13 13 13 14 13 17 19 18 16 16 13 14 11 13 11 11 10 6 6 6 8 8 8 9 9 9
4 8 9 14 15 17 17 16 15 14 14 15 16 14 13 13 11 12 13 15 16 12 15 19 16 15 16 16 14 13 11 10 9 8 6 6 6 6 7 8 8 9 9
4 7 9 13 14 14 15 16 16 16 14 13 12 12 14 13 13 13 12 14 16 13 17 18 14 15 15 15 15 12 11 10 9 6 6 7 6 6 7 7 8 8 8
5 7 8 13 12 12 15 14 15 15 16 15 14 13 13 13 14 15 13 15 15 14 20 17 14 14 14 13 12 11 11 10 7 6 6 6 6 8 7 7 7 7 7
4 6 8 11 13 12 12 13 14 15 14 14 15 15 15 14 14 14 15 16 15 16 20 16 15 15 14 11 12 11 10 11 9 7 6 6 7 7 6 6 7 7 6
5 3 8 9 11 14 15 15 13 13 14 14 14 15 14 14 14 14 16 16 16 19 19 15 14 15 14 12 12 11 10 9 8 8 7 6 8 7 6 5 5 6 6
11 6 5 9 11 11 12 16 15 16 15 15 15 16 16 15 14 14 15 17 18 21 20 15 14 17 16 14 13 11 9 8 7 8 8 8 9 7 7 6 5 5 5
11 12 10 10 10 13 14 13 15 15 16 17 17 17 15 14 14 14 15 17 18 21 20 17 15 18 17 15 13 13 12 7 7 7 7 11 11 9 7 6 5 5 4
13 13 11 11 11 14 15 15 14 13 12 12 14 14 15 15 15 15 16 19 20 21 19 17 16 18 18 13 12 15 13 10 9 8 7 11 11 10 9 8 7 6 6
16 14 13 13 10 13 14 15 15 18 17 14 13 13 14 15 15 15 15 16 19 21 17 16 15 16 16 15 14 14 14 12 11 10 9 11 11 10 11 10 10 9 8
20 20 16 13 12 12 16 14 17 19 17 17 11 12 13 15 15 15 17 16 18 19 19 17 15 16 18 18 16 15 14 13 12 11 11 13 13 12 12 12 12 11 10
22 22 19 15 13 11 14 17 15 17 21 16 12 12 13 15 15 15 18 16 18 18 19 18 16 16 18 18 18 18 17 15 13 12 11 14 15 15 14 14 14 13 13
23 22 21 19 15 13 13 18 19 15 19 18 15 14 14 14 14 15 15 16 17 18 21 20 18 18 18 18 19 19 18 16 15 15 13 12 16 18 18 17 17 16 16
27 25 22 22 19 16 15 15 21 16 17 21 16 12 17 13 13 12 13 15 16 19 22 25 21 17 19 17 17 17 18 18 16 16 16 14 14 17 20 20 19 18 18
28 30 26 22 21 19 18 16 20 17 18 20 17 10 13 17 16 12 12 12 13 15 17 19 19 20 21 19 17 17 16 17 15 17 17 16 15 15 16 23 22 22 20
26 27 28 23 22 21 19 18 19 24 22 17 19 23 20 21 17 15 14 14 13 16 18 21 20 20 20 22 26 20 18 17 17 19 19 18 17 18 17 19 24 25 24
23 23 22 21 20 19 19 18 19 24 28 23 19 18 19 16 15 16 16 16 16 17 18 21 21 21 20 20 25 17 19 18 20 20 20 19 20 20 19 20 19 24 27
20 21 22 19 19 18 19 17 18 21 22 24 27 22 25 29 24 23 18 16 16 22 20 22 22 20 19 19 15 20 24 27 27 23 21 20 20 19 22 23 22 21 21
19 19 18 19 20 18 20 19 13 15 18 16 14 16 20 18 18 18 16 16 16 19 19 21 19 18 19 18 13 17 9 20 25 30 30 29 26 29 27 27 25 24 23
17 16 17 19 20 20 19 17 13 10 8 10 8 10 12 14 14 14 15 17 14 17 20 22 22 21 19 18 21 16 4 8 15 21 27 28 29 29 30 32 32 28 28
19 17 16 17 15 15 15 16 15 12 10 7 5 4 4 7 9 12 14 16 17 17 18 19 21 21 21 19 15 27 27 10 2 8 23 21 23 27 29 29 31 29 29
20 12 9 9 8 12 12 12 10 11 5 3 2 5 5 8 11 11 12 15 16 17 17 19 21 23 25 26 25 16 23 23 25 11 7 7 9 19 25 26 27 27 31
18 16 14 12 14 17 17 12 7 7 6 6 6 5 5 8 9 5 8 12 15 18 17 22 23 28 26 29 29 28 26 15 20 17 12 17 16 21 18 18 20 22 31

GFSSE_925_spd_111.txt.gz
Wind_Speed
12 4 12 12 11 12 11 9 9 11 12 11 12 10 9 8 7 6 7 8 9 10 10 10 10 10 11 10 9 9 10 10 11 12 12 11 10 9 11 11 14 12 13
13 5 12 12 12 12 11 10 9 11 12 11 12 10 8 8 7 7 8 9 10 10 9 9 10 11 13 7 10 10 10 11 12 11 11 13 14 14 14 13 12 11 11
10 3 12 13 12 12 12 11 10 11 11 11 11 10 10 8 7 7 8 9 10 11 10 10 10 12 10 8 10 11 12 11 13 12 10 11 9 10 9 9 9 10 10
10 4 10 13 12 12 12 12 11 11 11 11 10 10 10 8 7 8 9 9 9 10 12 12 11 10 11 9 10 10 11 11 11 8 3 6 6 7 7 8 8 9 9
8 3 7 11 11 12 11 11 10 11 11 10 10 9 9 8 8 8 10 9 12 9 12 14 15 11 11 11 9 8 9 9 10 5 4 5 5 5 7 8 7 8 9
11 2 6 7 10 10 12 12 12 11 11 12 12 11 10 11 9 9 10 11 13 12 14 17 14 11 12 11 10 8 7 7 8 4 4 6 5 5 6 6 6 8 8
11 6 4 5 8 9 11 12 13 12 12 11 11 10 11 12 11 11 12 11 14 14 15 17 13 13 13 12 10 8 7 7 3 4 5 5 5 6 6 6 6 6 7
10 7 4 3 9 8 9 12 13 13 13 13 12 12 12 12 12 13 13 13 14 14 14 17 15 13 14 13 11 8 7 8 3 4 4 5 7 8 6 5 4 5 5
11 9 9 6 6 10 12 12 12 14 14 14 14 14 13 12 12 13 14 16 17 16 16 18 14 14 15 13 13 11 9 8 6 5 5 5 7 8 7 5 4 4 3
10 10 9 8 7 9 11 13 15 14 13 14 14 14 14 14 14 13 14 15 16 16 18 20 15 15 15 13 13 12 10 9 7 6 6 5 7 7 7 6 5 4 4
8 8 9 9 9 10 12 12 12 15 16 16 15 15 15 13 14 14 14 15 17 17 19 20 15 15 16 14 13 12 11 8 7 8 7 10 9 7 6 6 5 5 5
12 11 9 9 9 11 13 13 12 13 13 13 14 14 13 14 15 16 15 17 18 18 20 20 17 14 17 12 13 15 14 10 10 9 9 11 12 9 8 7 6 5 5
14 14 13 12 11 9 11 14 14 14 13 13 14 13 13 14 16 16 15 12 17 19 20 19 16 14 15 16 15 13 14 14 12 11 11 12 13 12 11 9 8 8 7
17 17 18 16 14 11 12 15 18 18 16 16 16 14 14 13 14 15 17 17 16 17 21 19 19 16 17 18 17 16 16 15 13 11 12 13 13 13 12 13 12 11 10
21 20 18 17 17 16 13 14 17 20 18 16 14 14 13 13 14 14 16 14 13 16 18 21 22 20 19 18 20 19 17 16 14 13 11 13 13 15 14 14 14 14 14
22 22 20 19 19 20 18 17 16 19 18 17 16 15 18 13 13 15 15 15 16 17 18 20 19 19 17 18 18 18 19 17 16 15 14 13 13 16 17 17 17 17 17
23 24 25 23 20 22 21 20 19 19 24 19 18 17 20 16 12 13 13 15 15 17 17 18 17 18 18 18 17 18 19 19 19 17 17 15 14 14 17 20 20 20 19
24 25 25 23 24 21 22 22 21 19 22 22 19 17 19 18 16 12 12 13 12 11 13 14 17 21 21 20 23 22 20 20 20 19 18 18 18 16 16 18 22 22 21
22 23 24 23 25 23 23 24 24 21 22 21 19 17 18 15 14 15 12 12 12 12 13 14 17 18 17 19 21 22 22 21 23 21 21 22 21 20 17 18 19 22 25
20 21 22 22 22 21 20 21 23 21 24 22 20 19 17 18 15 13 14 10 19 15 13 16 19 18 21 18 20 21 20 21 20 22 21 23 25 23 21 21 19 20 23
22 20 20 21 22 20 18 19 20 17 22 27 23 20 16 15 16 17 14 12 18 18 17 18 20 18 19 21 14 17 20 25 26 26 27 25 23 24 23 23 22 21 19
30 26 23 23 21 20 18 19 17 15 24 26 26 23 19 17 17 18 17 19 16 20 17 18 20 16 18 18 10 11 4 12 28 31 29 30 29 26 25 26 27 27 26
25 26 27 22 21 20 18 17 18 20 20 20 22 20 19 19 19 17 17 18 22 20 18 18 19 21 19 20 26 13 3 6 8 18 30 33 32 31 33 32 35 34 30
23 23 24 21 19 20 17 17 19 19 17 20 22 19 17 16 15 16 17 17 20 20 21 21 21 21 22 20 18 23 24 12 3 5 14 19 29 30 31 31 30 30 28
22 22 20 17 10 13 11 17 13 14 21 24 16 14 13 8 6 7 12 14 17 18 21 22 21 21 22 21 21 16 17 20 20 7 8 10 12 21 24 27 25 23 24
24 22 20 16 14 9 4 6 10 6 11 24 16 11 12 7 3 1 4 6 8 12 17 20 21 23 24 23 23 23 22 10 14 12 10 14 17 26 23 26 26 24 23

GFSSE_925_spd_114.txt.gz
Wind_Speed
16 5 3 6 6 7 6 5 6 8 8 8 8 8 6 5 4 4 5 6 9 7 7 7 7 8 10 9 9 10 9 11 11 13 11 11 10 11 10 15 12 13 13
10 4 4 8 7 8 7 5 6 8 8 8 9 7 5 5 4 4 5 6 7 7 6 5 6 7 9 7 8 8 9 11 11 11 12 14 14 15 15 13 9 12 11
13 3 6 9 7 7 7 6 5 7 7 7 8 7 7 5 4 4 5 6 7 7 6 7 6 12 8 4 8 8 10 13 14 14 13 9 9 10 9 8 9 10 10
14 3 6 8 7 6 6 5 6 6 7 7 7 6 6 6 5 4 5 7 7 8 10 8 10 9 9 7 8 7 8 11 10 5 1 8 4 7 7 8 9 9 10
12 3 3 9 7 8 8 7 6 6 7 6 6 6 6 6 6 6 7 6 9 5 9 10 11 9 8 9 9 7 8 8 7 8 7 8 4 6 8 7 8 10 9
10 12 3 4 7 7 9 9 9 8 8 8 7 7 6 7 8 8 7 8 10 9 10 13 12 9 9 10 10 8 7 7 7 5 3 3 6 5 7 7 6 8 8
8 9 5 3 4 6 7 8 9 9 9 9 10 10 9 9 9 8 8 8 10 13 10 14 13 10 10 11 9 8 8 9 5 6 1 4 3 6 7 7 7 7 8
11 7 7 3 4 5 5 8 9 11 11 11 11 11 11 10 10 10 10 10 10 12 10 14 14 11 12 12 10 8 7 10 9 5 4 6 3 6 6 6 6 6 7
12 9 7 3 3 6 9 10 10 11 12 13 13 13 13 12 11 10 11 12 13 13 12 15 16 13 13 12 11 10 8 10 8 8 7 8 7 7 5 4 4 5 5
9 10 9 5 5 5 6 12 12 14 13 14 14 15 14 14 14 13 13 13 15 15 14 15 17 13 14 13 13 13 10 10 10 4 9 10 8 8 7 5 4 3 3
9 8 11 9 7 8 10 9 9 13 16 16 16 16 16 17 16 14 15 16 15 15 15 16 18 15 14 14 13 13 12 11 11 7 9 11 8 9 9 8 7 5 4
11 10 10 10 11 9 10 12 10 13 15 15 19 19 17 17 15 16 17 19 15 15 15 17 19 16 15 16 16 15 15 12 11 11 12 12 10 10 10 9 9 8 7
15 15 13 14 15 14 10 15 17 16 14 13 16 17 17 16 14 16 17 12 17 15 16 18 19 19 19 18 16 17 17 16 14 14 14 14 13 12 12 11 10 9 9
18 19 18 18 17 17 16 16 17 18 22 21 20 18 11 18 17 16 17 14 17 18 19 20 22 23 21 19 21 20 15 14 16 13 16 16 15 14 14 14 12 12 11
19 20 20 19 19 21 19 18 19 19 21 24 22 23 22 14 18 15 15 15 15 18 18 22 23 25 23 22 21 22 20 19 16 16 15 15 15 14 17 16 15 14 14
20 22 22 22 20 19 18 20 20 21 21 25 24 22 20 22 17 18 19 19 12 16 18 20 24 27 25 23 24 22 19 20 18 19 18 17 16 15 18 19 19 18 17
24 26 25 23 22 21 23 22 22 21 22 24 25 25 28 23 20 18 17 18 19 18 19 19 21 22 24 21 21 21 20 22 21 19 17 18 19 18 18 21 22 21 21
24 24 26 26 24 25 26 23 22 24 25 25 27 26 27 25 24 21 17 15 14 15 14 16 19 22 21 24 26 22 25 23 22 21 21 25 23 23 20 19 22 24 24
23 24 24 25 27 25 24 26 24 26 25 26 23 30 24 27 25 25 20 20 16 9 7 8 14 16 18 22 23 25 27 29 27 25 26 23 23 25 25 22 22 22 25
23 27 29 27 24 25 26 25 22 25 28 26 25 27 32 26 26 26 24 18 13 11 11 9 14 17 17 16 17 20 21 25 26 29 31 31 27 27 29 27 23 23 24
23 24 28 29 27 23 25 24 23 24 27 23 25 26 23 27 25 23 22 20 16 13 18 15 12 18 19 17 17 18 23 25 28 25 27 30 31 33 31 33 32 30 28
24 26 30 31 32 28 22 22 21 23 21 23 27 29 28 28 26 25 24 20 15 16 19 17 14 18 17 13 7 4 2 7 26 31 32 35 35 32 31 27 30 32 30
26 29 30 32 31 30 26 24 25 24 24 25 26 29 36 31 31 31 25 24 20 19 18 18 15 19 16 14 20 10 2 4 4 18 30 33 34 34 36 39 32 30 31
25 26 27 28 27 25 23 24 25 22 21 23 27 30 34 37 40 26 25 15 13 13 15 19 16 19 18 18 16 25 27 10 3 3 10 20 31 32 33 34 38 44 43
22 22 22 24 24 24 21 16 14 12 4 14 19 15 21 21 9 25 14 12 8 8 11 12 16 19 23 23 23 20 20 20 19 8 9 9 17 19 30 29 35 35 37
20 21 20 22 24 20 20 17 7 7 13 11 18 23 21 16 14 15 10 6 3 1 5 10 12 14 16 20 22 24 19 7 7 10 8 12 13 27 28 29 31 32 31

GFSSE_925_spd_117.txt.gz
Wind_Speed
14 10 2 3 4 7 5 4 3 4 4 4 5 5 5 5 5 5 6 7 9 9 7 8 8 9 9 10 9 9 10 11 13 14 12 12 11 10 14 11 12 13 12
12 4 2 4 4 5 5 3 3 4 4 5 4 4 4 4 3 4 4 6 6 7 7 7 7 9 7 8 8 8 9 10 11 12 12 14 14 15 13 9 10 11 10
13 3 4 6 4 5 5 4 4 4 4 5 5 4 4 3 1 3 3 5 5 5 4 6 6 10 5 8 8 8 11 12 13 12 10 9 11 10 8 7 9 10 9
12 3 4 4 5 5 4 4 4 5 5 5 5 4 4 4 4 1 3 5 6 5 4 5 9 11 6 10 9 9 13 11 10 5 1 6 4 6 7 8 9 9 9
9 7 0 4 3 4 4 3 4 5 6 6 4 5 5 5 5 3 4 5 7 5 9 8 9 8 6 8 9 10 12 10 6 6 8 9 2 6 8 9 9 9 9
7 8 3 1 4 5 6 6 5 5 6 6 5 6 5 5 6 6 5 6 7 7 8 11 11 8 7 9 10 10 10 11 8 7 6 4 1 5 7 7 7 8 9
8 9 7 3 3 4 5 7 8 8 8 8 9 9 9 7 7 7 7 7 8 11 9 12 12 11 9 11 10 9 9 10 7 6 5 5 3 4 7 6 7 7 7
11 8 7 5 1 2 4 6 8 9 10 10 10 10 10 10 9 9 10 10 9 11 11 11 14 12 11 12 12 10 10 11 8 5 8 6 5 6 8 8 7 6 6
11 10 7 4 4 3 5 7 9 10 11 12 13 13 13 13 12 11 11 12 12 12 12 12 16 14 12 14 13 12 11 13 11 8 8 7 6 6 9 8 7 7 7
8 11 11 9 5 3 5 7 9 10 13 13 14 15 15 15 15 14 13 14 14 15 15 15 16 17 14 15 15 13 11 13 14 9 11 10 8 8 9 8 8 7 7
10 9 11 14 11 9 10 9 9 11 12 14 17 17 17 17 17 17 17 17 17 17 17 17 17 19 16 16 17 16 15 14 15 11 11 11 11 9 9 9 8 8 7
16 14 11 12 15 17 14 13 13 12 14 16 16 19 20 19 19 20 18 17 18 17 17 17 18 20 19 19 19 17 18 16 17 14 14 14 14 12 12 12 11 10 9
14 17 18 20 18 18 19 17 17 17 18 16 16 18 19 19 17 15 19 19 18 20 18 17 19 22 23 21 20 21 19 18 18 18 16 19 16 14 13 13 12 12 11
15 17 18 18 19 20 21 21 20 20 20 22 21 18 16 20 24 20 20 21 19 22 21 21 23 25 25 24 22 22 21 21 21 20 16 21 18 16 15 17 16 15 14
20 21 21 20 21 21 21 20 21 22 23 23 25 26 26 25 19 25 21 20 19 22 23 23 25 27 28 27 25 26 24 23 18 23 18 23 20 18 16 19 18 17 17
20 23 24 23 20 20 22 23 25 24 24 25 24 27 28 29 29 23 26 23 22 19 23 23 25 28 29 28 27 25 29 25 25 21 21 20 21 20 18 19 21 20 19
20 21 24 25 25 24 22 23 23 23 26 27 28 26 30 28 30 28 25 26 25 18 20 22 22 25 28 28 29 27 28 28 24 23 27 25 23 23 21 20 22 24 24
22 25 27 27 26 25 25 24 24 24 25 26 28 30 29 30 31 31 30 29 27 23 21 22 23 24 25 25 28 29 31 33 30 24 19 23 23 24 24 23 21 24 26
25 25 28 30 28 26 25 26 24 24 23 28 30 28 31 31 35 32 28 28 27 25 22 21 17 19 17 16 22 26 24 20 25 29 21 19 21 25 26 26 26 25 26
23 21 25 27 27 27 27 24 25 25 25 25 27 26 29 30 34 34 30 29 27 24 22 20 17 13 12 10 14 19 21 22 28 30 31 31 27 27 24 28 29 29 28
24 24 27 27 28 28 26 28 26 25 24 24 25 23 26 29 31 37 35 34 28 26 24 19 15 15 14 15 14 16 22 22 22 25 28 30 33 35 33 32 31 34 33
23 25 26 26 27 27 24 26 27 28 26 25 25 27 29 31 31 32 32 33 33 28 25 22 18 15 13 14 8 5 0 7 20 28 31 33 37 35 34 35 37 35 37
24 25 24 26 28 28 29 29 23 23 24 22 21 24 28 29 32 36 36 35 35 31 26 24 21 18 17 15 19 8 2 5 3 13 27 34 34 34 36 37 36 34 33
23 24 26 28 27 23 26 28 19 18 14 7 13 14 15 13 16 22 28 37 36 28 20 20 19 16 16 13 14 21 25 4 3 2 11 21 29 28 32 33 34 36 40
22 22 23 24 23 25 24 23 18 15 11 9 15 15 12 15 12 11 15 26 28 19 19 10 12 12 8 9 12 12 15 18 23 8 5 7 15 20 21 25 29 32 32
18 18 20 23 23 23 24 20 18 15 11 11 16 17 14 15 20 21 12 14 11 14 13 6 3 2 1 2 5 8 11 8 4 6 6 8 11 21 26 28 29 29 32

GFSSE_925_spd_120.txt.gz
Wind_Speed
13 10 3 4 3 6 3 3 4 3 4 4 5 4 4 4 4 4 5 6 7 6 7 9 10 10 9 8 8 9 9 11 11 10 11 12 11 11 11 10 12 12 12
11 4 2 4 2 5 4 2 2 3 4 5 4 3 3 2 3 3 4 5 6 5 6 6 7 8 9 9 7 9 10 11 10 10 9 9 11 14 10 8 9 10 10
11 1 2 5 3 3 3 2 2 3 3 5 5 4 3 2 1 2 3 5 5 5 5 5 6 9 6 8 6 10 11 13 13 10 10 10 10 9 7 7 9 9 10
10 3 1 3 3 2 3 3 2 3 4 4 4 3 4 5 4 2 3 5 6 6 4 6 6 10 6 9 8 11 13 13 11 6 6 6 3 4 6 7 8 9 9
8 6 0 3 2 3 3 3 4 4 4 4 4 4 5 5 5 5 4 6 8 8 10 8 11 10 7 9 10 13 12 10 6 3 9 6 3 5 7 7 6 7 7
6 8 3 1 1 3 5 5 5 5 5 6 6 6 6 6 6 8 6 8 9 9 8 10 11 11 8 9 11 14 14 9 4 7 9 7 4 5 8 7 7 7 7
7 8 4 4 2 2 4 6 7 8 8 8 9 9 10 9 8 8 9 9 10 11 10 11 12 12 10 11 12 14 14 13 8 7 9 7 5 5 7 7 8 8 8
11 10 7 5 3 2 3 5 7 9 10 11 11 12 12 12 11 11 12 12 12 12 14 11 15 15 13 13 14 13 13 14 11 9 10 9 6 6 8 8 8 8 7
9 11 11 9 6 3 4 7 9 10 11 13 14 14 14 14 14 13 13 13 14 14 14 15 16 17 16 14 16 15 14 15 13 10 12 12 8 9 10 9 8 8 8
10 10 10 12 11 9 8 8 10 12 13 14 15 16 17 17 17 17 16 16 16 17 16 17 17 19 19 16 17 17 16 15 17 13 12 14 11 11 12 11 10 9 9
12 13 13 14 16 16 15 14 13 12 14 16 16 18 19 20 20 20 19 19 18 18 18 19 19 19 21 19 18 19 18 18 19 18 15 15 15 14 13 13 13 12 11
13 14 16 17 18 18 19 19 18 16 15 17 19 20 20 22 23 22 22 21 21 20 20 21 21 21 22 23 22 21 22 21 20 21 18 16 18 16 15 14 14 14 13
13 14 15 16 16 17 19 20 20 20 19 19 21 20 23 22 23 24 25 23 23 22 23 22 22 23 26 27 25 24 24 22 22 22 21 19 20 19 18 16 17 16 16
14 16 17 19 20 19 19 19 21 22 22 23 23 22 23 22 23 26 24 24 24 25 24 26 25 25 27 30 29 26 25 25 24 24 25 22 23 24 21 19 18 19 18
16 18 20 21 20 21 22 21 20 21 23 24 25 25 24 26 27 26 25 30 28 28 28 30 29 29 29 31 31 29 28 27 27 27 27 26 25 28 25 22 21 20 20
16 19 20 21 22 23 24 23 24 22 21 23 25 26 26 27 30 33 34 32 32 31 30 30 31 30 30 32 33 33 32 30 29 27 26 30 26 31 29 24 22 22 21
17 20 22 23 26 26 25 24 23 24 25 25 25 24 25 27 30 31 34 36 32 28 29 29 30 30 29 32 34 34 34 32 33 30 30 27 29 31 31 27 24 24 24
21 22 22 23 24 25 25 25 25 24 23 26 25 24 25 27 28 32 32 35 32 32 31 30 31 29 27 29 32 34 33 30 31 33 30 31 32 31 33 31 28 25 25
21 22 24 25 26 26 27 24 23 23 23 23 24 25 26 27 28 29 32 34 35 37 36 33 31 30 27 25 27 28 26 30 26 23 21 15 16 29 32 34 31 29 28
20 21 22 23 26 27 26 25 25 23 20 20 21 21 23 24 23 26 30 32 34 36 36 35 33 31 29 27 18 17 17 18 16 20 29 29 33 26 24 28 32 32 31
20 21 23 23 25 21 20 21 25 27 26 22 21 23 24 25 28 28 29 31 32 34 36 35 34 28 24 19 13 15 19 19 23 25 22 27 33 34 32 29 28 29 33
20 20 22 19 21 20 20 21 18 21 22 21 18 20 22 25 26 26 26 27 27 28 34 33 27 20 22 22 10 4 2 5 18 27 28 26 27 30 36 41 35 35 36
18 18 19 21 20 19 22 20 23 21 18 13 18 18 19 19 19 19 22 22 23 27 28 32 29 26 17 23 21 7 2 4 1 11 23 20 24 33 34 33 34 35 36
16 14 16 19 20 19 22 20 21 15 14 15 16 18 18 17 18 16 12 11 14 15 25 31 33 29 23 19 14 24 15 2 2 3 7 15 24 28 26 23 27 30 28
13 14 15 17 19 20 19 20 21 21 18 18 21 19 19 18 19 22 16 13 11 5 8 19 31 33 30 22 17 6 5 5 7 5 4 4 12 16 18 17 23 27 27
13 15 16 19 19 18 19 19 20 19 18 23 26 25 21 23 22 24 24 14 17 16 18 10 7 9 13 12 9 6 1 1 2 5 6 6 8 14 24 24 30 30 32